[[{"header":{"parameterUnit":"m.s-1","parameterCategory":1,"la1":30.6,"la2":29.2853,"lo1":-89.7004,"lo2":-87.6739,"dy":0.0162,"dx":0.0183,"nx":112,"ny":82,"refTime":"2026-04-07T00:00:00:Z","depth":0,"parameterNumber":2,"parameterNumberName":"U-component_of_WINDS"},"data":[0.0,0.0,0.0,0.0,0.0,0.0,0.0,0.0,0.0,0.0,0.0,0.0,0.0,0.0,0.0,0.0,0.0,0.0,0.0,0.0,0.0,0.0,0.0,0.0,0.0,0.0,0.0,0.0,0.0,0.0,0.0,0.0,0.0,0.0,0.0,0.0,0.0,0.0,0.0,0.0,0.0,0.0,0.0,0.0,0.0,0.0,0.0,0.0,0.0,0.0,0.0,0.0,0.0,0.0,0.0,0.0,0.0,0.0,0.0,0.0,0.0,0.0,0.0,0.0,0.0,0.0,0.0,0.0,0.0,0.0,0.0,0.0,0.0,0.0,0.0,0.0,0.0,0.0,0.0,0.0,0.0,0.0,0.0,0.0,0.0,0.0,0.0,0.0,0.0,0.0,0.0,3.8014,4.0131,4.1292,4.0735,3.8861,3.6198,3.2659,0.0,0.0,0.0,0.0,0.0,0.0,0.0,0.0,0.0,0.0,0.0,0.0,0.0,0.0,0.0,0.0,0.0,0.0,0.0,0.0,0.0,0.0,0.0,0.0,0.0,0.0,0.0,0.0,0.0,0.0,0.0,0.0,0.0,0.0,0.0,0.0,0.0,0.0,0.0,0.0,0.0,0.0,0.0,0.0,0.0,0.0,0.0,0.0,0.0,0.0,0.0,0.0,0.0,0.0,0.0,0.0,0.0,0.0,0.0,0.0,0.0,0.0,0.0,0.0,0.0,0.0,0.0,0.0,0.0,0.0,0.0,0.0,0.0,0.0,0.0,0.0,0.0,0.0,0.0,0.0,0.0,0.0,0.0,0.0,0.0,0.0,0.0,0.0,0.0,0.0,0.0,0.0,0.0,0.0,0.0,0.0,0.0,0.0,0.0,0.0,0.0,0.0,0.0,0.0,3.5927,4.0414,4.1298,4.1382,4.0821,3.7774,3.4841,3.2403,0.0,0.0,0.0,0.0,0.0,0.0,0.0,0.0,0.0,0.0,0.0,0.0,0.0,0.0,0.0,0.0,0.0,0.0,0.0,0.0,0.0,0.0,0.0,0.0,0.0,0.0,0.0,0.0,0.0,0.0,0.0,0.0,0.0,0.0,0.0,0.0,0.0,0.0,0.0,0.0,0.0,0.0,0.0,0.0,0.0,0.0,0.0,0.0,0.0,0.0,0.0,0.0,0.0,0.0,0.0,0.0,0.0,0.0,0.0,0.0,0.0,0.0,0.0,0.0,0.0,0.0,0.0,0.0,0.0,0.0,0.0,0.0,0.0,0.0,0.0,0.0,0.0,0.0,0.0,0.0,0.0,0.0,0.0,0.0,0.0,0.0,0.0,0.0,0.0,0.0,0.0,0.0,0.0,0.0,0.0,0.0,0.0,0.0,0.0,0.0,0.0,0.0,0.0,3.5189,3.6122,4.0521,4.0772,4.0361,3.982,3.77,3.5205,3.239,3.0443,0.0,0.0,0.0,0.0,0.0,0.0,0.0,0.0,0.0,0.0,0.0,0.0,0.0,0.0,0.0,0.0,0.0,0.0,0.0,0.0,0.0,0.0,0.0,0.0,0.0,0.0,0.0,0.0,0.0,0.0,0.0,0.0,0.0,0.0,0.0,0.0,0.0,0.0,0.0,0.0,0.0,0.0,0.0,0.0,0.0,0.0,0.0,0.0,0.0,0.0,0.0,0.0,0.0,0.0,0.0,0.0,0.0,0.0,0.0,0.0,0.0,0.0,0.0,0.0,0.0,0.0,0.0,0.0,0.0,0.0,0.0,0.0,0.0,0.0,0.0,0.0,0.0,0.0,0.0,0.0,0.0,0.0,0.0,0.0,0.0,0.0,0.0,0.0,0.0,0.0,0.0,0.0,0.0,0.0,0.0,0.0,0.0,0.0,0.0,0.0,0.0,0.0,3.7243,3.7347,4.0107,3.9982,3.9521,3.912,3.7587,3.5403,3.2591,2.9854,0.0,0.0,0.0,0.0,0.0,0.0,0.0,0.0,0.0,0.0,0.0,0.0,0.0,0.0,0.0,0.0,0.0,0.0,0.0,0.0,0.0,0.0,0.0,0.0,0.0,0.0,0.0,0.0,0.0,0.0,0.0,0.0,0.0,0.0,0.0,0.0,0.0,0.0,0.0,0.0,0.0,0.0,0.0,0.0,0.0,0.0,0.0,0.0,0.0,0.0,0.0,0.0,0.0,0.0,0.0,0.0,0.0,0.0,0.0,0.0,0.0,0.0,0.0,0.0,0.0,0.0,0.0,0.0,0.0,0.0,0.0,0.0,0.0,0.0,0.0,0.0,0.0,0.0,0.0,0.0,0.0,0.0,0.0,0.0,0.0,0.0,0.0,0.0,0.0,0.0,0.0,0.0,0.0,0.0,0.0,0.0,0.0,0.0,0.0,0.0,0.0,0.0,3.7488,3.9438,3.9727,3.9724,3.9672,3.9647,3.6709,3.4349,3.3115,2.902,0.0,0.0,0.0,0.0,0.0,0.0,0.0,0.0,0.0,0.0,0.0,0.0,0.0,0.0,0.0,0.0,0.0,0.0,0.0,0.0,0.0,0.0,0.0,0.0,0.0,0.0,0.0,0.0,0.0,0.0,0.0,0.0,0.0,0.0,0.0,0.0,0.0,0.0,0.0,0.0,0.0,0.0,0.0,0.0,0.0,0.0,0.0,0.0,0.0,0.0,0.0,0.0,0.0,0.0,0.0,0.0,0.0,0.0,0.0,0.0,0.0,0.0,0.0,0.0,0.0,0.0,0.0,0.0,0.0,0.0,0.0,0.0,0.0,0.0,0.0,0.0,0.0,0.0,0.0,0.0,0.0,0.0,0.0,0.0,0.0,0.0,0.0,0.0,0.0,0.0,0.0,0.0,0.0,0.0,0.0,0.0,0.0,0.0,0.0,0.0,0.0,0.0,3.6259,3.8126,0.0,3.9697,3.9697,3.9697,3.7889,3.5705,3.3266,0.0,0.0,0.0,0.0,0.0,0.0,0.0,0.0,0.0,0.0,0.0,0.0,0.0,0.0,0.0,0.0,0.0,0.0,0.0,0.0,0.0,0.0,0.0,0.0,0.0,0.0,0.0,0.0,0.0,0.0,0.0,0.0,0.0,0.0,0.0,0.0,0.0,0.0,0.0,0.0,0.0,0.0,0.0,0.0,0.0,0.0,0.0,0.0,0.0,0.0,0.0,0.0,0.0,0.0,0.0,0.0,0.0,0.0,0.0,0.0,0.0,0.0,0.0,0.0,0.0,0.0,0.0,0.0,0.0,0.0,0.0,0.0,0.0,0.0,0.0,0.0,0.0,0.0,0.0,0.0,0.0,0.0,0.0,0.0,0.0,0.0,0.0,0.0,0.0,0.0,0.0,0.0,0.0,0.0,0.0,0.0,0.0,0.0,0.0,0.0,0.0,0.0,3.4417,3.6514,3.8366,0.0,4.0224,4.0149,3.9973,3.8442,3.6132,3.2993,0.0,0.0,0.0,0.0,0.0,0.0,0.0,0.0,0.0,0.0,0.0,0.0,0.0,0.0,0.0,0.0,0.0,0.0,0.0,0.0,0.0,0.0,0.0,0.0,0.0,0.0,0.0,0.0,0.0,0.0,0.0,0.0,0.0,0.0,0.0,0.0,0.0,0.0,0.0,0.0,0.0,0.0,0.0,0.0,0.0,0.0,0.0,0.0,0.0,0.0,0.0,0.0,0.0,0.0,0.0,0.0,0.0,0.0,0.0,0.0,0.0,0.0,0.0,0.0,0.0,0.0,0.0,0.0,0.0,0.0,0.0,0.0,0.0,0.0,0.0,0.0,0.0,0.0,0.0,0.0,0.0,0.0,0.0,0.0,0.0,0.0,0.0,0.0,0.0,0.0,0.0,0.0,0.0,0.0,0.0,0.0,0.0,0.0,0.0,0.0,0.0,0.0,3.5626,3.8632,4.0725,4.1277,4.1327,4.1102,4.0549,3.8014,3.5225,0.0,0.0,0.0,0.0,0.0,0.0,0.0,0.0,0.0,0.0,0.0,0.0,0.0,0.0,0.0,0.0,0.0,0.0,0.0,0.0,0.0,0.0,0.0,0.0,0.0,0.0,0.0,0.0,0.0,0.0,0.0,0.0,0.0,0.0,0.0,0.0,0.0,0.0,0.0,0.0,0.0,0.0,0.0,0.0,0.0,0.0,0.0,0.0,0.0,0.0,0.0,0.0,0.0,0.0,0.0,0.0,0.0,0.0,0.0,0.0,0.0,0.0,0.0,0.0,0.0,0.0,0.0,0.0,0.0,0.0,0.0,0.0,0.0,0.0,0.0,0.0,0.0,0.0,0.0,0.0,0.0,0.0,0.0,0.0,0.0,0.0,0.0,0.0,0.0,0.0,0.0,0.0,0.0,0.0,0.0,0.0,0.0,0.0,0.0,0.0,0.0,0.0,0.0,3.5353,3.9196,4.1909,4.2434,4.2158,4.1884,4.1708,3.9522,3.6808,3.3596,0.0,0.0,0.0,0.0,0.0,0.0,0.0,0.0,0.0,0.0,0.0,0.0,0.0,0.0,0.0,0.0,0.0,0.0,0.0,0.0,0.0,0.0,0.0,0.0,0.0,0.0,0.0,0.0,0.0,0.0,0.0,0.0,0.0,0.0,0.0,0.0,0.0,0.0,0.0,0.0,0.0,0.0,0.0,0.0,0.0,0.0,0.0,0.0,0.0,0.0,0.0,0.0,0.0,0.0,0.0,0.0,0.0,0.0,0.0,0.0,0.0,0.0,0.0,0.0,0.0,0.0,0.0,0.0,0.0,0.0,0.0,0.0,0.0,0.0,0.0,0.0,0.0,0.0,0.0,0.0,0.0,0.0,0.0,0.0,0.0,0.0,0.0,0.0,0.0,0.0,0.0,0.0,0.0,0.0,0.0,0.0,0.0,0.0,0.0,0.0,0.0,0.0,3.585,3.9899,4.2813,4.3564,4.3338,4.2989,4.2537,4.0904,3.814,3.4148,0.0,0.0,0.0,0.0,0.0,0.0,0.0,0.0,0.0,0.0,0.0,0.0,0.0,0.0,0.0,0.0,0.0,0.0,0.0,0.0,0.0,0.0,0.0,0.0,0.0,0.0,0.0,0.0,0.0,0.0,0.0,0.0,0.0,0.0,0.0,0.0,0.0,0.0,0.0,0.0,0.0,0.0,0.0,0.0,0.0,0.0,0.0,0.0,0.0,0.0,0.0,0.0,0.0,0.0,0.0,0.0,0.0,0.0,0.0,0.0,0.0,0.0,0.0,0.0,0.0,0.0,0.0,0.0,0.0,0.0,0.0,0.0,0.0,0.0,0.0,0.0,0.0,0.0,0.0,0.0,0.0,0.0,0.0,0.0,0.0,0.0,0.0,0.0,0.0,0.0,0.0,0.0,0.0,0.0,0.0,0.0,0.0,0.0,0.0,0.0,0.0,0.0,3.693,4.0803,4.3639,4.4715,4.479,4.4342,4.3341,4.2108,3.9345,3.4575,0.0,0.0,0.0,0.0,0.0,0.0,0.0,0.0,0.0,0.0,0.0,0.0,0.0,0.0,0.0,0.0,0.0,0.0,0.0,0.0,0.0,0.0,0.0,0.0,0.0,0.0,0.0,0.0,0.0,0.0,0.0,0.0,0.0,0.0,0.0,0.0,0.0,0.0,0.0,0.0,0.0,0.0,0.0,0.0,0.0,0.0,0.0,0.0,0.0,0.0,0.0,0.0,0.0,0.0,0.0,0.0,0.0,0.0,0.0,0.0,3.4935,0.0,0.0,0.0,0.0,0.0,0.0,0.0,0.0,0.0,0.0,0.0,0.0,0.0,0.0,0.0,0.0,0.0,0.0,0.0,0.0,0.0,0.0,0.0,0.0,0.0,0.0,0.0,0.0,0.0,0.0,0.0,0.0,0.0,0.0,0.0,0.0,0.0,0.0,0.0,0.0,0.0,3.8064,4.2311,4.5372,4.6446,4.617,4.5673,4.502,4.3165,4.0627,3.7337,0.0,0.0,0.0,0.0,0.0,0.0,0.0,0.0,0.0,0.0,0.0,0.0,0.0,0.0,0.0,0.0,0.0,0.0,0.0,0.0,0.0,0.0,0.0,0.0,0.0,0.0,0.0,0.0,0.0,0.0,0.0,0.0,0.0,0.0,0.0,0.0,0.0,0.0,0.0,0.0,0.0,0.0,0.0,0.0,0.0,0.0,0.0,0.0,0.0,0.0,0.0,0.0,0.0,0.0,0.0,0.0,0.0,0.0,0.0,0.0,0.0,3.6157,0.0,0.0,0.0,0.0,0.0,0.0,0.0,0.0,0.0,0.0,0.0,0.0,0.0,0.0,0.0,0.0,0.0,0.0,0.0,0.0,0.0,0.0,0.0,0.0,0.0,0.0,0.0,0.0,0.0,0.0,0.0,0.0,0.0,0.0,0.0,0.0,0.0,0.0,0.0,0.0,3.8818,4.3137,4.6301,4.735,4.6998,4.6476,4.5924,4.4066,4.1783,3.8994,3.5631,0.0,0.0,0.0,0.0,0.0,0.0,0.0,0.0,0.0,0.0,0.0,0.0,0.0,0.0,0.0,0.0,0.0,0.0,0.0,0.0,0.0,0.0,0.0,0.0,0.0,0.0,0.0,0.0,0.0,0.0,0.0,0.0,0.0,0.0,0.0,0.0,0.0,0.0,0.0,0.0,0.0,0.0,0.0,0.0,0.0,0.0,0.0,0.0,0.0,0.0,0.0,0.0,0.0,4.1543,4.2423,4.294,4.2589,4.3203,4.439,4.1855,4.0639,4.0287,3.8929,0.0,0.0,0.0,0.0,0.0,0.0,0.0,0.0,0.0,0.0,0.0,0.0,0.0,0.0,0.0,0.0,0.0,0.0,0.0,0.0,0.0,0.0,0.0,0.0,3.965,3.8688,0.0,0.0,0.0,0.0,0.0,0.0,0.0,0.0,0.0,0.0,0.0,0.0,3.9207,4.3361,4.6425,4.7439,4.747,4.7124,4.6471,4.5095,4.3112,4.0425,3.7814,3.4979,0.0,0.0,0.0,0.0,0.0,0.0,0.0,0.0,0.0,0.0,0.0,0.0,0.0,0.0,0.0,0.0,0.0,0.0,0.0,0.0,0.0,0.0,0.0,0.0,0.0,0.0,0.0,0.0,0.0,0.0,0.0,0.0,3.1594,3.2381,0.0,0.0,0.0,0.0,0.0,0.0,0.0,0.0,0.0,0.0,0.0,0.0,0.0,4.0007,4.0613,4.2335,4.3219,4.3257,4.5322,4.6582,4.7111,4.7065,4.7417,4.8106,4.7668,0.0,4.1176,4.1282,0.0,0.0,0.0,0.0,0.0,0.0,0.0,0.0,0.0,0.0,0.0,0.0,0.0,0.0,0.0,0.0,0.0,0.0,0.0,0.0,0.0,0.0,4.4251,4.3335,4.3148,4.2841,0.0,3.8359,3.4961,3.3151,3.2627,0.0,0.0,0.0,0.0,0.0,0.0,0.0,3.8915,4.258,4.5198,4.6164,4.7646,4.8134,4.7074,4.6376,4.4995,4.2713,4.0852,3.8793,3.6431,3.3395,0.0,0.0,0.0,0.0,0.0,0.0,0.0,0.0,0.0,0.0,0.0,0.0,0.0,0.0,0.0,0.0,0.0,0.0,0.0,0.0,0.0,0.0,0.0,0.0,0.0,0.0,0.0,0.0,0.0,3.0917,3.2644,3.2605,3.3444,3.3491,0.0,0.0,0.0,0.0,0.0,0.0,0.0,0.0,0.0,4.2804,4.2757,4.3296,4.4466,4.591,4.6903,4.7531,4.9163,5.0368,5.1172,5.1172,5.1473,5.2034,5.1674,5.0142,4.7606,4.5008,4.2741,4.0824,0.0,0.0,0.0,0.0,4.1156,4.1504,4.3128,4.3061,0.0,4.2059,0.0,0.0,0.0,0.0,0.0,0.0,0.0,0.0,0.0,0.0,4.5243,4.5595,4.5869,4.568,4.4127,4.185,3.9394,0.0,3.6353,3.4816,3.0303,0.0,0.0,0.0,0.0,0.0,3.8586,4.1443,4.3396,4.4144,4.5533,4.6207,4.5688,4.5757,4.5296,4.3991,4.2635,4.1053,3.9145,3.6759,3.4248,0.0,0.0,0.0,0.0,0.0,0.0,0.0,0.0,0.0,0.0,0.0,0.0,0.0,0.0,0.0,0.0,0.0,0.0,0.0,0.0,0.0,0.0,0.0,0.0,0.0,0.0,0.0,0.0,3.229,3.3944,3.3345,3.4876,3.5223,0.0,0.0,0.0,0.0,0.0,0.0,4.2347,4.2293,4.3554,4.6431,4.6387,4.7023,4.8579,4.9565,5.0444,5.1272,5.2101,5.3005,5.3934,5.3934,5.4195,5.4572,5.4145,5.3708,5.3005,4.8586,4.6167,4.5124,4.3478,4.2997,4.3407,4.4386,4.4599,4.4705,4.669,4.6791,4.5894,4.4984,4.3708,4.2087,3.9875,0.0,0.0,0.0,0.0,4.2345,4.4511,4.537,4.5955,4.696,4.7608,4.7358,4.4975,4.3922,4.2512,0.0,3.8829,3.7137,3.2066,0.0,0.0,0.0,0.0,3.5685,3.8235,4.0286,4.1717,4.2215,4.349,4.4193,4.388,4.4748,4.4997,4.4398,4.3911,4.3011,4.1603,3.9797,3.7513,3.4648,0.0,0.0,0.0,0.0,0.0,0.0,0.0,0.0,0.0,0.0,0.0,0.0,0.0,0.0,0.0,0.0,0.0,0.0,0.0,0.0,0.0,0.0,0.0,0.0,0.0,0.0,0.0,0.0,0.0,3.623,3.8115,0.0,0.0,0.0,0.0,3.8667,4.0254,4.2141,4.436,4.4986,4.6793,5.0032,5.0677,5.1498,5.2594,5.3181,5.3482,5.3532,5.3582,5.3934,5.4547,5.4547,5.4572,5.4597,5.4572,5.4547,5.4295,5.1373,4.9163,4.7543,4.5963,4.5338,4.5372,4.5422,4.6048,4.7,4.7649,4.7825,4.792,4.8944,4.7723,4.5574,4.3953,4.3804,0.0,0.0,4.401,4.6217,4.6813,4.7763,4.8423,4.7652,4.7903,4.7613,4.5206,4.3846,4.2315,0.0,3.8687,3.7591,3.5313,0.0,3.5015,3.5049,3.4689,3.5345,3.7916,3.9366,4.037,4.0744,4.2394,4.3106,4.2183,4.3674,4.4387,4.3776,4.4787,4.507,4.4414,4.2306,4.0324,3.8642,3.5403,0.0,0.0,0.0,0.0,0.0,0.0,0.0,0.0,0.0,0.0,0.0,0.0,0.0,0.0,0.0,0.0,0.0,0.0,0.0,0.0,0.0,0.0,0.0,0.0,0.0,0.0,0.0,0.0,3.9546,4.153,0.0,4.0301,4.0929,4.1756,4.2509,4.4769,4.6928,4.8812,4.9439,5.077,5.3005,5.2929,5.3381,5.4511,5.4687,5.5139,5.5806,5.5806,5.6143,5.6696,5.6696,5.6696,5.6696,5.6319,5.5968,5.5516,5.416,5.2829,5.1548,5.0619,5.0268,5.0268,5.0268,5.0486,5.0863,5.1038,5.1113,5.1063,5.077,4.9393,4.7643,4.6723,4.6565,4.6652,4.6465,4.6507,4.6812,4.7627,4.724,4.6506,4.6218,4.6283,4.5859,4.3817,4.3049,4.2152,4.0018,3.9787,3.9088,3.6608,3.656,3.635,3.48,3.5043,3.5977,3.7414,3.8012,3.8357,3.8482,3.9804,4.055,4.0227,4.1564,4.2789,4.3638,4.3075,4.3477,4.5108,4.2634,4.1006,4.0449,3.8241,3.5203,0.0,0.0,0.0,0.0,0.0,0.0,0.0,0.0,0.0,0.0,0.0,0.0,0.0,0.0,0.0,0.0,0.0,0.0,0.0,0.0,0.0,0.0,0.0,0.0,0.0,0.0,4.2005,4.2381,4.4568,4.5447,4.3966,4.4995,4.6075,4.6803,4.8912,5.082,5.2336,5.2729,5.3683,5.534,5.5013,5.4941,5.5115,5.5889,5.6239,5.62,5.6925,5.7524,5.7901,5.7901,5.7901,5.7876,5.7499,5.7085,5.6746,5.6394,5.5792,5.5013,5.3909,5.3482,5.3482,5.3482,5.3482,5.3482,5.3482,5.3356,5.3046,5.2327,5.1222,4.9969,4.8696,4.8304,4.8223,4.7806,4.6974,4.6424,4.7144,4.6499,4.5542,4.5033,4.5041,4.4595,4.2567,4.2136,4.1701,4.0205,4.0095,3.9631,3.7687,3.7593,3.722,3.5453,3.5898,3.6719,3.7422,3.75,3.75,3.75,3.8256,3.8719,3.8576,4.0158,4.1765,4.3226,4.2529,4.3099,4.5408,4.2928,4.1443,4.13,3.9145,3.6406,3.3022,0.0,0.0,0.0,0.0,0.0,0.0,0.0,0.0,0.0,0.0,0.0,0.0,0.0,0.0,0.0,0.0,0.0,0.0,0.0,0.0,0.0,0.0,0.0,3.8869,4.2283,4.4715,4.479,4.723,4.846,4.74,4.8786,5.0193,5.1231,5.23,5.3343,5.4384,5.4495,5.5246,5.6849,5.6862,5.6086,5.4654,5.6677,5.6639,5.4561,5.6778,5.7876,5.7876,5.7914,5.7951,5.7951,5.7926,5.7926,5.7926,5.7901,5.7901,5.7675,5.5552,5.4697,5.4697,5.4697,5.4697,5.4697,5.4697,5.4321,5.3783,5.3713,5.3302,5.2406,4.9835,4.9084,4.858,4.6188,4.5448,4.5413,4.5413,4.5733,4.5691,4.4205,4.4245,4.3993,4.1736,4.125,4.0957,4.0117,3.959,3.9121,3.8728,3.8262,3.7851,3.7422,3.7363,0.0,3.7855,3.7913,3.7913,3.7913,3.7894,3.7718,3.7344,3.9511,4.1357,4.247,4.3192,4.4148,4.5397,4.331,4.1879,4.1352,3.8165,3.5954,3.4803,0.0,0.0,0.0,0.0,0.0,0.0,0.0,0.0,0.0,0.0,0.0,0.0,0.0,0.0,0.0,0.0,0.0,0.0,0.0,0.0,0.0,3.9549,4.1957,4.1884,4.4493,4.7149,4.9213,5.0469,5.1373,5.185,5.2302,5.2208,5.1368,5.2295,5.2529,5.1624,5.1978,5.3132,5.5188,5.3694,5.3614,5.5162,5.4167,5.3595,5.3374,5.5605,5.668,5.6704,5.8337,5.9056,5.9031,5.8654,5.8504,5.8453,5.8052,5.7901,5.7851,5.7223,5.6972,5.6972,5.6972,5.6972,5.6972,5.6972,5.6344,5.5263,5.3741,5.2598,5.1405,4.9186,4.8512,4.8378,4.7686,4.6489,4.5413,4.5413,4.4446,4.3349,4.2921,4.2922,4.2863,4.2229,4.209,4.1914,4.1387,4.0918,4.0391,3.9668,3.9434,3.9199,3.875,3.8672,0.0,3.8418,3.8398,3.8398,3.8398,3.8105,3.7835,3.7718,3.7837,3.8712,4.0662,3.9538,4.044,4.4123,4.2107,4.124,4.1932,3.9874,3.8216,0.0,0.0,0.0,0.0,0.0,0.0,0.0,0.0,0.0,0.0,0.0,0.0,0.0,0.0,0.0,0.0,0.0,0.0,0.0,0.0,0.0,0.0,4.2362,4.4518,4.5379,4.7625,4.9716,5.1137,5.1768,5.2183,5.2303,5.2325,5.2021,5.1369,5.187,5.1917,5.1126,5.1599,5.2565,5.4124,5.3116,5.2832,5.3513,5.3164,5.2675,5.2079,5.4315,5.5345,5.5409,5.6695,5.7261,5.7341,5.7993,5.8168,5.7986,5.8646,5.8905,0.0,0.0,0.0,0.0,0.0,5.7901,5.7901,5.7901,5.6862,5.5331,5.4109,5.2629,5.088,4.8438,4.767,4.7428,4.6188,4.5013,4.4112,4.4112,4.328,4.244,4.2656,4.2695,4.2695,4.2695,4.2695,4.2578,4.2148,4.1855,0.0,4.0801,4.0254,3.9805,3.9531,3.9492,3.9414,3.916,3.9121,3.9121,3.9121,3.873,3.8457,3.8457,3.7957,0.0,0.0,0.0,4.002,4.3025,4.1868,0.0,0.0,0.0,0.0,0.0,0.0,0.0,0.0,3.9239,3.9581,0.0,0.0,0.0,0.0,0.0,0.0,0.0,0.0,0.0,0.0,0.0,0.0,0.0,0.0,0.0,0.0,4.4436,4.5886,4.8639,5.0634,5.1674,5.12,5.1591,5.1552,5.0602,5.0493,5.0659,5.1053,5.1098,5.122,5.1586,0.0,0.0,0.0,0.0,5.2649,5.0914,5.2606,5.2477,5.0564,5.2778,5.3826,5.3826,5.4081,5.4208,5.4335,5.6706,5.7418,5.7176,5.9455,6.0412,6.0261,5.883,5.8278,5.824,5.7987,5.7873,5.781,5.7507,0.0,0.0,5.4061,5.2587,5.0425,4.7468,4.6591,4.6061,4.3436,4.2674,4.2674,4.2674,4.2674,4.2812,4.3203,4.3262,4.3263,4.3263,4.3224,4.3027,4.2578,4.25,4.2363,4.1953,4.0898,4.0078,3.998,3.9961,3.9941,3.9902,3.9902,3.9902,3.9902,0.0,0.0,3.9277,3.9081,3.9307,4.0111,4.114,4.1948,4.2532,4.264,4.2612,4.2562,4.309,4.3564,4.3991,4.507,4.5422,4.497,4.1183,4.0799,0.0,0.0,0.0,0.0,0.0,0.0,0.0,0.0,0.0,0.0,0.0,0.0,0.0,0.0,0.0,4.3531,4.4997,4.6528,4.8697,4.9708,5.0224,5.0075,5.0471,5.0833,5.1081,5.1108,5.0759,4.9848,4.9744,4.938,4.8526,4.8558,4.9457,5.1376,4.9752,4.9549,5.0914,4.9549,4.8657,4.8256,0.0,0.0,5.159,5.3378,5.4208,5.4335,5.6706,5.7649,5.7741,6.0088,6.1014,6.0989,6.0663,6.0537,6.034,5.8426,5.7734,5.7443,5.5206,5.3829,5.2726,5.0709,4.9476,4.8292,4.6028,4.5336,0.0,4.4654,4.4489,4.4489,4.4489,4.4489,4.4509,4.4629,4.4394,4.4141,4.4141,4.3848,4.3457,4.3027,4.2949,4.2812,4.2383,4.1816,4.1191,4.0508,4.0372,4.0273,3.9941,3.9902,3.9902,3.9902,3.9824,3.9766,3.9766,3.9118,3.9575,4.1713,4.3636,4.4722,4.4844,4.5271,4.5296,4.4874,4.5372,4.5497,4.5171,4.5824,4.6778,4.7939,4.5775,4.512,0.0,0.0,0.0,0.0,0.0,0.0,0.0,0.0,0.0,0.0,0.0,3.9019,4.1015,0.0,4.228,4.4616,4.5506,4.6359,4.7683,4.7792,4.8141,4.9178,4.9494,4.9475,4.9112,4.9111,4.8936,4.853,4.8483,4.8222,4.7648,4.7773,4.8413,4.9518,4.872,4.8774,4.9907,4.8774,4.8268,4.8268,4.9387,4.9907,4.9952,5.1028,5.154,5.1717,5.5223,5.6598,5.6535,5.889,5.9854,5.9756,5.8889,5.8921,5.9155,5.6789,5.5934,5.5744,5.4361,5.2978,5.1593,5.0335,4.8826,4.7281,4.6005,4.5508,4.5312,4.5078,4.4977,4.4977,4.4977,4.4977,4.4977,4.4977,4.4863,4.4707,4.4707,4.4531,4.4238,4.3828,4.373,4.3535,4.2871,4.2578,4.2148,4.1289,4.1152,4.1016,4.0586,4.0527,4.0527,4.0527,4.0332,4.0215,4.0215,4.0318,4.1197,4.3083,4.4862,4.6124,4.6672,4.6954,4.6979,4.6702,4.7531,4.7958,4.7958,4.8535,4.9213,5.0017,4.8411,4.8082,0.0,0.0,0.0,0.0,0.0,0.0,0.0,0.0,3.7524,4.0338,4.0335,4.044,4.2483,4.2545,4.3101,4.5559,4.5637,4.5672,4.6391,4.6018,4.6352,4.8121,4.8373,4.8039,4.6988,4.6967,4.7246,4.7676,4.7695,4.7734,4.7877,4.8144,4.834,4.834,4.8718,4.8913,4.8913,4.8913,4.8913,4.8913,4.8913,4.8913,4.8913,4.8913,4.8913,4.9124,5.3327,5.5155,5.5317,5.7194,5.7995,5.779,5.5939,5.5816,5.6443,5.4541,5.3857,5.3771,5.3232,5.1891,5.0337,5.0298,4.8796,4.6992,4.666,4.6308,4.5957,4.5527,4.5348,4.5328,4.525,4.5231,4.5231,4.5231,4.5215,4.5156,4.5156,4.5035,4.4879,4.459,4.4453,4.418,4.3457,4.3262,4.291,4.2051,4.1914,4.1797,4.1465,4.1348,4.1328,4.1328,4.0898,4.0625,4.0489,4.2018,4.337,4.4326,4.6127,4.7613,4.8522,4.856,4.856,4.856,4.9565,5.0097,5.0124,5.0703,5.0857,5.0548,4.9284,4.9527,3.3319,3.2525,3.2866,3.4844,3.5284,3.6499,0.0,0.0,3.9816,4.2496,4.2454,4.2401,4.3923,4.3544,4.3618,4.5505,4.4785,4.4375,4.5615,4.5758,4.593,4.652,4.6894,4.7081,4.6914,4.7285,4.7676,4.8105,4.8144,4.8301,4.8737,4.8796,4.8835,4.8835,4.8874,4.8913,4.8913,4.8913,4.8913,4.8913,4.8913,4.8913,4.8913,4.8913,4.8913,4.9032,5.1622,5.3926,5.5833,5.605,5.6136,5.5985,5.366,5.2883,5.2955,5.271,5.262,5.2245,4.9743,4.8695,4.8409,4.81,4.7763,4.75,4.7461,4.7402,4.7285,4.6836,4.6674,4.6641,4.625,4.6152,4.6152,4.6152,4.5879,4.5605,4.5605,4.5293,4.4977,4.4918,4.4648,4.4375,4.4258,4.3906,4.334,4.244,4.2323,4.2304,4.2245,4.1953,4.1738,4.1738,4.1348,4.0937,4.0566,4.3727,4.5644,4.546,4.8772,5.078,5.0896,5.0929,5.0929,5.0929,5.1498,5.0953,4.9162,4.9709,4.9259,4.7928,4.7774,4.8479,3.6808,3.6306,3.6458,0.0,3.9119,4.036,4.2267,4.2198,4.2091,4.3333,4.2929,4.2714,4.3885,4.3559,4.3418,0.0,4.4741,4.5039,4.5605,4.5879,4.6016,4.5937,4.6523,4.7031,4.7285,4.748,4.7851,4.8581,4.864,4.8718,4.8894,4.8913,4.8913,4.8913,4.8913,4.8913,4.8913,4.8913,4.8913,4.8913,4.8913,4.8913,4.8913,4.8913,4.9656,5.0964,5.1982,5.3726,5.5726,5.4389,5.3815,5.3659,5.1281,5.0348,5.0348,5.0348,5.0348,5.0191,4.9,4.864,4.86,4.8424,4.8144,4.7949,4.7949,4.7773,4.7539,4.7363,4.7305,4.7266,4.709,4.7051,4.6973,4.6719,4.6523,4.6328,4.6094,4.5898,4.5703,4.5449,4.5254,4.5058,4.4805,4.4394,4.3984,4.3633,4.3125,4.2715,4.2421,4.2226,4.2168,4.2168,4.2012,4.1836,4.1601,4.5247,4.7462,4.7298,5.0704,5.2703,5.2703,5.156,5.0909,5.0909,5.0258,4.9484,4.8584,4.8827,4.8747,4.8376,4.7436,4.7493,3.8969,3.912,3.9594,4.0582,4.2079,4.3242,4.2896,4.2991,4.3238,4.367,4.2951,4.2525,4.3503,4.346,4.3437,4.3984,4.498,4.5766,4.584,4.6016,4.5976,4.5547,4.5937,4.6445,4.7012,4.748,4.8066,4.8855,4.8913,4.8913,4.8913,4.8913,4.8913,4.8913,4.8913,4.8913,4.8913,4.8913,4.8913,4.8913,4.8913,4.8913,4.8913,4.8913,4.9819,5.1417,5.1417,5.2366,5.3749,5.2117,5.1417,5.1281,4.9564,4.8913,4.8913,4.8913,4.8913,4.8913,4.8913,4.8913,4.8913,4.8913,4.8698,4.8379,4.8379,4.8164,4.7955,4.7793,4.7754,4.7734,4.7617,4.7578,4.75,4.7187,4.7109,4.6992,4.6562,4.6484,4.6348,4.5937,4.5805,4.5566,4.5254,4.4844,4.457,4.457,4.4023,4.3418,4.2851,4.2676,4.2518,4.2401,4.2382,4.2382,4.2382,4.6159,4.8243,4.7695,5.1609,5.3417,5.2243,5.1321,5.0537,4.9966,4.9005,4.8319,4.7838,4.8008,4.8026,4.7874,4.6734,4.6393,3.8743,3.9647,4.0647,4.1483,4.29,4.4074,4.3725,4.302,4.2695,4.3694,4.2766,4.2091,4.2973,4.342,4.3965,4.4801,4.5371,4.582,4.623,4.5937,4.5527,4.5098,4.4707,4.4805,0.0,4.7226,4.8379,4.8874,4.8913,4.8913,4.8913,4.8913,4.8913,4.8913,4.8913,4.8913,4.8913,4.8913,4.8913,4.8913,4.8913,4.8913,4.8913,4.8913,4.894,4.8986,4.8986,4.9032,4.9078,4.9032,4.8986,4.8986,4.894,4.8913,4.8913,4.8913,4.8913,4.8913,4.8913,4.8913,4.8913,4.8913,4.8894,4.8894,4.8894,4.8874,4.8776,4.8301,4.8183,4.8086,4.7695,4.7578,4.7623,4.7558,4.7558,4.7441,4.6967,4.687,4.6733,4.6367,4.5957,4.5707,4.5707,4.5293,4.4957,4.4957,4.4938,4.4648,4.3769,4.3301,4.2891,4.244,4.2382,4.2382,4.2382,4.6159,4.7657,4.5619,5.1213,5.2755,4.8636,5.0355,5.0429,4.8387,4.8841,4.8308,4.6745,4.7286,4.6701,4.5131,4.5065,4.5065,3.9443,4.0706,4.193,4.239,4.369,4.4589,4.3659,4.3647,4.3532,4.235,4.1954,4.1797,4.1816,4.2617,4.3476,4.4062,4.5234,4.6152,4.6289,4.6426,4.6035,4.4766,4.498,0.0,0.0,0.0,0.0,4.832,4.8418,4.8555,4.8894,4.8913,4.8913,4.8913,4.8913,4.8913,4.8913,4.8913,4.8913,4.8913,4.8913,4.8913,4.8913,4.8913,4.8913,4.8913,4.8913,4.8913,4.8913,4.8913,4.8913,4.8913,4.8913,4.8913,4.8913,4.8913,4.8913,4.8913,4.8913,4.8913,4.8913,4.8913,4.8913,4.8913,4.8913,4.8913,4.8874,4.8718,4.8633,4.8659,4.8503,4.8464,4.8405,4.8066,4.7988,4.7871,4.7461,4.7363,4.7226,4.6797,4.6601,4.6426,4.6133,4.5742,4.5351,4.5058,4.4977,4.4824,4.4238,4.4043,4.3789,4.332,4.3281,4.3281,4.3281,4.5807,4.7057,4.6365,4.9609,5.091,4.9493,4.9028,4.8496,4.7804,4.6841,4.6124,4.5557,4.5739,4.5721,4.5449,4.5449,4.5762,4.1034,4.2017,4.2681,4.3136,4.4134,4.4626,4.3297,4.3412,4.3349,4.1758,4.1367,4.1211,4.0801,4.1133,4.1855,4.3047,4.4316,4.543,4.6191,4.6406,4.5957,4.457,4.4746,4.4922,0.0,0.0,0.0,4.8047,4.8203,4.8398,4.8874,4.8913,4.8913,4.8913,4.8913,4.8913,4.8913,4.8913,4.8913,4.8913,4.8913,4.8913,4.8913,4.8913,4.8913,4.8913,4.8913,4.8913,4.8913,4.8913,4.8913,4.8913,4.8913,4.8913,4.8913,4.8913,4.8913,4.8913,4.8913,4.8913,4.8913,4.8913,4.8913,4.8913,4.8913,4.8913,4.8913,4.8913,4.8913,4.8913,4.8913,4.8913,4.8835,4.8516,4.8437,4.832,4.7891,4.7793,4.7676,4.7246,4.7168,4.7031,4.6601,4.6172,4.5801,4.5527,4.5445,4.5273,4.4687,4.4629,4.4512,4.4219,4.418,4.418,4.418,4.6086,4.6964,4.6209,4.8858,4.9773,4.8278,4.7888,4.736,4.6618,4.5562,4.5098,4.5254,4.5254,4.5547,4.6133,4.6133,4.6504,4.3208,4.3425,4.2949,4.3672,4.4176,4.4148,4.2704,4.2362,4.2245,4.1777,4.0996,4.0196,0.0,0.0,3.9394,4.1855,4.2812,4.3945,4.6035,4.6016,4.5449,0.0,0.0,0.0,0.0,0.0,0.0,4.7988,0.0,4.8359,4.8874,4.8913,4.8913,4.8913,4.8913,4.8913,4.8913,4.8913,4.8913,4.8913,4.8913,4.8913,4.8913,4.8913,4.8913,4.8913,4.8913,4.8913,4.8913,4.8913,4.8913,4.8913,4.8913,4.8913,4.8913,4.8913,4.8913,4.8913,4.8913,4.8913,4.8913,4.8913,4.8913,4.8913,4.8913,4.8913,4.8913,4.8913,4.8913,4.8913,4.8913,4.8913,4.8913,4.8913,4.8913,4.8796,4.832,4.8242,4.8125,4.7695,4.7598,4.7441,4.6987,4.6641,4.6367,4.6328,4.6328,4.6016,4.5176,4.5058,4.5058,4.4977,4.4977,4.4977,4.4977,4.6796,4.711,4.5104,4.8767,4.9177,4.5189,4.6942,4.7068,4.5078,4.5074,4.5332,4.5824,4.5824,4.6191,4.6928,4.6928,4.7187,4.1775,4.3082,4.3895,4.3016,4.3121,4.322,4.2189,4.2167,4.1933,4.0215,3.918,3.8128,0.0,0.0,0.0,4.0332,4.3066,0.0,4.6601,4.6953,0.0,4.5488,0.0,4.5098,4.4883,4.5156,0.0,0.0,4.7441,4.7715,4.8855,4.8913,4.8913,4.8913,4.8913,4.8913,4.8913,4.8913,4.8913,4.8913,4.8913,4.8913,4.8913,4.8913,4.8913,4.8913,4.8913,4.8913,4.8913,4.8913,4.8913,4.8913,4.8913,4.8913,4.8913,4.8913,4.8913,4.8913,4.8913,4.8913,4.8913,4.8913,4.8913,4.8913,4.8913,4.8913,4.8913,4.8913,4.8913,4.8913,4.8913,4.8913,4.8913,4.8913,4.8913,4.8874,4.8757,4.8737,4.86,4.8125,4.7793,4.7539,4.7441,4.7324,4.7148,4.6816,4.6777,4.6465,4.5625,4.5508,4.5391,4.5058,4.4977,4.4977,4.4977,4.5509,4.5551,4.5019,4.5996,4.6123,4.5019,4.5825,4.6184,4.5976,4.6245,4.666,4.7134,4.7134,4.7207,4.7422,4.7422,4.7637,4.2157,4.3192,4.3756,4.2918,4.2891,4.2754,4.1523,4.1113,4.0351,3.8008,3.668,0.0,3.4219,3.5254,3.6973,0.0,0.0,0.0,4.6635,4.7305,4.7246,0.0,4.623,0.0,4.5835,4.6074,4.668,0.0,4.7461,4.7695,4.8855,4.8913,4.8913,4.8913,4.8913,4.8913,4.8913,4.8913,4.8913,4.8913,4.8913,4.8913,4.8913,4.8913,4.8913,4.8913,0.0,4.8913,4.8913,4.8913,4.8913,4.8913,4.8913,4.8913,4.8913,4.8913,4.8913,4.8913,4.8913,4.8913,4.8913,4.8913,4.8913,4.8913,4.8913,4.8913,4.8913,4.8913,4.8913,4.8913,4.8913,4.8913,4.8913,4.8913,4.8913,4.8913,4.8913,4.8913,4.8835,4.8535,4.8144,4.7851,4.7851,4.7695,4.75,4.7246,4.7207,4.6973,4.6308,4.6055,4.5859,4.5605,4.5586,4.5586,4.5586,4.5586,4.5586,4.5586,4.5762,4.5816,4.5816,4.6289,4.6621,4.6855,4.709,4.7344,4.7578,4.7578,4.7676,4.7851,4.7851,4.8086,4.3311,4.3577,4.3262,4.3262,4.3244,4.2676,4.0859,3.9668,3.8203,3.5586,0.0,3.2754,3.2003,3.2695,3.4531,3.793,0.0,4.3574,4.6582,4.7344,4.7461,4.7084,4.7006,4.6967,4.6967,4.6967,4.7344,4.8144,4.7871,4.8053,4.8855,4.8913,4.8913,4.8913,4.8913,4.8913,4.8913,4.8913,4.8913,4.8913,4.8913,4.8913,4.8913,4.8913,4.8913,4.8913,4.8913,4.8913,4.8913,4.8913,4.8913,4.8913,4.8913,4.8913,4.8913,4.8913,4.8913,4.8913,4.8913,4.8913,4.8913,4.8913,4.8913,4.8913,4.8913,4.8913,4.8913,4.8913,4.8913,4.8913,4.8913,4.8913,4.8913,4.8913,4.8913,4.8913,4.8913,4.8913,4.8913,4.8913,4.8555,4.8301,4.8301,4.7988,4.7734,4.7676,4.7656,4.75,4.707,4.6641,4.6387,4.6387,4.6387,4.6406,4.6465,4.6465,4.6465,4.6465,4.6816,4.6967,4.6967,4.7383,4.7617,4.7656,4.7656,4.7695,4.7754,4.7812,4.8027,4.8379,4.8379,4.8613,4.3257,4.3939,4.416,4.416,4.3887,4.2969,4.0547,3.8769,0.0,0.0,3.1914,3.0605,3.0146,3.1875,3.4401,3.7539,4.0801,4.4023,4.7031,4.7539,4.7676,0.0,4.7676,0.0,0.0,0.0,0.0,0.0,4.8144,4.832,4.8874,4.8913,4.8913,4.8913,4.8913,4.8913,4.8913,4.8913,4.8913,4.8913,4.8913,4.8913,4.8913,4.8913,4.8913,4.8913,4.8913,0.0,4.8913,4.8913,4.8913,4.8913,4.8913,4.8913,4.8913,4.8913,4.8913,4.8913,4.8913,4.8913,4.8913,4.8913,4.8913,4.8913,4.8913,4.8913,4.8913,4.8913,4.8913,4.8913,4.8913,4.8913,4.8913,4.8913,4.8913,4.8913,4.8913,4.8913,4.8913,4.8913,4.8835,4.8796,4.8796,4.8737,4.8561,4.8144,4.8105,4.7949,4.7519,4.709,4.6816,4.6816,4.6816,4.6973,4.7324,4.7363,4.7363,4.7363,4.7422,4.7461,4.7461,4.7539,4.7754,4.8086,4.8105,4.8281,4.8679,4.9004,4.9238,4.925,4.925,4.9531,4.3359,4.4199,4.4668,4.4453,4.3711,4.2187,3.8965,0.0,0.0,0.0,3.1052,3.0658,3.0245,3.174,3.3799,3.6148,3.8553,4.1445,4.5371,4.5918,4.6582,4.834,4.8405,4.8288,0.0,4.8288,4.8366,4.8535,4.8535,4.8633,4.8894,4.8913,4.8913,4.8913,4.8913,4.8913,4.8913,4.8913,4.8913,4.8913,4.8913,4.8913,4.8913,4.8913,4.8913,4.8913,4.8913,4.8913,4.8913,4.8913,4.8913,4.8913,4.8913,4.8913,4.8913,4.8913,4.8913,4.8913,4.8913,4.8913,4.8913,4.8913,4.8913,4.8913,4.8913,4.8913,4.8913,4.8913,4.8913,4.8913,4.8913,4.8913,4.8913,4.8913,4.8913,4.8913,4.8913,4.8913,4.8913,4.8913,4.8913,4.8913,4.8913,4.8913,4.8835,4.8574,4.8535,4.8398,4.7969,4.7715,4.7519,4.7285,4.7266,4.7363,4.7558,4.7578,4.7578,4.7578,4.7793,4.791,4.791,4.817,4.8457,4.8887,4.8672,4.8913,4.9597,4.9531,4.9648,4.9863,4.9863,4.998,4.373,4.457,4.5058,4.4629,4.3476,4.1484,3.7928,3.6277,0.0,3.109,3.0671,3.0836,3.0728,3.1479,3.2825,3.4952,3.6276,3.8691,4.3437,4.4355,4.5566,0.0,4.8855,0.0,4.8913,4.8913,0.0,4.8913,4.8913,4.8913,4.8913,4.8913,4.8913,4.8913,4.8913,4.8913,4.8913,4.8913,4.8913,4.8913,4.8913,4.8913,4.8913,4.8913,4.8913,4.8913,4.8913,4.8913,4.8913,4.8913,4.8913,4.8913,4.8913,4.8913,4.8913,4.8913,4.8913,4.8913,4.8913,4.8913,4.8913,4.8913,4.8913,4.8913,4.8913,4.8913,4.8913,4.8913,4.8913,4.8913,4.8913,4.8913,4.8913,4.8913,4.8913,4.8913,4.8913,4.8913,4.8913,4.8913,4.8913,4.8913,4.8913,4.8913,4.8913,4.8913,4.8913,4.8776,4.8398,4.834,4.8223,4.7936,4.7773,4.7754,4.7897,4.7897,4.7897,4.7897,4.8164,4.834,4.834,4.8769,4.916,4.9465,4.918,4.9441,5.0176,4.9844,4.9883,5.0312,5.0312,5.0351,4.4551,4.5254,4.5508,4.5078,4.365,4.1719,3.9097,0.0,3.3649,3.1764,3.0394,2.982,3.0574,3.0489,3.1414,3.4746,3.5776,3.7793,4.2539,4.4219,4.5781,4.8008,0.0,0.0,4.8913,4.8913,4.8913,4.8913,4.8913,4.8913,4.8913,4.8913,4.8913,4.8913,4.8913,4.8913,4.8913,4.8913,4.8913,4.8913,4.8913,4.8913,4.8913,4.8913,4.8913,4.8913,4.8913,4.8913,0.0,4.8913,4.8913,4.8913,4.8913,4.8913,4.8913,4.8913,4.8913,4.8913,4.8913,4.8913,4.8913,4.8913,4.8913,4.8913,4.8913,4.8913,4.8913,4.8913,4.8913,4.8913,4.8913,4.8913,4.8913,4.8913,4.8913,4.8913,4.8913,4.8913,4.8913,4.8913,4.8913,4.8913,4.8913,4.8913,4.8913,4.8913,4.8913,4.8894,4.8855,4.8855,4.8835,4.8796,4.8379,4.8301,4.8757,4.8796,4.8796,4.8796,4.8815,4.8855,4.8855,4.9238,4.9492,4.9484,4.9445,4.9707,5.0176,5.0137,5.0332,5.0742,5.0742,5.0957,4.416,4.5332,4.5879,4.5195,4.3535,4.1364,3.8862,3.6435,3.4252,3.2574,3.1897,3.1721,3.2086,3.0989,3.0853,3.3271,3.2578,3.3496,3.8552,3.9883,4.1855,4.582,4.6894,0.0,0.0,0.0,4.8913,4.8913,4.8913,4.8913,4.8913,4.8913,4.8913,4.8913,4.8913,4.8913,4.8913,4.8913,4.8913,4.8913,4.8913,4.8913,4.8913,4.8913,4.8913,4.8913,4.8913,4.8913,0.0,4.8913,4.8913,4.8913,4.8913,4.8913,4.8913,4.8913,4.8913,4.8913,4.8913,4.8913,4.8913,4.8913,4.8913,4.8913,4.8913,4.8913,4.8913,4.8913,4.8913,4.8913,4.8913,4.8913,4.8913,4.8913,4.8913,4.8913,4.8913,4.8913,4.8913,4.8913,4.8913,4.8913,4.8913,4.8913,4.8913,4.8913,4.8913,4.8913,4.8913,4.8913,4.8913,4.8913,4.8757,4.8718,4.8894,4.9101,4.9258,4.9258,4.9512,4.9695,4.9695,4.957,4.9766,5.0293,4.9785,5.0,5.0937,5.0683,5.0781,5.1172,5.1172,5.1269,4.3457,4.4941,4.5872,4.5785,4.3698,4.1304,3.9887,3.732,3.4906,3.3577,3.3177,3.309,3.309,3.1403,3.0505,3.1952,3.0686,3.1094,3.5678,3.709,3.9258,4.3555,0.0,4.6035,0.0,4.8542,4.8913,4.8913,4.8913,4.8913,4.8913,4.8913,4.8913,4.8913,4.8913,4.8913,4.8913,4.8913,4.8913,4.8913,4.8913,4.8913,4.8913,4.8913,4.8913,4.8913,4.8913,4.8913,0.0,4.8913,4.8913,4.8913,4.8913,4.8913,4.8913,4.8913,4.8913,4.8913,4.8913,4.8913,4.8913,4.8913,4.8913,4.8913,4.8913,4.8913,4.8913,4.8913,4.8913,4.8913,4.8913,4.8913,4.8913,4.8913,4.8913,4.8913,4.8913,4.8913,4.8913,4.8913,4.8913,4.8913,4.8913,4.8913,4.8913,4.8913,4.8913,4.8913,4.8913,4.8913,4.8913,4.8913,4.8913,4.8913,4.8913,4.9141,4.9336,4.9336,4.9746,4.998,4.998,4.9922,5.0195,5.0801,5.0215,5.0362,5.1377,5.1016,5.1016,5.1377,5.1377,5.1377,4.2617,4.4043,4.541,4.7051,4.4405,4.1735,4.2871,3.9179,3.5337,3.4785,3.3847,3.309,3.309,3.1403,3.0283,3.1165,3.1072,3.1934,3.498,3.7262,3.9375,0.0,4.2598,4.383,4.559,4.7662,4.8913,4.8913,4.8913,0.0,4.8913,4.8913,4.8913,4.8913,4.8913,4.8913,4.8913,4.8913,4.8913,4.8913,4.8913,4.8913,4.8913,4.8913,4.8913,4.8913,4.8913,4.8913,0.0,4.8913,4.8913,4.8913,4.8913,4.8913,4.8913,4.8913,4.8913,4.8913,4.8913,4.8913,4.8913,4.8913,4.8913,4.8913,4.8913,4.8913,4.8913,4.8913,4.8913,4.8913,4.8913,4.8913,4.8913,4.8913,4.8913,4.8913,4.8913,4.8913,4.8913,4.8913,4.8913,4.8913,4.8913,4.8913,4.8913,4.8913,4.8913,4.8913,4.8913,4.8913,4.8913,4.8913,4.8913,4.8913,4.8913,4.8913,4.8913,4.8913,4.9277,4.9484,4.9484,5.0351,5.0801,5.0801,5.0801,5.0996,5.1377,5.1016,5.1016,5.1377,5.1377,5.1377,3.875,4.105,4.2909,4.2538,4.1594,4.0541,3.9923,3.7575,3.5243,3.4336,3.3571,3.309,3.309,3.1187,3.0373,3.2689,3.1581,3.1465,3.4492,3.6777,3.8926,4.1113,4.4453,4.6914,0.0,0.0,4.8913,4.8913,4.8913,4.8913,4.8913,4.8913,4.8913,4.8913,4.8913,4.8913,4.8913,4.8913,4.8913,4.8913,4.8913,4.8913,4.8913,4.8913,4.8913,4.8913,4.8913,4.8913,4.8913,4.8913,4.8913,4.8913,4.8913,4.8913,4.8913,4.8913,4.8913,4.8913,4.8913,4.8913,4.8913,4.8913,4.8913,4.8913,4.8913,4.8913,4.8913,4.8913,4.8913,4.8913,4.8913,4.8913,4.8913,4.8913,4.8913,4.8913,4.8913,4.8913,4.8913,4.8913,4.8913,4.8913,4.8913,4.8913,4.8913,4.8913,4.8913,4.8913,4.8913,4.8913,4.8913,4.8913,4.8913,4.8913,4.8913,4.9461,4.9813,4.9813,5.043,5.0792,5.0792,5.082,5.0937,5.1182,5.0957,5.1016,5.1377,5.126,5.1308,5.1377,5.1377,5.1377,3.7452,4.0007,4.1947,4.1881,4.102,4.0038,3.9513,3.737,3.5066,3.3535,3.2764,3.2239,3.1777,3.0194,2.9613,3.1646,3.0847,3.0898,3.3594,3.584,3.8242,4.1074,4.4726,0.0,0.0,4.8522,4.8913,4.8913,4.8913,4.8913,4.8913,4.8913,4.8913,4.8913,4.8913,4.8913,4.8913,4.8913,4.8913,4.8913,4.8913,4.8913,4.8913,4.8913,4.8913,4.8913,4.8913,4.8913,0.0,4.8913,4.8913,4.8913,4.8913,4.8913,4.8913,4.8913,4.8913,4.8913,4.8913,4.8913,4.8913,4.8913,4.8913,4.8913,4.8913,4.9031,4.9101,4.9101,4.9219,4.9402,4.9402,4.9285,4.9101,4.9101,4.9101,4.9101,4.9101,4.9285,4.9402,4.9402,4.9402,4.9402,4.9402,4.9402,4.9402,4.9402,4.9402,4.9402,4.9402,4.9402,4.9402,4.9402,4.9402,4.9402,4.9402,4.9707,5.0,5.0176,5.082,5.1191,5.1191,5.1094,5.1172,5.1377,5.1172,5.1172,5.1377,5.1377,5.1377,5.1397,5.1601,5.1582,0.0,4.0238,4.1703,4.3578,4.1828,3.985,4.0647,3.8015,0.0,3.2608,3.1736,3.0979,2.9829,2.8929,2.8484,2.9007,2.9467,3.0517,3.2637,3.4941,3.7851,4.1699,4.3984,4.5586,4.6406,4.7975,4.8913,4.8913,4.8913,4.8913,4.8913,4.8913,4.8913,4.8913,4.8913,4.8913,4.8913,4.8913,4.8913,4.8913,4.8913,4.8913,4.8913,4.8913,4.8913,0.0,4.8913,4.8913,4.8913,4.8913,4.8913,4.8913,4.8913,4.8913,4.8913,4.8913,4.8913,4.8913,4.8913,4.8913,4.8913,4.8913,4.8913,4.8913,4.8933,4.9199,4.9484,4.9484,4.9844,5.0176,5.0176,4.9883,4.9523,4.9523,4.9523,4.9523,4.9523,4.9902,5.0176,5.0176,5.0176,5.0176,5.0176,5.0176,5.0176,5.0176,5.0176,5.0176,5.0176,5.0176,5.0176,5.0176,5.0176,5.0195,5.0215,4.9844,4.9785,5.0195,5.0625,5.0859,5.0859,5.1182,5.1377,5.1377,5.1416,5.1436,5.1436,5.1455,5.1475,5.1475,5.1933,5.1914,3.5454,0.0,3.6928,3.675,3.6949,3.7048,0.0,3.5556,3.451,3.3143,3.2754,3.2462,3.1877,3.0574,3.0057,3.1529,3.1661,3.2218,3.4004,3.7832,4.1758,4.527,4.6758,4.7676,4.8249,4.8659,4.8913,4.8913,4.8913,4.8913,4.8913,4.8913,4.8913,4.8913,4.8913,4.8913,4.8913,4.8913,4.8913,4.8913,4.8913,4.8913,4.8913,4.8913,4.8913,4.8913,4.8913,4.8913,4.8913,4.8913,4.8913,4.8913,4.8913,4.8913,4.8913,4.8913,4.8913,4.8913,4.8913,4.8913,4.8913,4.8913,4.8913,4.8972,4.9258,4.9453,4.9484,4.9484,4.9844,5.0176,5.0176,5.0098,5.0019,5.0019,5.0019,5.0019,5.0019,5.0098,5.0176,5.0176,5.0176,5.0176,5.0176,5.0176,5.0176,5.0176,5.0176,5.0176,5.0176,5.0176,5.0176,5.0176,5.0176,5.0312,5.0625,5.0566,5.0547,5.0644,5.1055,5.1289,5.1289,5.1338,5.1377,5.1377,5.1758,5.1933,5.1933,5.2246,5.2402,5.2422,5.2519,5.25,3.3398,3.4902,3.623,3.5989,3.638,3.6557,3.568,3.4901,3.3942,3.252,0.0,3.1886,3.0736,2.9945,2.9771,3.077,3.1325,3.2902,3.6562,4.0312,4.3808,4.6875,4.7812,4.8379,4.8855,4.8913,4.8913,4.8913,4.8913,4.8913,4.8913,4.8913,4.8913,4.8913,4.8913,4.8913,4.8913,4.8913,4.8913,4.8913,4.8913,4.8913,4.8913,4.8913,4.8913,4.8913,4.9128,4.916,4.916,4.916,4.916,4.9141,4.8991,4.8913,4.8913,4.8913,4.8913,4.8913,4.8913,4.8913,4.8933,4.9101,4.916,4.9238,4.9687,4.9961,5.0117,5.0117,5.043,5.0762,5.0762,5.0605,5.0469,5.0469,5.0469,5.0469,5.0469,5.0625,5.0762,5.0762,5.0762,5.0762,5.0762,5.0762,5.0762,5.0762,5.0762,5.0762,5.0762,5.0762,5.0762,5.0762,5.0762,5.084,5.1074,5.1094,5.1094,5.1094,5.126,5.1377,5.1377,5.1621,5.1816,5.2012,5.2246,5.2363,5.2383,5.2598,5.2715,5.2715,5.291,5.2891,3.224,3.465,3.6985,3.7186,3.7086,3.6784,3.6157,3.4926,3.3416,0.0,0.0,0.0,0.0,2.8881,0.0,0.0,3.0742,3.3789,3.957,4.2363,4.4766,4.7363,4.8047,4.8457,4.8874,4.8913,4.8913,4.8913,4.8913,4.8913,4.8913,4.8913,4.8913,4.8913,4.8913,4.8913,4.8913,4.8913,4.8913,4.8913,4.8913,4.8913,4.8913,4.8913,4.8933,4.9031,0.0,0.0,4.9629,4.9629,4.9629,4.959,4.9141,4.9011,4.8991,4.8933,4.8913,4.8913,4.8913,4.8952,4.907,4.9414,4.9523,4.9707,5.0137,5.0527,5.082,5.0879,5.1152,5.1377,5.1377,5.1172,5.0898,5.0898,5.0898,5.0898,5.0898,5.1172,5.1377,5.1377,5.1377,5.1377,5.1377,5.1377,5.1377,5.1377,5.1377,5.1377,5.1377,5.1377,5.1377,5.1377,5.1377,5.1416,5.1475,5.1523,5.1514,5.1572,5.1514,5.1514,5.1621,5.1992,5.2344,5.2695,5.2773,5.2812,5.2812,5.2871,5.291,5.293,5.3281,5.3262,3.3119,3.4678,3.5456,3.4173,3.4803,3.5506,3.4525,3.4073,3.3516,3.223,0.0,3.139,3.0066,3.0448,3.1148,0.0,3.4016,3.7418,4.1993,4.3596,4.5257,4.7812,4.8496,4.8835,4.8894,4.8913,4.8913,4.8913,4.8913,4.8913,4.8913,4.8913,4.8913,4.8913,4.8913,4.8913,4.8913,4.8913,4.8913,4.8913,4.8913,4.8913,4.8913,4.8913,4.9109,4.9433,0.0,4.9746,5.0078,5.0078,5.0078,5.0039,4.959,4.9433,4.9375,4.905,4.8913,4.8913,4.8913,4.9101,4.9433,4.9465,4.9785,5.0156,5.0586,5.0762,5.0879,5.1182,5.1338,5.1377,5.1377,5.1338,5.128,5.128,5.128,5.128,5.128,5.1338,5.1377,5.1377,5.1377,5.1377,5.1377,5.1377,5.1377,5.1377,5.1377,5.1377,5.1377,5.1377,5.1377,5.1377,5.1377,5.1582,5.1953,5.1973,5.2129,5.248,5.2187,5.2148,5.25,5.2578,5.2637,5.2715,5.3066,5.3312,5.3312,5.3633,5.3777,5.3777,5.3887,5.3887,3.1763,3.2819,3.346,3.3131,3.4605,3.572,3.4119,3.3288,3.2721,0.0,0.0,3.1706,3.0937,3.1885,3.3409,3.5349,3.7614,4.0273,4.3652,4.4863,4.6191,4.8301,4.8776,4.8913,4.8913,4.8913,4.8913,4.8913,4.8913,4.8913,4.8913,4.8913,4.8913,4.8913,4.8913,4.8913,4.8913,4.8913,4.8913,4.8913,4.8913,4.8913,4.8913,4.8913,4.9101,4.9484,0.0,5.0117,5.0508,5.0508,5.0508,5.0449,4.9785,4.9484,4.9473,4.907,4.8913,4.8933,4.9141,4.9355,4.9562,5.0058,5.0351,5.0586,5.1016,5.1133,5.1143,5.1319,5.1377,5.1377,5.1377,5.1377,5.1377,5.1377,5.1377,5.1377,5.1377,5.1377,5.1377,5.1377,5.1377,5.1377,5.1377,5.1377,5.1377,5.1377,5.1377,5.1377,5.1377,5.1377,5.1377,5.1377,5.1641,5.1855,5.207,5.2285,5.25,5.2695,5.2519,5.2617,5.3047,5.3066,5.3183,5.3418,5.3613,5.373,5.373,5.3926,5.3972,5.3972,5.3972,5.3972,3.129,3.1766,3.2109,3.2807,0.0,3.5602,3.4567,3.344,0.0,0.0,0.0,0.0,3.1952,3.3461,3.5719,3.858,4.0526,4.248,4.498,4.5976,4.7051,4.8718,4.8913,4.8913,4.8913,4.8913,4.8913,4.8913,4.8913,4.8913,4.8913,4.8913,4.8913,4.8913,4.8913,4.8913,4.8913,4.8913,4.8913,4.8913,4.8913,4.8913,4.8913,4.8913,4.916,4.9707,5.0039,5.0469,5.0957,5.0957,5.0898,5.0723,4.998,4.9551,4.9336,4.9031,4.8972,4.9062,4.9414,4.9621,4.9941,5.0586,5.0879,5.1016,5.128,5.1377,5.1377,5.1377,5.1377,5.1377,5.1377,5.1377,5.1377,5.1377,5.1377,5.1377,5.1377,5.1377,5.1377,5.1377,5.1377,5.1377,5.1377,5.1377,5.1377,5.1377,5.1377,5.1416,5.1582,5.1582,5.1621,5.167,5.2031,5.2266,5.2432,5.2773,5.3027,5.3027,5.3027,5.3164,5.3496,5.3516,5.3672,5.3972,5.3972,5.3972,5.3972,5.3972,5.3972,5.3972,5.3972,5.4082,3.3825,3.3273,3.2229,3.2864,3.3221,3.3978,3.6009,3.5467,0.0,3.5617,0.0,0.0,0.0,3.5348,3.7782,4.0,4.1816,4.3711,4.5898,4.6601,4.7383,4.8737,4.8913,4.8913,4.8913,4.8913,4.8913,4.8913,4.8913,4.8913,4.8913,4.8913,4.8913,4.8913,4.8913,4.8913,4.8913,4.8913,4.8913,4.8913,4.8913,4.8913,4.8913,4.8913,4.9363,5.0137,5.0176,5.0644,5.1338,5.1338,5.1152,5.0762,5.0312,4.9676,4.8952,4.8913,4.9121,4.9492,4.9465,5.0058,5.0723,5.0781,5.1074,5.1338,5.1377,5.1377,5.1377,5.1377,5.1377,5.1377,5.1377,5.1377,5.1377,5.1377,5.1377,5.1377,5.1377,5.1377,5.1377,5.1377,5.1377,5.1377,5.1377,5.1377,5.1377,5.1377,5.1377,5.1582,5.1973,5.2031,5.2187,5.2578,5.2637,5.2832,5.3292,5.3672,5.3926,5.3926,5.3926,5.3894,5.3984,5.3984,5.3953,5.3972,5.3972,5.3972,5.3972,5.3972,5.3972,5.3972,5.3972,5.4238,3.1605,3.1312,3.1081,3.143,3.2057,0.0,0.0,3.4483,3.5041,3.6242,3.6157,0.0,0.0,3.7519,3.9531,4.1367,4.3379,4.5297,4.6875,4.7461,4.8008,4.8815,4.8913,4.8913,4.8913,4.8913,4.8913,4.8913,4.8913,4.8913,4.8913,4.8913,4.8913,4.8913,4.8913,4.8913,4.8913,4.8913,4.8913,4.8913,4.8913,4.8913,4.8913,4.8913,4.9382,5.0176,5.0176,5.0508,5.1035,5.1035,5.0801,5.0371,4.9941,4.9394,4.8913,4.8913,4.9141,4.9523,4.9844,5.0312,5.0859,5.1113,5.1308,5.1377,5.1377,5.1377,5.1377,5.1377,5.1377,5.1377,5.1377,5.1377,5.1377,5.1377,5.1377,5.1377,5.1377,5.1377,5.1377,5.1377,5.166,5.1758,5.1436,5.166,5.1836,5.1836,5.1836,5.1992,5.2422,5.2461,5.2539,5.2695,5.2949,5.3301,5.373,5.3926,5.3972,5.3972,5.3972,5.3972,5.3972,5.3972,5.3972,5.3972,5.3972,5.3972,5.3972,5.3972,5.3972,5.3992,5.4316,5.4531,3.0462,2.9875,2.9716,3.0245,0.0,0.0,3.3711,3.4902,3.625,3.8105,3.8164,3.7891,3.7891,0.0,0.0,4.2128,4.4258,4.6113,4.7402,4.7949,4.8359,4.8855,4.8913,4.8913,4.8913,4.8913,4.8913,4.8913,4.8913,4.8913,4.8913,4.8913,4.8913,4.8913,4.8913,4.8913,4.8913,4.8913,4.8913,4.8913,4.8913,4.8913,4.8913,4.8913,4.9304,4.998,5.0117,5.041,5.082,5.0957,5.0683,5.0117,4.9551,4.9121,4.8913,4.8913,4.9238,4.9785,5.0078,5.0547,5.1055,5.1299,5.1377,5.1377,5.1377,5.1377,5.1377,5.1377,5.1377,5.1377,5.1377,5.1377,5.1377,5.1377,5.1377,5.1377,5.1377,5.1377,5.1416,5.1601,5.1875,5.2031,5.1855,5.209,5.2285,5.2285,5.2285,5.2441,5.2851,5.291,5.2969,5.3105,5.3398,5.3691,5.4004,5.3972,5.3972,5.3972,5.3972,5.3972,5.3972,5.3972,5.3972,5.3972,5.3972,5.3972,5.3972,5.3972,5.3972,5.3992,5.4473,5.4746,3.1305,2.9545,2.8316,2.9585,0.0,0.0,3.5952,3.7344,3.8772,4.1777,4.1387,4.0273,3.9394,3.9941,0.0,4.2187,4.4258,4.6133,4.7402,4.7949,4.8379,4.8855,4.8913,4.8913,4.8913,4.8913,4.8913,4.8913,4.8913,4.8913,4.8913,4.8913,4.8913,4.8913,4.8913,4.8913,4.8913,4.8913,4.8913,4.8913,4.8913,4.8913,4.8913,4.8913,4.9101,4.9551,5.0,5.041,5.084,5.1201,5.0918,5.0078,4.9246,4.8913,4.8913,4.8913,4.9461,5.0176,5.0176,5.0723,5.1377,5.1377,5.1377,5.1377,5.1377,5.1377,5.1377,5.1377,5.1377,5.1377,5.1377,5.1377,5.1377,5.1377,5.1377,5.1377,5.1377,5.1377,5.1562,5.1992,5.209,5.2226,5.2637,5.2715,5.2715,5.2715,5.2715,5.2871,5.3371,5.341,5.3535,5.3984,5.3972,5.3972,5.3972,5.3972,5.3972,5.3972,5.3972,5.3972,5.3972,5.3972,5.3972,5.3972,5.3972,5.3972,5.3972,5.3972,5.3972,5.3992,5.4492,5.4922,3.0208,2.9789,3.0116,3.0112,3.2411,3.5351,0.0,3.9121,0.0,0.0,4.3027,4.2051,4.1191,4.1738,0.0,4.2832,4.4961,4.6797,4.748,4.8249,4.8757,4.8894,4.8913,4.8913,4.8913,4.8913,4.8913,4.8913,4.8913,4.8913,4.8913,4.8913,4.8913,4.8913,4.8913,4.8913,4.8913,4.8913,4.8913,4.8913,4.8913,4.8913,4.8913,4.8913,4.9101,4.9551,5.0,5.0254,5.0371,5.0508,5.0215,4.9687,4.9433,4.9141,4.8913,4.8913,4.9461,5.0176,5.0176,5.0723,5.1377,5.1377,5.1377,5.1377,5.1377,5.1377,5.1377,5.1377,5.1377,5.1377,5.1377,5.1377,5.1377,5.1377,5.1377,5.1377,5.1377,5.1377,5.1562,5.1992,5.2324,5.2558,5.2695,5.2969,5.3164,5.3164,5.3164,5.332,5.3769,5.3828,5.3887,5.4023,5.3972,5.3972,5.3972,5.3972,5.3972,5.3972,5.3972,5.3972,5.3972,5.3972,5.3972,5.3972,5.3972,5.3972,5.3972,5.3972,5.418,5.4492,5.4922,5.5351,3.0136,3.0325,3.1271,3.1643,3.4141,3.7305,4.0312,0.0,0.0,0.0,4.4082,4.3379,4.2676,4.2969,0.0,4.3574,4.5469,4.709,4.7519,4.8366,4.8913,4.8913,4.8913,4.8913,4.8913,4.8913,4.8913,4.8913,4.8913,4.8913,4.8913,4.8913,4.8913,4.8913,4.8913,4.8913,4.8913,4.8913,4.8913,4.8913,4.8913,4.8913,4.8913,4.8913,4.905,4.9297,4.9922,5.0371,5.0664,5.0488,5.0176,4.9766,4.959,4.9258,4.8913,4.8913,4.9316,4.9941,5.0117,5.0625,5.1211,5.1319,5.1377,5.1377,5.1377,5.1377,5.1377,5.1377,5.1377,5.1377,5.1377,5.1377,5.1377,5.1377,5.1377,5.1377,5.1377,5.1562,5.1816,5.2246,5.2676,5.3027,5.3203,5.3457,5.3633,5.3633,5.3633,5.373,5.3953,5.3972,5.3972,5.3972,5.3972,5.3972,5.3972,5.3972,5.3972,5.3972,5.3972,5.3972,5.3972,5.3972,5.3972,5.3972,5.3972,5.3972,5.3972,5.3972,5.4258,5.4687,5.5117,5.5527,3.0643,3.1059,3.2074,3.388,3.5938,3.8517,4.2527,4.362,4.4103,4.4931,0.0,4.4394,4.3965,4.3701,4.3671,4.4097,4.5319,4.6363,4.6812,4.7831,4.8512,4.8512,4.8736,4.8913,4.8913,4.8913,4.8913,4.8913,4.8913,4.8913,4.8913,4.8913,4.8913,4.8913,4.8913,4.8913,4.8913,4.8913,4.8913,4.8913,4.8913,4.8913,4.8913,4.8913,4.8952,4.907,4.9863,5.0683,5.1358,5.1016,5.0586,5.0137,4.9746,4.9297,4.8913,4.8913,4.916,4.9601,5.0039,5.0488,5.0918,5.126,5.1377,5.1377,5.1377,5.1377,5.1377,5.1377,5.1377,5.1377,5.1377,5.1377,5.1377,5.1377,5.1377,5.1377,5.1377,5.1777,5.2207,5.2637,5.3066,5.3496,5.3945,5.3972,5.3972,5.3972,5.3972,5.3972,5.3972,5.3972,5.3972,5.3972,5.3972,5.3972,5.3972,5.3972,5.3972,5.3972,5.3972,5.3972,5.3972,5.3972,5.3972,5.3972,5.3972,5.3972,5.3972,5.4011,5.4316,5.4746,5.5176,5.5586,3.0066,3.1162,3.3386,3.5599,3.7557,3.9372,4.097,4.0445,4.0825,4.5116,4.5703,4.5371,4.5273,4.3674,4.2399,4.2491,4.178,4.1212,4.1298,4.3733,4.5529,4.5529,4.7534,4.8913,4.8913,4.8913,4.8913,4.8913,4.8913,4.8913,4.8913,4.8913,4.8913,4.8913,4.8913,4.8913,4.8913,4.8913,4.8913,4.8913,4.8913,4.8913,4.8913,4.8913,4.9285,4.9969,5.0449,5.0957,5.1377,5.128,5.0859,5.0176,5.0078,4.9597,4.8913,4.8913,4.9402,5.0058,5.0137,5.0664,5.1308,5.1358,5.1377,5.1377,5.1377,5.1377,5.1377,5.1377,5.1377,5.1377,5.1377,5.1377,5.1377,5.1377,5.1377,5.1377,5.1377,5.1777,5.2207,5.2637,5.3066,5.3496,5.3945,5.3972,5.3972,5.3972,5.3972,5.3972,5.3972,5.3972,5.3972,5.3972,5.3972,5.3972,5.3972,5.3972,5.3972,5.3972,5.3972,5.3972,5.3972,5.3972,5.3972,5.3972,5.3972,5.3972,5.3972,5.4375,5.4765,5.5176,5.5605,5.6035,3.0423,3.2261,3.5031,3.8344,3.9467,4.0337,4.2281,4.135,4.0938,4.3918,4.4348,4.4567,4.574,4.4917,4.3695,4.2466,4.1767,4.0949,3.9798,4.2278,4.433,4.4575,4.6963,4.8679,4.8894,4.8913,4.8913,4.8913,4.8913,4.8913,4.8913,4.8913,4.8913,4.8913,4.8913,4.8913,4.8913,4.8913,4.8913,4.8913,4.8913,4.8913,4.8913,4.8913,4.9219,4.9883,5.0098,5.043,5.084,5.084,5.0449,4.9863,4.9863,4.9453,4.8933,4.9101,4.9473,4.9922,5.0332,5.0762,5.1172,5.1319,5.1377,5.1377,5.1377,5.1377,5.1377,5.1377,5.1377,5.1377,5.1377,5.1377,5.1377,5.1377,5.1377,5.1436,5.1699,5.209,5.25,5.293,5.3379,5.375,5.3933,5.3972,5.3972,5.3972,5.3972,5.3972,5.3972,5.3972,5.3972,5.3972,5.3972,5.3972,5.3972,5.3972,5.4121,5.4336,5.4336,5.4433,5.4629,5.4648,5.4551,5.4336,5.4141,5.4238,5.4648,5.4668,5.5,5.5605,5.5787,5.6172,3.041,3.2998,3.6115,3.9833,3.9992,4.0022,4.3082,4.1915,4.0562,4.1745,4.1995,4.2729,4.5197,4.5329,4.4517,4.2863,4.2216,4.1366,3.9699,4.1701,4.358,4.4311,4.6652,4.834,4.8757,4.8796,4.8796,4.8796,4.8796,4.8796,4.8796,4.8718,4.8718,4.8796,4.8796,4.8796,4.8796,4.8874,4.8913,4.8913,4.8913,4.8913,4.8913,4.8913,4.9101,4.9484,4.9609,4.9844,5.0243,5.0254,5.0039,4.9648,4.9726,4.9473,4.9167,4.9492,4.964,4.9844,5.0566,5.0859,5.0976,5.126,5.1377,5.1377,5.1377,5.1377,5.1377,5.1377,5.1377,5.1377,5.1377,5.1377,5.1397,5.1475,5.1543,5.1641,5.2012,5.248,5.293,5.3331,5.373,5.3972,5.3972,5.3972,5.3972,5.3972,5.3972,5.3972,5.3972,5.3972,5.3972,5.3972,5.3972,5.3972,5.3972,5.405,5.4297,5.4668,5.4746,5.4941,5.5293,5.5312,5.5176,5.4902,5.4394,5.4492,5.5195,5.4922,5.5176,5.5885,5.5963,5.625,2.8094,3.1364,3.4946,3.6204,3.5767,3.5698,3.8241,3.5867,3.4283,3.8611,3.9477,4.022,4.2621,4.1394,4.0537,4.2309,3.9101,3.6992,3.8831,4.0054,4.1457,4.3279,4.6246,4.8223,4.8281,4.8301,4.8301,4.8301,4.8301,4.8301,4.8301,4.7949,4.791,4.8281,4.8301,4.8301,4.8301,4.8718,4.8913,4.8913,4.8913,4.8913,4.8913,4.8913,4.9101,4.9504,4.9922,5.0117,5.0215,5.0566,5.0469,5.0137,5.0488,5.0371,5.0019,5.0078,5.0332,5.0644,5.0762,5.1035,5.1319,5.1358,5.1377,5.1377,5.1377,5.1377,5.1377,5.1377,5.1377,5.1377,5.1377,5.1377,5.1475,5.1914,5.1992,5.2012,5.207,5.2765,5.3331,5.339,5.373,5.3972,5.3972,5.3972,5.3972,5.3972,5.3972,5.3972,5.3972,5.3972,5.3972,5.3972,5.3972,5.3972,5.3972,5.4375,5.4629,5.4668,5.5019,5.5254,5.5312,5.5312,5.5449,5.5709,5.5,5.4648,5.4765,5.5078,5.5469,5.5885,5.6328,5.6523,3.0347,3.2846,3.5288,3.8624,3.7708,3.6994,4.0961,3.8735,3.6791,4.0311,3.9948,3.9312,4.0401,3.9721,3.9358,4.0401,3.8794,3.7757,3.8856,4.0493,4.201,4.3171,4.5773,4.7578,4.7832,4.7851,4.7851,4.7851,4.7851,4.7851,4.7851,4.7676,4.7656,4.7851,4.7851,4.7851,4.7851,4.8281,4.8659,4.8913,4.8613,4.8659,4.8913,4.8913,4.9011,4.916,4.9402,4.959,4.9824,5.0019,5.0117,5.0195,5.0391,5.0351,5.0215,5.0449,5.0644,5.084,5.1074,5.1221,5.1377,5.1377,5.1377,5.1377,5.1377,5.1377,5.1377,5.1377,5.1377,5.1377,5.1377,5.1621,5.1836,5.2031,5.2441,5.2843,5.2843,5.3136,5.3488,5.3691,5.3887,5.3972,5.3972,5.3972,5.3972,5.3972,5.3972,5.3972,5.3972,5.3972,5.3972,5.3972,5.3972,5.4141,5.4375,5.457,5.4883,5.5351,5.5566,5.5762,5.6015,5.6015,5.5996,5.5885,5.5332,5.5273,5.5742,5.5683,5.5879,5.6308,5.6504,5.6582,3.0781,3.2504,3.3983,3.858,3.8182,3.7945,4.2828,4.1284,3.9558,4.2067,4.0672,3.8993,3.8993,3.8993,3.9221,3.9812,3.9403,3.9449,4.0672,4.1994,4.308,4.3972,4.5751,4.7051,4.7383,4.7422,4.7422,4.7422,4.7422,4.7422,4.7422,4.7305,4.7305,4.7402,4.7422,4.7422,4.7422,4.7832,4.8262,4.8737,4.8359,4.8437,4.8913,4.8913,4.8913,4.8913,4.8913,4.9043,4.9375,4.9609,4.9883,5.0195,5.041,5.0488,5.0527,5.0859,5.0957,5.1016,5.1328,5.1377,5.1377,5.1377,5.1377,5.1377,5.1377,5.1377,5.1377,5.1377,5.1377,5.1416,5.1562,5.1836,5.2129,5.2363,5.294,5.3449,5.3496,5.3535,5.3633,5.3965,5.3972,5.3972,5.3972,5.3972,5.3972,5.3972,5.3972,5.3972,5.3972,5.3972,5.3972,5.3972,5.3972,5.4199,5.4648,5.4785,5.5156,5.5845,5.5982,5.625,5.6582,5.6582,5.6426,5.6113,5.5801,5.5898,5.6426,5.6094,5.6152,5.6582,5.6582,5.6582,2.6183,2.7567,2.9077,3.177,3.3649,3.5925,4.0164,3.9693,3.9149,4.1996,4.0672,3.8993,3.8993,3.8993,3.9767,4.204,4.0492,4.0627,4.5285,4.4391,4.3991,4.5909,4.6591,4.6889,4.6909,4.6928,4.6928,4.6928,4.6928,4.6928,4.6928,4.6582,4.6543,4.6909,4.6928,4.6928,4.6928,4.7402,4.7832,4.8242,4.8223,4.8437,4.8913,4.8913,4.8913,4.8913,4.8913,4.8913,4.9011,4.9805,5.0156,5.0254,5.1055,5.1319,5.1319,5.1338,5.1358,5.1358,5.1377,5.1377,5.1377,5.1377,5.1377,5.1377,5.1377,5.1377,5.1377,5.1377,5.1377,5.1475,5.1933,5.207,5.2285,5.3155,5.3371,5.3476,5.3906,5.3953,5.3953,5.3972,5.3972,5.3972,5.3972,5.3972,5.3972,5.3972,5.3972,5.3972,5.3972,5.3972,5.3972,5.3972,5.3972,5.4199,5.4648,5.5039,5.5469,5.5845,5.6328,5.6562,5.6582,5.6582,5.6582,5.6543,5.6523,5.6348,5.5924,5.5885,5.6152,5.6582,5.6582,5.6582,2.6744,2.8521,3.0567,3.3411,3.4723,3.6373,4.0537,4.062,4.0727,4.3928,4.3903,4.2882,4.1538,4.0039,3.9812,4.2219,4.1843,4.2487,4.5851,4.5703,4.5502,4.6221,4.6426,4.6523,4.6523,4.6523,4.6523,4.6523,4.6523,4.6523,4.6523,4.6387,4.6367,4.6523,4.6523,4.666,4.6889,4.6816,4.7246,4.8203,4.793,4.8229,4.8913,4.8913,4.8913,4.8913,4.8913,4.9226,4.9773,5.0039,5.0488,5.1016,5.1308,5.1377,5.1377,5.1377,5.1377,5.1377,5.1377,5.1377,5.1377,5.1377,5.1377,5.1377,5.1377,5.1377,5.1377,5.1377,5.1641,5.1894,5.2051,5.2549,5.3047,5.3652,5.3789,5.3828,5.3953,5.3972,5.3972,5.3972,5.3972,5.3972,5.3972,5.3972,5.3926,5.3652,5.3848,5.3926,5.3633,5.3848,5.3972,5.3972,5.4277,5.4609,5.5039,5.5469,5.5898,5.6328,5.6504,5.6582,5.6582,5.6582,5.6582,5.6582,5.6582,5.6504,5.6348,5.6348,5.6426,5.6582,5.6582,5.6582,2.6255,2.7949,3.0234,3.3828,3.4701,3.5978,4.1073,4.1517,4.1723,4.4838,4.5566,4.5266,4.3883,4.246,4.1681,4.2487,4.2577,4.346,4.5939,4.6308,4.6308,4.6308,4.6308,4.6308,4.6308,4.6308,4.6308,4.6308,4.6308,4.6308,4.6308,4.6308,4.6308,4.6308,4.6308,4.6445,4.6719,4.6582,4.7012,4.7988,4.7851,4.8209,4.8913,4.8913,4.8913,4.8913,4.8913,4.9324,4.998,5.0117,5.0586,5.1182,5.1319,5.1377,5.1377,5.1377,5.1377,5.1377,5.1377,5.1377,5.1377,5.1377,5.1377,5.1377,5.1377,5.1377,5.1416,5.1601,5.1855,5.2148,5.2441,5.3047,5.3652,5.3965,5.3972,5.3972,5.3972,5.3972,5.3972,5.3972,5.3972,5.3972,5.3972,5.3972,5.3926,5.3633,5.3848,5.3926,5.3633,5.3984,5.4238,5.4238,5.4629,5.5058,5.5488,5.5781,5.6113,5.6562,5.6582,5.6582,5.6582,5.6582,5.6582,5.6582,5.6582,5.6582,5.6582,5.6582,5.6582,5.6582,5.6582,5.6582,0.0,0.0,0.0,3.204,3.2949,3.4473,4.123,4.1895,4.1738,4.4375,4.5254,4.5609,4.5688,4.5996,4.5486,4.3067,4.2711,4.3549,4.5983,4.6308,4.6308,4.6308,4.6308,4.6308,4.6308,4.6308,4.6308,4.6308,4.6308,4.6308,4.6308,4.6308,4.6308,4.6308,4.6308,4.6308,4.6308,4.6719,4.7148,4.7578,4.8008,4.8437,4.8913,4.8913,4.8913,4.8913,4.8913,4.9141,4.959,5.0,5.043,5.0859,5.1269,5.1377,5.1377,5.1377,5.1377,5.1377,5.1377,5.1377,5.1377,5.1377,5.1377,5.1377,5.1377,5.1377,5.1523,5.1953,5.209,5.2305,5.3214,5.3711,5.3972,5.3972,5.3972,5.3972,5.3972,5.3972,5.3972,5.3972,5.3972,5.3972,5.3972,5.3972,5.3972,5.3953,5.3972,5.3972,5.3972,5.4414,5.4687,5.4707,5.5078,5.5488,5.5845,5.5885,5.6133,5.6562,5.6582,5.6582,5.6582,5.6582,5.6582,5.6582,5.6582,5.6582,5.6582,5.6582,5.6582,5.6582,5.6582,5.6582,2.4004,0.0,0.0,0.0,0.0,0.0,3.4844,3.6348,3.7988,4.1523,4.2344,4.2988,4.4863,4.5293,4.5254,4.4894,4.5094,4.5524,4.6201,4.6308,4.6308,4.6308,4.6308,4.6308,4.6308,4.6308,4.6308,4.6308,4.6308,4.6308,4.6308,4.6308,4.6308,4.6308,4.6308,4.6308,4.6308,4.6719,4.7148,4.7578,4.8008,4.8437,4.8913,4.8913,4.8913,4.8913,4.9199,4.959,5.0,5.0137,5.0605,5.1269,5.1338,5.1377,5.1377,5.1377,5.1377,5.1377,5.1377,5.1377,5.1377,5.1377,5.1377,5.1377,5.1377,5.1377,5.1523,5.1953,5.2305,5.2734,5.3613,5.3945,5.3972,5.3972,5.3972,5.3972,5.3972,5.3972,5.3972,5.3972,5.3972,5.3972,5.3972,5.3972,5.3926,5.3594,5.3828,5.3972,5.3972,5.4414,5.4805,5.5098,5.5508,5.5748,5.5865,5.623,5.6445,5.6582,5.6582,5.6582,5.6582,5.6582,5.6582,5.6582,5.6582,5.6582,5.6582,5.6582,5.6582,5.6582,5.6582,5.6582,0.0,0.0,0.0,0.0,0.0,0.0,3.3516,3.4766,3.6269,4.037,4.1445,4.2266,4.4121,4.4473,4.4687,4.5312,4.5469,4.5703,4.623,4.6308,4.6308,4.6308,4.6308,4.6308,4.6308,4.6308,4.6308,4.6308,4.6308,4.6308,4.6308,4.6308,4.6308,4.6308,4.6308,4.6308,4.6308,4.6894,4.7324,4.7623,4.8183,4.8659,4.8913,4.8913,4.8913,4.8933,4.9336,4.9785,5.0195,5.0371,5.084,5.1377,5.1377,5.1377,5.1377,5.1377,5.1377,5.1377,5.1377,5.1377,5.1377,5.1377,5.1377,5.1377,5.1377,5.1377,5.1514,5.2168,5.2793,5.3379,5.3855,5.3972,5.3972,5.3972,5.3972,5.3972,5.3972,5.3972,5.3972,5.3972,5.3972,5.3972,5.3972,5.3972,5.3945,5.3672,5.4023,5.4297,5.4297,5.4824,5.5293,5.5547,5.5957,5.6211,5.6211,5.6445,5.6582,5.6582,5.6582,5.6582,5.6582,5.6582,5.6582,5.6582,5.6582,5.6582,5.6582,5.6582,5.6582,5.6582,5.6582,5.6582,0.0,0.0,0.0,0.0,0.0,0.0,3.4368,3.4955,3.541,3.9451,4.0918,4.1797,4.2812,4.3066,4.3379,4.4079,4.4199,4.4648,4.5976,4.6211,4.623,4.623,4.6269,4.6308,4.6308,4.6308,4.6308,4.6308,4.6308,4.6308,4.6308,4.6308,4.6308,4.6308,4.6308,4.6328,4.6367,4.7168,4.7598,4.7656,4.8522,4.8913,4.8913,4.8913,4.8913,4.8933,4.9394,4.9824,5.0215,5.0683,5.1094,5.1377,5.1377,5.1377,5.1377,5.1377,5.1377,5.1377,5.1377,5.1377,5.1377,5.1377,5.1377,5.1377,5.1377,5.1416,5.168,5.2539,5.3379,5.3972,5.3972,5.3972,5.3972,5.3972,5.3972,5.3972,5.3972,5.3972,5.3972,5.3972,5.3972,5.3972,5.3972,5.3972,5.3992,5.4101,5.4433,5.4707,5.4805,5.5469,5.5904,5.5943,5.6348,5.6582,5.6582,5.6582,5.6582,5.6582,5.6582,5.6582,5.6582,5.6582,5.6582,5.6582,5.6582,5.6582,5.6582,5.6582,5.6582,5.6582,5.6582,5.6582,2.685,2.7324,2.7871,0.0,0.0,0.0,2.8926,3.0312,3.2168,3.4043,3.5098,3.6289,3.8203,3.9121,3.9512,3.9299,4.125,4.3379,4.4996,4.5586,4.5844,4.5844,4.6094,4.6308,4.6308,4.6308,4.6308,4.6308,4.6308,4.6308,4.6308,4.6308,4.6308,4.6308,4.6308,4.6465,4.6753,4.7324,4.7754,4.8086,4.8659,4.8913,4.8913,4.8913,4.8913,4.8952,4.9707,5.0098,5.0234,5.0996,5.1319,5.1377,5.1377,5.1377,5.1377,5.1377,5.1377,5.1377,5.1377,5.1377,5.1377,5.1377,5.1377,5.1377,5.1377,5.168,5.2129,5.3038,5.3613,5.3972,5.3972,5.3972,5.3972,5.3972,5.3972,5.3972,5.3972,5.3972,5.3972,5.3972,5.3972,5.3972,5.3972,5.3972,5.4141,5.4512,5.4629,5.4922,5.5605,5.5787,5.6021,5.6426,5.6543,5.6582,5.6582,5.6582,5.6582,5.6582,5.6582,5.6582,5.6582,5.6582,5.6582,5.6582,5.6582,5.6582,5.6582,5.6582,5.6582,5.6582,5.6582,5.6582,2.8144,2.8281,2.8652,2.8887,0.0,0.0,0.0,2.9913,3.1113,3.3027,3.3594,3.4355,3.6309,3.6641,3.6914,3.7757,3.9746,4.1543,4.2596,4.4258,4.5351,4.5351,4.5547,4.5664,4.5664,4.5859,4.6074,4.6289,4.6308,4.6308,4.6308,4.6308,4.6308,4.6308,4.6308,4.6504,4.6889,4.7363,4.7793,4.8223,4.8698,4.8913,4.8913,4.8913,4.9031,4.9238,4.9883,5.0293,5.0547,5.1172,5.1377,5.1377,5.1377,5.1377,5.1377,5.1377,5.1377,5.1377,5.1377,5.1377,5.1377,5.1377,5.1377,5.1416,5.1699,5.2207,5.2862,5.3292,5.3691,5.3972,5.3972,5.3972,5.3972,5.3972,5.3972,5.3972,5.3972,5.3972,5.3972,5.3972,5.3972,5.3972,5.3972,5.4219,5.4433,5.4648,5.5039,5.5449,5.5826,5.6113,5.6348,5.6562,5.6582,5.6582,5.6582,5.6582,5.6582,5.6582,5.6582,5.6582,5.6582,5.6582,5.6582,5.6582,5.6582,5.6582,5.6582,5.6582,5.6582,5.6582,5.6582,5.6582,0.0,0.0,0.0,0.0,0.0,2.9746,0.0,0.0,0.0,3.2628,3.2812,3.3105,3.4512,3.4336,3.4512,3.6172,3.7891,3.9121,3.9355,4.1855,4.3806,4.4294,4.4707,4.4863,4.4785,4.4941,4.5332,4.6016,4.582,4.582,4.6172,4.625,4.6308,4.6308,4.6308,4.6543,4.7051,4.7402,4.7832,4.834,4.8737,4.8913,4.8913,4.8913,4.9101,4.9551,5.0,5.041,5.084,5.1201,5.1377,5.1377,5.1377,5.1377,5.1377,5.1377,5.1377,5.1377,5.1377,5.1377,5.1377,5.1377,5.1377,5.1475,5.2051,5.2695,5.3312,5.3488,5.375,5.3972,5.3972,5.3972,5.3972,5.3972,5.3972,5.3972,5.3972,5.3972,5.3972,5.3972,5.3972,5.4011,5.4141,5.4453,5.4746,5.4902,5.5508,5.5904,5.6055,5.6367,5.6582,5.6582,5.6582,5.6582,5.6582,5.6582,5.6582,5.6582,5.6582,5.6582,5.6582,5.6582,5.6582,5.6582,5.6582,5.6582,5.6582,5.6582,5.6582,5.6582,5.668,5.6699,0.0,0.0,0.0,0.0,3.2441,0.0,0.0,0.0,3.0469,2.9199,0.0,3.0106,3.0302,0.0,0.0,3.1094,3.3789,3.5781,3.541,3.7305,3.959,4.1894,4.3535,4.4297,4.3887,4.3203,4.3416,4.5058,4.4101,4.4163,4.5707,4.6094,4.6308,4.6308,4.6308,4.6699,4.75,4.7558,4.8033,4.8835,4.8874,4.8913,4.8913,4.8913,4.9101,4.9551,5.0,5.041,5.084,5.1201,5.1377,5.1377,5.1377,5.1377,5.1377,5.1377,5.1377,5.1377,5.1377,5.1377,5.1377,5.1377,5.1377,5.1533,5.2383,5.2695,5.2949,5.373,5.3933,5.3972,5.3972,5.3972,5.3972,5.3972,5.3972,5.3972,5.3972,5.3972,5.3972,5.3972,5.3972,5.416,5.4531,5.4648,5.4941,5.5683,5.5826,5.6074,5.6465,5.6562,5.6582,5.6582,5.6582,5.6582,5.6582,5.6582,5.6582,5.6582,5.6582,5.6582,5.6582,5.6582,5.6582,5.6582,5.6582,5.6582,5.6582,5.6582,5.6582,5.6601,5.6973,5.7148,0.0,0.0,0.0,0.0,0.0,0.0,2.9794,0.0,2.9238,0.0,0.0,0.0,0.0,0.0,0.0,0.0,3.248,3.4101,3.3652,3.5449,3.7464,3.9336,3.998,4.0703,4.1758,4.1758,4.2402,4.4121,4.3301,4.3457,4.5195,4.5703,4.6055,4.6289,4.6308,4.6719,4.7578,4.7578,4.8053,4.8913,4.8913,4.8913,4.8913,4.9121,4.9492,4.9922,5.0351,5.0781,5.1172,5.1319,5.1377,5.1377,5.1377,5.1377,5.1377,5.1377,5.1377,5.1377,5.1377,5.1377,5.1416,5.1719,5.1973,5.2285,5.2891,5.3262,5.3555,5.3875,5.3972,5.3972,5.3972,5.3972,5.3972,5.3972,5.3972,5.3972,5.3972,5.3972,5.3972,5.3972,5.3972,5.4238,5.4922,5.5039,5.5254,5.5787,5.6152,5.6387,5.6562,5.6582,5.6582,5.6582,5.6582,5.6582,5.6582,5.6582,5.6582,5.6582,5.6582,5.6582,5.6582,5.6582,5.6582,5.6582,5.6582,5.6582,5.6582,5.6582,5.6719,5.6953,5.7129,5.7344,3.4434,0.0,0.0,0.0,0.0,0.0,0.0,0.0,0.0,0.0,0.0,0.0,0.0,0.0,0.0,0.0,0.0,3.2754,3.2324,3.3418,3.4902,3.666,3.7129,3.8047,3.998,3.9922,4.0664,4.2851,4.1875,4.2167,4.4531,4.5195,4.5703,4.6113,4.623,4.6719,4.7578,4.7578,4.8053,4.8913,4.8913,4.8913,4.8913,4.9316,4.9766,5.0195,5.0625,5.1035,5.1377,5.1377,5.1377,5.1377,5.1377,5.1377,5.1377,5.1377,5.1377,5.1377,5.1377,5.1377,5.1436,5.1797,5.2109,5.2461,5.3008,5.3418,5.366,5.3914,5.3972,5.3972,5.3972,5.3972,5.3972,5.3972,5.3972,5.3972,5.3972,5.3972,5.3972,5.3972,5.4121,5.4453,5.5176,5.5312,5.5488,5.6035,5.6387,5.6582,5.6582,5.6582,5.6582,5.6582,5.6582,5.6582,5.6582,5.6582,5.6582,5.6582,5.6582,5.6582,5.6582,5.6582,5.6582,5.6582,5.6582,5.664,5.6758,5.6758,5.7031,5.7578,5.7441,5.7617,0.0,0.0,0.0,3.373,0.0,0.0,0.0,0.0,3.1172,0.0,0.0,0.0,0.0,0.0,0.0,0.0,0.0,0.0,0.0,0.0,0.0,0.0,0.0,3.7812,3.9121,3.7383,3.7598,4.1035,3.9277,3.9726,4.3535,4.457,4.5254,4.5683,4.6094,4.6719,4.7578,4.7578,4.8053,4.8913,4.8913,4.8913,4.8913,4.9316,4.9766,5.0195,5.0625,5.1035,5.1377,5.1377,5.1377,5.1377,5.1377,5.1377,5.1377,5.1377,5.1377,5.1377,5.1377,5.1377,5.1377,5.1397,5.1416,5.1572,5.248,5.2734,5.293,5.3738,5.3972,5.3972,5.3972,5.3972,5.3972,5.3972,5.3972,5.3972,5.3972,5.3972,5.3972,5.3972,5.4375,5.4805,5.5234,5.5312,5.5586,5.6445,5.6582,5.6582,5.6582,5.6582,5.6582,5.6582,5.6582,5.6582,5.6582,5.6582,5.6582,5.6582,5.6582,5.6582,5.6582,5.6582,5.6582,5.6582,5.6582,5.6777,5.7187,5.7187,5.7637,5.8476,5.8027,5.8086,0.0,0.0,3.9434,3.582,0.0,0.0,0.0,0.0,0.0,0.0,0.0,0.0,0.0,0.0,0.0,0.0,0.0,0.0,0.0,0.0,0.0,0.0,0.0,0.0,0.0,3.6035,3.7285,3.9334,3.8769,3.9805,4.3125,4.4121,4.4941,4.5688,4.6094,4.6719,4.7578,4.7578,4.8053,4.8913,4.8913,4.907,4.9316,4.9766,5.0195,5.0625,5.1035,5.126,5.1377,5.1377,5.1601,5.1855,5.1855,5.2031,5.2207,5.1592,5.1377,5.1377,5.1377,5.1377,5.1436,5.1777,5.1855,5.1973,5.2539,5.291,5.3203,5.3496,5.3808,5.3972,5.3972,5.3972,5.3972,5.3972,5.3972,5.3972,5.3972,5.3972,5.3972,5.3972,5.4394,5.4805,5.5234,5.5527,5.5918,5.6504,5.6582,5.6582,5.6582,5.6582,5.6582,5.6582,5.6582,5.6582,5.6582,5.6582,5.6582,5.6582,5.6582,5.6582,5.6582,5.6582,5.6582,5.6582,5.6582,5.6797,5.7207,5.7207,5.7676,5.848,5.8359,5.8535,4.0351,4.0859,0.0,3.8066,3.707,0.0,3.2773,0.0,0.0,0.0,0.0,0.0,0.0,0.0,0.0,0.0,0.0,0.0,0.0,2.7995,0.0,0.0,0.0,0.0,0.0,3.4277,3.5502,3.8144,3.75,3.8496,4.1973,4.3437,4.4473,4.5195,4.6074,4.6855,4.7578,4.7734,4.8164,4.8913,4.8913,4.9101,4.9504,4.998,5.041,5.082,5.125,5.1377,5.1377,5.1377,5.168,5.209,5.209,5.2344,5.2617,5.1914,5.1514,5.1377,5.1377,5.1377,5.1436,5.1758,5.1855,5.1933,5.2363,5.2793,5.3214,5.3371,5.3691,5.3972,5.3972,5.3972,5.3972,5.3972,5.3972,5.3972,5.3972,5.3972,5.3972,5.3972,5.4512,5.498,5.5254,5.5781,5.625,5.6543,5.6582,5.6582,5.6582,5.6582,5.6582,5.6582,5.6582,5.6582,5.6582,5.6582,5.6582,5.6582,5.6582,5.6582,5.6582,5.6582,5.666,5.6797,5.6797,5.709,5.7676,5.7676,5.8011,5.8769,5.8769,5.8887]},{"header":{"parameterUnit":"m.s-1","parameterCategory":1,"la1":30.6,"la2":29.2853,"lo1":-89.7004,"lo2":-87.6739,"dy":0.0162,"dx":0.0183,"nx":112,"ny":82,"refTime":"2026-04-07T00:00:00:Z","depth":0,"parameterNumber":3,"parameterNumberName":"V-component_of_WINDS"},"data":[0.0,0.0,0.0,0.0,0.0,0.0,0.0,0.0,0.0,0.0,0.0,0.0,0.0,0.0,0.0,0.0,0.0,0.0,0.0,0.0,0.0,0.0,0.0,0.0,0.0,0.0,0.0,0.0,0.0,0.0,0.0,0.0,0.0,0.0,0.0,0.0,0.0,0.0,0.0,0.0,0.0,0.0,0.0,0.0,0.0,0.0,0.0,0.0,0.0,0.0,0.0,0.0,0.0,0.0,0.0,0.0,0.0,0.0,0.0,0.0,0.0,0.0,0.0,0.0,0.0,0.0,0.0,0.0,0.0,0.0,0.0,0.0,0.0,0.0,0.0,0.0,0.0,0.0,0.0,0.0,0.0,0.0,0.0,0.0,0.0,0.0,0.0,0.0,0.0,0.0,0.0,3.3669,3.9136,4.2065,4.1408,4.1582,3.9416,3.4005,0.0,0.0,0.0,0.0,0.0,0.0,0.0,0.0,0.0,0.0,0.0,0.0,0.0,0.0,0.0,0.0,0.0,0.0,0.0,0.0,0.0,0.0,0.0,0.0,0.0,0.0,0.0,0.0,0.0,0.0,0.0,0.0,0.0,0.0,0.0,0.0,0.0,0.0,0.0,0.0,0.0,0.0,0.0,0.0,0.0,0.0,0.0,0.0,0.0,0.0,0.0,0.0,0.0,0.0,0.0,0.0,0.0,0.0,0.0,0.0,0.0,0.0,0.0,0.0,0.0,0.0,0.0,0.0,0.0,0.0,0.0,0.0,0.0,0.0,0.0,0.0,0.0,0.0,0.0,0.0,0.0,0.0,0.0,0.0,0.0,0.0,0.0,0.0,0.0,0.0,0.0,0.0,0.0,0.0,0.0,0.0,0.0,0.0,0.0,0.0,0.0,0.0,0.0,0.0,3.1961,3.9628,4.3093,4.4571,4.3919,4.2884,4.0929,3.7771,0.0,0.0,0.0,0.0,0.0,0.0,0.0,0.0,0.0,0.0,0.0,0.0,0.0,0.0,0.0,0.0,0.0,0.0,0.0,0.0,0.0,0.0,0.0,0.0,0.0,0.0,0.0,0.0,0.0,0.0,0.0,0.0,0.0,0.0,0.0,0.0,0.0,0.0,0.0,0.0,0.0,0.0,0.0,0.0,0.0,0.0,0.0,0.0,0.0,0.0,0.0,0.0,0.0,0.0,0.0,0.0,0.0,0.0,0.0,0.0,0.0,0.0,0.0,0.0,0.0,0.0,0.0,0.0,0.0,0.0,0.0,0.0,0.0,0.0,0.0,0.0,0.0,0.0,0.0,0.0,0.0,0.0,0.0,0.0,0.0,0.0,0.0,0.0,0.0,0.0,0.0,0.0,0.0,0.0,0.0,0.0,0.0,0.0,0.0,0.0,0.0,0.0,0.0,3.1964,3.6959,4.2701,4.5183,4.6175,4.5506,4.4189,4.2002,3.8601,3.5644,0.0,0.0,0.0,0.0,0.0,0.0,0.0,0.0,0.0,0.0,0.0,0.0,0.0,0.0,0.0,0.0,0.0,0.0,0.0,0.0,0.0,0.0,0.0,0.0,0.0,0.0,0.0,0.0,0.0,0.0,0.0,0.0,0.0,0.0,0.0,0.0,0.0,0.0,0.0,0.0,0.0,0.0,0.0,0.0,0.0,0.0,0.0,0.0,0.0,0.0,0.0,0.0,0.0,0.0,0.0,0.0,0.0,0.0,0.0,0.0,0.0,0.0,0.0,0.0,0.0,0.0,0.0,0.0,0.0,0.0,0.0,0.0,0.0,0.0,0.0,0.0,0.0,0.0,0.0,0.0,0.0,0.0,0.0,0.0,0.0,0.0,0.0,0.0,0.0,0.0,0.0,0.0,0.0,0.0,0.0,0.0,0.0,0.0,0.0,0.0,0.0,0.0,3.7775,4.1433,4.4887,4.6452,4.71,4.657,4.4745,4.2192,3.8841,3.5579,0.0,0.0,0.0,0.0,0.0,0.0,0.0,0.0,0.0,0.0,0.0,0.0,0.0,0.0,0.0,0.0,0.0,0.0,0.0,0.0,0.0,0.0,0.0,0.0,0.0,0.0,0.0,0.0,0.0,0.0,0.0,0.0,0.0,0.0,0.0,0.0,0.0,0.0,0.0,0.0,0.0,0.0,0.0,0.0,0.0,0.0,0.0,0.0,0.0,0.0,0.0,0.0,0.0,0.0,0.0,0.0,0.0,0.0,0.0,0.0,0.0,0.0,0.0,0.0,0.0,0.0,0.0,0.0,0.0,0.0,0.0,0.0,0.0,0.0,0.0,0.0,0.0,0.0,0.0,0.0,0.0,0.0,0.0,0.0,0.0,0.0,0.0,0.0,0.0,0.0,0.0,0.0,0.0,0.0,0.0,0.0,0.0,0.0,0.0,0.0,0.0,0.0,4.0245,4.4333,4.6824,4.7236,4.7279,4.7249,4.3748,4.0935,3.9421,3.4546,0.0,0.0,0.0,0.0,0.0,0.0,0.0,0.0,0.0,0.0,0.0,0.0,0.0,0.0,0.0,0.0,0.0,0.0,0.0,0.0,0.0,0.0,0.0,0.0,0.0,0.0,0.0,0.0,0.0,0.0,0.0,0.0,0.0,0.0,0.0,0.0,0.0,0.0,0.0,0.0,0.0,0.0,0.0,0.0,0.0,0.0,0.0,0.0,0.0,0.0,0.0,0.0,0.0,0.0,0.0,0.0,0.0,0.0,0.0,0.0,0.0,0.0,0.0,0.0,0.0,0.0,0.0,0.0,0.0,0.0,0.0,0.0,0.0,0.0,0.0,0.0,0.0,0.0,0.0,0.0,0.0,0.0,0.0,0.0,0.0,0.0,0.0,0.0,0.0,0.0,0.0,0.0,0.0,0.0,0.0,0.0,0.0,0.0,0.0,0.0,0.0,0.0,4.0939,4.4493,0.0,4.7309,4.7309,4.7309,4.5155,4.2551,3.9601,0.0,0.0,0.0,0.0,0.0,0.0,0.0,0.0,0.0,0.0,0.0,0.0,0.0,0.0,0.0,0.0,0.0,0.0,0.0,0.0,0.0,0.0,0.0,0.0,0.0,0.0,0.0,0.0,0.0,0.0,0.0,0.0,0.0,0.0,0.0,0.0,0.0,0.0,0.0,0.0,0.0,0.0,0.0,0.0,0.0,0.0,0.0,0.0,0.0,0.0,0.0,0.0,0.0,0.0,0.0,0.0,0.0,0.0,0.0,0.0,0.0,0.0,0.0,0.0,0.0,0.0,0.0,0.0,0.0,0.0,0.0,0.0,0.0,0.0,0.0,0.0,0.0,0.0,0.0,0.0,0.0,0.0,0.0,0.0,0.0,0.0,0.0,0.0,0.0,0.0,0.0,0.0,0.0,0.0,0.0,0.0,0.0,0.0,0.0,0.0,0.0,0.0,3.7974,4.2376,4.5723,0.0,4.7938,4.7848,4.7638,4.5813,4.306,3.932,0.0,0.0,0.0,0.0,0.0,0.0,0.0,0.0,0.0,0.0,0.0,0.0,0.0,0.0,0.0,0.0,0.0,0.0,0.0,0.0,0.0,0.0,0.0,0.0,0.0,0.0,0.0,0.0,0.0,0.0,0.0,0.0,0.0,0.0,0.0,0.0,0.0,0.0,0.0,0.0,0.0,0.0,0.0,0.0,0.0,0.0,0.0,0.0,0.0,0.0,0.0,0.0,0.0,0.0,0.0,0.0,0.0,0.0,0.0,0.0,0.0,0.0,0.0,0.0,0.0,0.0,0.0,0.0,0.0,0.0,0.0,0.0,0.0,0.0,0.0,0.0,0.0,0.0,0.0,0.0,0.0,0.0,0.0,0.0,0.0,0.0,0.0,0.0,0.0,0.0,0.0,0.0,0.0,0.0,0.0,0.0,0.0,0.0,0.0,0.0,0.0,0.0,3.9567,4.4934,4.8588,4.9247,4.9307,4.9037,4.8379,4.5254,4.1934,0.0,0.0,0.0,0.0,0.0,0.0,0.0,0.0,0.0,0.0,0.0,0.0,0.0,0.0,0.0,0.0,0.0,0.0,0.0,0.0,0.0,0.0,0.0,0.0,0.0,0.0,0.0,0.0,0.0,0.0,0.0,0.0,0.0,0.0,0.0,0.0,0.0,0.0,0.0,0.0,0.0,0.0,0.0,0.0,0.0,0.0,0.0,0.0,0.0,0.0,0.0,0.0,0.0,0.0,0.0,0.0,0.0,0.0,0.0,0.0,0.0,0.0,0.0,0.0,0.0,0.0,0.0,0.0,0.0,0.0,0.0,0.0,0.0,0.0,0.0,0.0,0.0,0.0,0.0,0.0,0.0,0.0,0.0,0.0,0.0,0.0,0.0,0.0,0.0,0.0,0.0,0.0,0.0,0.0,0.0,0.0,0.0,0.0,0.0,0.0,0.0,0.0,0.0,4.1211,4.6352,4.989,5.0571,5.0242,4.986,4.965,4.7048,4.3818,4.0038,0.0,0.0,0.0,0.0,0.0,0.0,0.0,0.0,0.0,0.0,0.0,0.0,0.0,0.0,0.0,0.0,0.0,0.0,0.0,0.0,0.0,0.0,0.0,0.0,0.0,0.0,0.0,0.0,0.0,0.0,0.0,0.0,0.0,0.0,0.0,0.0,0.0,0.0,0.0,0.0,0.0,0.0,0.0,0.0,0.0,0.0,0.0,0.0,0.0,0.0,0.0,0.0,0.0,0.0,0.0,0.0,0.0,0.0,0.0,0.0,0.0,0.0,0.0,0.0,0.0,0.0,0.0,0.0,0.0,0.0,0.0,0.0,0.0,0.0,0.0,0.0,0.0,0.0,0.0,0.0,0.0,0.0,0.0,0.0,0.0,0.0,0.0,0.0,0.0,0.0,0.0,0.0,0.0,0.0,0.0,0.0,0.0,0.0,0.0,0.0,0.0,0.0,4.2582,4.7497,5.0966,5.1917,5.1648,5.1176,5.0637,4.8693,4.5454,4.0696,0.0,0.0,0.0,0.0,0.0,0.0,0.0,0.0,0.0,0.0,0.0,0.0,0.0,0.0,0.0,0.0,0.0,0.0,0.0,0.0,0.0,0.0,0.0,0.0,0.0,0.0,0.0,0.0,0.0,0.0,0.0,0.0,0.0,0.0,0.0,0.0,0.0,0.0,0.0,0.0,0.0,0.0,0.0,0.0,0.0,0.0,0.0,0.0,0.0,0.0,0.0,0.0,0.0,0.0,0.0,0.0,0.0,0.0,0.0,0.0,0.0,0.0,0.0,0.0,0.0,0.0,0.0,0.0,0.0,0.0,0.0,0.0,0.0,0.0,0.0,0.0,0.0,0.0,0.0,0.0,0.0,0.0,0.0,0.0,0.0,0.0,0.0,0.0,0.0,0.0,0.0,0.0,0.0,0.0,0.0,0.0,0.0,0.0,0.0,0.0,0.0,0.0,4.3817,4.8574,5.2007,5.3348,5.3438,5.2845,5.1594,5.0182,4.6942,4.1205,0.0,0.0,0.0,0.0,0.0,0.0,0.0,0.0,0.0,0.0,0.0,0.0,0.0,0.0,0.0,0.0,0.0,0.0,0.0,0.0,0.0,0.0,0.0,0.0,0.0,0.0,0.0,0.0,0.0,0.0,0.0,0.0,0.0,0.0,0.0,0.0,0.0,0.0,0.0,0.0,0.0,0.0,0.0,0.0,0.0,0.0,0.0,0.0,0.0,0.0,0.0,0.0,0.0,0.0,0.0,0.0,0.0,0.0,0.0,0.0,3.467,0.0,0.0,0.0,0.0,0.0,0.0,0.0,0.0,0.0,0.0,0.0,0.0,0.0,0.0,0.0,0.0,0.0,0.0,0.0,0.0,0.0,0.0,0.0,0.0,0.0,0.0,0.0,0.0,0.0,0.0,0.0,0.0,0.0,0.0,0.0,0.0,0.0,0.0,0.0,0.0,0.0,4.5263,5.0368,5.4072,5.5414,5.5085,5.4431,5.3653,5.1385,4.8364,4.4496,0.0,0.0,0.0,0.0,0.0,0.0,0.0,0.0,0.0,0.0,0.0,0.0,0.0,0.0,0.0,0.0,0.0,0.0,0.0,0.0,0.0,0.0,0.0,0.0,0.0,0.0,0.0,0.0,0.0,0.0,0.0,0.0,0.0,0.0,0.0,0.0,0.0,0.0,0.0,0.0,0.0,0.0,0.0,0.0,0.0,0.0,0.0,0.0,0.0,0.0,0.0,0.0,0.0,0.0,0.0,0.0,0.0,0.0,0.0,0.0,0.0,3.7198,0.0,0.0,0.0,0.0,0.0,0.0,0.0,0.0,0.0,0.0,0.0,0.0,0.0,0.0,0.0,0.0,0.0,0.0,0.0,0.0,0.0,0.0,0.0,0.0,0.0,0.0,0.0,0.0,0.0,0.0,0.0,0.0,0.0,0.0,0.0,0.0,0.0,0.0,0.0,0.0,4.6211,5.1409,5.5179,5.6492,5.6072,5.5388,5.473,5.2516,4.974,4.6471,4.2511,0.0,0.0,0.0,0.0,0.0,0.0,0.0,0.0,0.0,0.0,0.0,0.0,0.0,0.0,0.0,0.0,0.0,0.0,0.0,0.0,0.0,0.0,0.0,0.0,0.0,0.0,0.0,0.0,0.0,0.0,0.0,0.0,0.0,0.0,0.0,0.0,0.0,0.0,0.0,0.0,0.0,0.0,0.0,0.0,0.0,0.0,0.0,0.0,0.0,0.0,0.0,0.0,0.0,4.6956,4.8003,4.8641,5.0031,5.0585,5.0174,4.5677,4.3342,4.2546,4.0711,0.0,0.0,0.0,0.0,0.0,0.0,0.0,0.0,0.0,0.0,0.0,0.0,0.0,0.0,0.0,0.0,0.0,0.0,0.0,0.0,0.0,0.0,0.0,0.0,4.5965,4.5298,0.0,0.0,0.0,0.0,0.0,0.0,0.0,0.0,0.0,0.0,0.0,0.0,4.7615,5.2543,5.6193,5.7484,5.6951,5.6222,5.5444,5.3743,5.1379,4.8177,4.5115,4.1733,0.0,0.0,0.0,0.0,0.0,0.0,0.0,0.0,0.0,0.0,0.0,0.0,0.0,0.0,0.0,0.0,0.0,0.0,0.0,0.0,0.0,0.0,0.0,0.0,0.0,0.0,0.0,0.0,0.0,0.0,0.0,0.0,3.2753,3.3459,0.0,0.0,0.0,0.0,0.0,0.0,0.0,0.0,0.0,0.0,0.0,0.0,0.0,4.4189,4.4958,4.8755,5.0828,5.1154,5.3655,5.5147,5.5773,5.5966,5.6384,5.6825,5.6121,0.0,4.8104,4.6405,0.0,0.0,0.0,0.0,0.0,0.0,0.0,0.0,0.0,0.0,0.0,0.0,0.0,0.0,0.0,0.0,0.0,0.0,0.0,0.0,0.0,0.0,4.9146,5.0627,5.1195,5.0943,0.0,4.3982,3.8956,3.6697,3.495,0.0,0.0,0.0,0.0,0.0,0.0,0.0,5.0888,5.5117,5.8178,5.9554,5.8577,5.7363,5.6162,5.5269,5.3623,5.0847,4.8686,4.6232,4.3369,3.9798,0.0,0.0,0.0,0.0,0.0,0.0,0.0,0.0,0.0,0.0,0.0,0.0,0.0,0.0,0.0,0.0,0.0,0.0,0.0,0.0,0.0,0.0,0.0,0.0,0.0,0.0,0.0,0.0,0.0,3.4187,3.6574,3.6451,3.743,3.7073,0.0,0.0,0.0,0.0,0.0,0.0,0.0,0.0,0.0,4.6661,4.8594,5.0248,5.1663,5.4231,5.5897,5.6645,5.859,6.0027,6.0984,6.0984,6.1343,6.1943,6.1583,5.9757,5.6735,5.2639,4.9385,4.6704,0.0,0.0,0.0,0.0,4.2525,4.3167,4.6148,4.6583,0.0,4.7072,0.0,0.0,0.0,0.0,0.0,0.0,0.0,0.0,0.0,0.0,5.2334,5.4037,5.4725,5.4985,5.5042,5.2261,4.827,0.0,4.1636,3.9919,3.6476,0.0,0.0,0.0,0.0,0.0,5.3661,5.7042,5.9389,6.0342,5.9006,5.7831,5.7245,5.5631,5.3982,5.2426,5.081,4.8925,4.6651,4.3808,4.0816,0.0,0.0,0.0,0.0,0.0,0.0,0.0,0.0,0.0,0.0,0.0,0.0,0.0,0.0,0.0,0.0,0.0,0.0,0.0,0.0,0.0,0.0,0.0,0.0,0.0,0.0,0.0,0.0,3.8482,4.0408,3.9738,4.1564,4.1424,0.0,0.0,0.0,0.0,0.0,0.0,4.5861,4.7282,4.9609,5.3061,5.4492,5.6102,5.7958,5.9069,6.0116,6.1104,6.2091,6.3169,6.4276,6.4276,6.4516,6.4964,6.4456,6.4006,6.3169,5.7902,5.4115,5.1454,4.9468,4.7963,4.7009,4.7859,4.8141,4.8627,5.2311,5.3004,5.2389,5.3019,5.1745,4.9278,4.577,0.0,0.0,0.0,0.0,4.734,5.0588,5.2946,5.501,5.7221,5.8205,5.881,5.9481,5.8952,5.6543,0.0,4.8925,4.7374,4.2796,0.0,0.0,0.0,0.0,5.3156,5.6619,5.9098,6.077,6.1423,5.9997,5.8847,5.8496,5.6445,5.489,5.4219,5.2798,5.1259,4.9636,4.748,4.4706,4.1246,0.0,0.0,0.0,0.0,0.0,0.0,0.0,0.0,0.0,0.0,0.0,0.0,0.0,0.0,0.0,0.0,0.0,0.0,0.0,0.0,0.0,0.0,0.0,0.0,0.0,0.0,0.0,0.0,0.0,4.313,4.5373,0.0,0.0,0.0,0.0,4.5725,4.7708,5.0,5.2575,5.3375,5.5581,5.9493,6.0328,6.1373,6.2748,6.3378,6.3737,6.3797,6.3857,6.4276,6.4934,6.4934,6.4964,6.4994,6.4964,6.4934,6.4635,6.1224,5.859,5.6534,5.4595,5.3794,5.3714,5.3774,5.4575,5.5765,5.6597,5.6806,5.6982,5.8264,5.5508,5.1682,5.1691,4.8917,0.0,0.0,5.0405,5.1895,5.5053,5.6859,5.8546,6.1267,6.2357,6.2971,6.367,6.2764,6.0784,0.0,5.6027,5.4695,5.1804,0.0,5.1487,5.1417,5.3672,5.6633,6.0093,6.1717,6.2837,6.3572,6.2483,6.1136,5.9827,5.8553,5.7521,5.6858,5.5061,5.3713,5.2989,5.0474,4.8109,4.6001,4.2192,0.0,0.0,0.0,0.0,0.0,0.0,0.0,0.0,0.0,0.0,0.0,0.0,0.0,0.0,0.0,0.0,0.0,0.0,0.0,0.0,0.0,0.0,0.0,0.0,0.0,0.0,0.0,0.0,4.713,4.9494,0.0,4.7975,4.8723,4.9763,5.0661,5.3354,5.5927,5.8171,5.8919,6.0505,6.3169,6.3079,6.3617,6.4964,6.5173,6.5712,6.658,6.658,6.6909,6.7567,6.7567,6.7567,6.7567,6.7119,6.67,6.6161,6.4545,6.2959,6.1433,6.0326,5.9907,5.9907,5.9907,6.0234,6.0683,6.0892,6.0982,6.0922,6.0505,5.8345,5.5783,5.5436,5.434,5.349,5.4887,5.648,5.8196,6.0145,6.1634,6.2921,6.3906,6.4292,6.4739,6.581,6.5661,6.522,6.4905,6.112,5.7409,5.5638,5.623,5.6784,5.6511,5.8466,6.0774,6.2965,6.3655,6.3994,6.4283,6.2781,6.1555,6.1066,5.9498,5.809,5.7063,5.7098,5.6151,5.3936,5.2884,5.1036,4.8259,4.5574,4.1953,0.0,0.0,0.0,0.0,0.0,0.0,0.0,0.0,0.0,0.0,0.0,0.0,0.0,0.0,0.0,0.0,0.0,0.0,0.0,0.0,0.0,0.0,0.0,0.0,0.0,0.0,5.0115,5.0564,5.3114,5.4162,5.2396,5.3623,5.491,5.5777,5.8291,6.0565,6.2302,6.2839,6.3977,6.5951,6.5562,6.6132,6.7759,6.7274,6.7695,6.9092,6.8597,6.8555,6.9004,6.9004,6.9004,6.8974,6.8525,6.8107,6.7627,6.7208,6.649,6.5562,6.4246,6.3737,6.3737,6.3737,6.3737,6.3737,6.3737,6.3588,6.3287,6.2361,6.1044,5.9749,5.9535,5.9451,5.9617,6.0302,6.1494,6.2738,6.3566,6.4666,6.5724,6.6451,6.6776,6.7216,6.8288,6.8509,6.8637,6.9027,6.527,6.1687,6.0605,6.1122,6.1487,6.0946,6.2178,6.3599,6.4816,6.4952,6.4952,6.4952,6.3827,6.2952,6.2719,6.0315,5.8687,5.835,5.7213,5.5851,5.4296,5.3249,5.1637,4.9329,4.6651,4.3339,3.9397,0.0,0.0,0.0,0.0,0.0,0.0,0.0,0.0,0.0,0.0,0.0,0.0,0.0,0.0,0.0,0.0,0.0,0.0,0.0,0.0,0.0,0.0,0.0,4.6271,5.0391,5.3348,5.3438,5.6286,5.7752,5.6551,5.8141,5.9817,6.119,6.2536,6.3854,6.5172,6.5233,6.6132,6.8051,6.8142,6.9184,7.1307,6.9912,6.9943,7.1428,6.9881,6.9127,6.9127,6.9095,6.9064,6.9064,6.9034,6.9034,6.9034,6.9004,6.9004,6.8734,6.6131,6.5114,6.5114,6.5114,6.5114,6.5114,6.5114,6.4665,6.4096,6.4155,6.3735,6.3362,6.4073,6.4257,6.4395,6.5128,6.5361,6.5386,6.5386,6.5924,6.6949,6.9055,6.9955,7.0575,7.1209,7.1357,7.0939,6.9485,6.8571,6.776,6.6994,6.6271,6.5561,6.4816,6.4715,0.0,6.5649,6.5751,6.5751,6.5751,6.5717,6.5412,6.4681,6.1206,5.9547,6.0723,5.5532,5.2906,5.4102,5.1672,4.9965,4.9337,4.5433,4.2801,4.1523,0.0,0.0,0.0,0.0,0.0,0.0,0.0,0.0,0.0,0.0,0.0,0.0,0.0,0.0,0.0,0.0,0.0,0.0,0.0,0.0,0.0,4.6769,5.0002,4.986,5.3025,5.6252,5.865,6.0146,6.1224,6.1792,6.2331,6.3475,6.5453,6.686,6.8458,7.0406,7.097,7.0991,7.04,7.1497,7.2044,7.2051,7.2704,7.3514,7.4397,7.2794,7.2059,7.209,7.0926,7.038,7.035,6.9901,6.9722,6.9662,6.9183,6.9004,6.8944,6.8196,6.7897,6.7897,6.7897,6.7897,6.7897,6.7897,6.7148,6.6372,6.7411,6.702,6.6316,6.7543,6.7933,6.798,6.8182,6.9004,6.9763,6.9763,7.0614,7.1613,7.2234,7.2505,7.2676,7.2866,7.2902,7.2597,7.1684,7.0872,6.9958,6.8707,6.8301,6.7895,6.7117,6.6981,0.0,6.6542,6.6508,6.6508,6.6508,6.6,6.5615,6.5412,6.3441,6.1207,5.8888,5.7528,5.5598,5.2876,5.2406,5.1499,4.9972,4.7467,4.5544,0.0,0.0,0.0,0.0,0.0,0.0,0.0,0.0,0.0,0.0,0.0,0.0,0.0,0.0,0.0,0.0,0.0,0.0,0.0,0.0,0.0,0.0,5.1848,5.553,5.6541,5.7837,5.991,6.329,6.4286,6.5456,6.7399,6.7579,6.8256,6.9818,7.0661,7.1787,7.3355,7.412,7.4206,7.3562,7.4725,7.5451,7.5545,7.5838,7.6464,7.7484,7.5885,7.5137,7.5138,7.4222,7.3787,7.3724,7.2663,7.2072,7.1767,7.0671,7.0201,0.0,0.0,0.0,0.0,0.0,6.9004,6.9004,6.9004,6.8903,6.894,6.9804,7.0,7.003,7.0891,7.1175,7.1149,7.1123,7.1688,7.2338,7.2338,7.2929,7.3601,7.3883,7.395,7.395,7.395,7.395,7.3747,7.3003,7.2496,0.0,7.0669,6.9722,6.8944,6.847,6.8402,6.8267,6.7827,6.776,6.776,6.776,6.7083,6.6609,6.6609,6.4278,0.0,0.0,0.0,5.5083,5.1503,5.1645,0.0,0.0,0.0,0.0,0.0,0.0,0.0,0.0,4.2775,4.2725,0.0,0.0,0.0,0.0,0.0,0.0,0.0,0.0,0.0,0.0,0.0,0.0,0.0,0.0,0.0,0.0,5.6939,6.124,6.4546,6.3942,6.4312,6.7408,6.8386,6.9828,7.2435,7.2701,7.3109,7.4023,7.4088,7.4525,7.5411,0.0,0.0,0.0,0.0,7.8888,8.0112,7.8917,7.9003,8.0333,7.8802,7.8043,7.8043,7.7866,7.7778,7.7689,7.6025,7.4997,7.4345,7.2688,7.1996,7.1816,7.0111,6.9453,6.9484,6.9645,6.9739,6.9741,6.9839,0.0,0.0,7.1905,7.2797,7.3886,7.4063,7.411,7.4073,7.4016,7.4007,7.4007,7.4007,7.4007,7.4153,7.483,7.4931,7.484,7.484,7.4772,7.4525,7.3747,7.3612,7.3375,7.2665,7.0838,6.9417,6.9248,6.9214,6.918,6.9113,6.9113,6.9113,6.9113,0.0,0.0,6.803,6.4562,6.2448,6.2585,5.7213,5.3032,5.0744,5.0704,5.0727,5.0667,5.1295,5.1917,5.2426,5.3713,5.4132,5.3593,4.7376,4.7037,0.0,0.0,0.0,0.0,0.0,0.0,0.0,0.0,0.0,0.0,0.0,0.0,0.0,0.0,0.0,5.6603,6.1509,6.5988,6.8904,6.9527,6.9926,7.0609,7.1333,7.2177,7.3291,7.3415,7.4462,7.6943,7.715,7.8263,8.0761,8.1015,8.0607,7.9491,8.0792,8.1055,8.0112,8.1055,8.1684,8.1922,0.0,0.0,7.9632,7.8397,7.7778,7.7689,7.6025,7.5214,7.4995,7.3381,7.2714,7.2684,7.2295,7.2146,7.231,7.3617,7.4062,7.4189,7.4948,7.5032,7.4953,7.5534,7.5554,7.5622,7.6793,7.7158,0.0,7.7149,7.7154,7.7154,7.7154,7.7154,7.7188,7.7299,7.6893,7.6454,7.6454,7.5946,7.527,7.4525,7.439,7.4153,7.3409,7.2428,7.1345,7.0161,7.0014,6.9755,6.918,6.9113,6.9113,6.9113,6.8977,6.8876,6.8876,6.6993,6.4581,6.1624,5.6867,5.3952,5.3443,5.3952,5.3982,5.3419,5.4072,5.4221,5.3832,5.461,5.5748,5.7068,5.4192,5.3416,0.0,0.0,0.0,0.0,0.0,0.0,0.0,0.0,0.0,0.0,0.0,4.6501,4.9921,0.0,5.8799,6.1834,6.6366,7.0124,7.1871,7.3947,7.5023,7.43,7.4513,7.5462,7.7276,7.7462,7.8219,8.0074,8.0194,8.0852,8.2322,8.2746,8.26,8.1805,8.2917,8.3113,8.2346,8.3113,8.3498,8.3498,8.2704,8.2346,8.2318,8.1563,8.1195,8.1082,7.8593,7.7367,7.6928,7.529,7.4576,7.4705,7.5885,7.5415,7.4285,7.5963,7.6546,7.6636,7.7098,7.7535,7.7949,7.8349,7.8518,7.8592,7.8985,7.8822,7.8483,7.8077,7.8,7.8,7.8,7.8,7.8,7.8,7.7705,7.7435,7.7435,7.713,7.6623,7.5912,7.5743,7.5405,7.4255,7.3747,7.3003,7.1515,7.1278,7.1041,7.0297,7.0195,7.0195,7.0195,6.9857,6.9654,6.9654,6.7601,6.5135,6.2248,5.8929,5.6642,5.5683,5.5957,5.5987,5.5658,5.6645,5.7154,5.7154,5.7842,5.865,5.9608,5.9717,5.9179,0.0,0.0,0.0,0.0,0.0,0.0,0.0,0.0,4.331,4.6609,4.9367,5.2524,5.6956,6.048,6.375,6.6991,7.0781,7.3625,7.4604,7.7254,7.8691,7.7668,7.7695,7.8681,8.1079,8.1452,8.1832,8.2577,8.2611,8.2678,8.2821,8.3389,8.3727,8.3727,8.4275,8.4614,8.4614,8.4614,8.4614,8.4614,8.4614,8.4614,8.4614,8.4614,8.4614,8.4446,8.1531,7.9783,7.8909,7.7559,7.6962,7.7214,7.9427,7.8796,7.6803,7.8165,7.8638,7.8696,7.8827,7.9715,8.0752,8.0592,8.1009,8.1393,8.0818,8.0209,7.96,7.8855,7.8643,7.861,7.8474,7.844,7.844,7.844,7.8314,7.8213,7.8213,7.8102,7.7831,7.7232,7.6995,7.6521,7.527,7.4931,7.4322,7.2834,7.2597,7.2394,7.1819,7.1616,7.1492,7.1492,7.0838,7.0364,7.0217,6.7571,6.5216,6.3525,6.1352,5.9457,5.7955,5.7872,5.7872,5.7872,5.9069,6.0101,6.0941,6.1577,6.2108,6.2561,6.4301,6.3965,3.9402,3.8335,3.8609,4.0978,4.168,4.321,0.0,0.0,5.1772,5.5132,5.79,6.0485,6.2948,6.571,6.8549,7.1515,7.3894,7.6092,7.8217,7.8857,7.9254,7.977,8.0411,8.0935,8.1257,8.19,8.2577,8.3321,8.3389,8.3659,8.4309,8.4411,8.4478,8.4478,8.4546,8.4614,8.4614,8.4614,8.4614,8.4614,8.4614,8.4614,8.4614,8.4614,8.4614,8.45,8.2713,8.1089,7.9645,7.9492,7.9431,7.9585,8.1265,8.1726,8.1446,8.1652,8.171,8.1811,8.2582,8.2978,8.3009,8.2375,8.221,8.2272,8.2205,8.2103,8.19,8.1122,8.0945,8.0784,8.0107,7.9938,7.9938,7.9938,7.9464,7.8991,7.8991,7.845,7.8,7.7899,7.7333,7.686,7.6657,7.6048,7.5067,7.3601,7.3398,7.3364,7.3263,7.2665,7.2293,7.2293,7.1616,7.0906,7.0263,6.7737,6.5796,6.4924,6.2425,6.0854,6.0655,6.0627,6.0627,6.0627,6.1373,6.2433,6.3853,6.4417,6.5741,6.7582,6.7834,6.6802,4.3818,4.322,4.3449,0.0,4.6672,4.8689,5.3078,5.4622,5.6175,5.9918,6.2828,6.5227,6.6935,6.9879,7.2528,0.0,7.624,7.801,7.8991,7.9464,7.9701,7.9566,8.0581,8.146,8.19,8.2238,8.2881,8.4039,8.414,8.4275,8.458,8.4614,8.4614,8.4614,8.4614,8.4614,8.4614,8.4614,8.4614,8.4614,8.4614,8.4614,8.4614,8.4614,8.4089,8.3166,8.2487,8.1268,7.9862,8.0826,8.1209,8.1359,8.297,8.3586,8.3586,8.3586,8.3586,8.3634,8.4021,8.414,8.4072,8.3768,8.3389,8.305,8.305,8.2746,8.234,8.2035,8.1934,8.1866,8.1562,8.1494,8.1359,8.0919,8.0581,8.0242,7.9837,7.9498,7.916,7.872,7.8382,7.8044,7.7604,7.6893,7.6183,7.5574,7.4695,7.3984,7.3567,7.3229,7.3037,7.3037,7.2766,7.2462,7.2146,6.9591,6.7862,6.7548,6.4534,6.281,6.281,6.3601,6.4073,6.4073,6.5572,6.6645,6.7256,6.7514,6.8341,6.9653,7.0909,7.1246,4.639,4.657,4.7396,4.967,5.1675,5.3999,5.7379,5.9104,6.0899,6.4214,6.6936,6.9141,7.0557,7.3049,7.5236,7.6183,7.7908,7.9169,7.9397,7.9701,7.9634,7.8889,7.9566,8.0445,8.1426,8.2238,8.3253,8.4512,8.4614,8.4614,8.4614,8.4614,8.4614,8.4614,8.4614,8.4614,8.4614,8.4614,8.4614,8.4614,8.4614,8.4614,8.4614,8.4614,8.3947,8.2886,8.2886,8.2198,8.1206,8.2401,8.2886,8.297,8.4143,8.4614,8.4614,8.4614,8.4614,8.4614,8.4614,8.4614,8.4614,8.4614,8.4242,8.3795,8.3795,8.3422,8.2956,8.278,8.2712,8.2678,8.2475,8.2408,8.2272,8.1731,8.1596,8.1393,8.0648,8.0513,8.0276,7.9566,7.9236,7.8923,7.8382,7.7671,7.7198,7.7198,7.6251,7.5202,7.4221,7.3916,7.3737,7.3534,7.35,7.35,7.35,7.0909,6.946,6.9885,6.6355,6.4656,6.5458,6.6133,6.6686,6.7065,6.8781,6.9978,7.0591,7.0758,7.1453,7.2587,7.4159,7.5154,4.6121,4.7249,4.9364,5.394,5.6544,5.8888,6.2229,6.5073,6.7423,6.8917,7.0824,7.272,7.4151,7.5111,7.6149,7.7696,7.8585,7.9363,8.0073,7.9566,7.8855,7.8111,7.7435,7.7604,0.0,8.1799,8.3795,8.4546,8.4614,8.4614,8.4614,8.4614,8.4614,8.4614,8.4614,8.4614,8.4614,8.4614,8.4614,8.4614,8.4614,8.4614,8.4614,8.4614,8.4553,8.4526,8.4526,8.45,8.4473,8.45,8.4526,8.4526,8.4553,8.4614,8.4614,8.4614,8.4614,8.4614,8.4614,8.4614,8.4614,8.4614,8.458,8.458,8.458,8.4546,8.4377,8.3659,8.3456,8.3287,8.2611,8.2408,8.2382,8.2374,8.2374,8.2171,8.1452,8.1283,8.1046,8.031,7.96,7.9067,7.9067,7.845,7.7967,7.7967,7.7933,7.7333,7.5811,7.4999,7.4289,7.3601,7.35,7.35,7.35,7.0909,6.9911,7.135,6.7349,6.6248,6.9138,6.7896,6.7841,6.9265,6.9996,7.1452,7.3551,7.4225,7.5652,7.7776,7.7859,7.7859,5.0033,5.2219,5.4582,5.8816,6.1392,6.3532,6.5962,6.8021,6.9666,7.0482,7.158,7.2394,7.2428,7.3815,7.5303,7.6318,7.8348,7.9938,8.0175,8.0412,7.9735,7.7536,7.7908,0.0,0.0,0.0,0.0,8.3693,8.3862,8.4099,8.458,8.4614,8.4614,8.4614,8.4614,8.4614,8.4614,8.4614,8.4614,8.4614,8.4614,8.4614,8.4614,8.4614,8.4614,8.4614,8.4614,8.4614,8.4614,8.4614,8.4614,8.4614,8.4614,8.4614,8.4614,8.4614,8.4614,8.4614,8.4614,8.4614,8.4614,8.4614,8.4614,8.4614,8.4614,8.4614,8.4546,8.4275,8.4234,8.4174,8.3903,8.3836,8.3734,8.3253,8.3118,8.2915,8.2205,8.2035,8.1799,8.1054,8.0716,8.0412,7.9904,7.9228,7.8551,7.8044,7.8,7.7638,7.6623,7.6284,7.5845,7.5033,7.4965,7.4965,7.4965,7.3218,7.2375,7.2866,7.0603,6.9671,7.0684,7.1671,7.2408,7.2914,7.4599,7.5823,7.6574,7.6784,7.7522,7.872,7.872,7.9261,5.3841,5.6718,5.9425,6.3726,6.5974,6.7663,6.9628,7.0842,7.1613,7.1694,7.165,7.1379,7.0669,7.1244,7.2496,7.4559,7.6758,7.8686,8.0006,8.0378,7.96,7.7198,7.7502,7.7807,0.0,0.0,0.0,8.3219,8.349,8.3828,8.4546,8.4614,8.4614,8.4614,8.4614,8.4614,8.4614,8.4614,8.4614,8.4614,8.4614,8.4614,8.4614,8.4614,8.4614,8.4614,8.4614,8.4614,8.4614,8.4614,8.4614,8.4614,8.4614,8.4614,8.4614,8.4614,8.4614,8.4614,8.4614,8.4614,8.4614,8.4614,8.4614,8.4614,8.4614,8.4614,8.4614,8.4614,8.4614,8.4614,8.4614,8.4614,8.4478,8.4031,8.3896,8.3693,8.2949,8.278,8.2577,8.1832,8.1697,8.146,8.0716,7.9972,7.9329,7.8855,7.8813,7.8416,7.7401,7.7299,7.7096,7.6589,7.6521,7.6521,7.6521,7.5205,7.4614,7.513,7.3294,7.2675,7.3724,7.4629,7.5334,7.5887,7.7252,7.8111,7.8382,7.8382,7.8889,7.9904,7.9904,8.0547,5.7535,6.067,6.39,6.8469,7.0184,7.1169,7.3042,7.3466,7.3263,7.236,7.1007,6.971,0.0,0.0,6.8233,7.2586,7.4153,7.6115,7.9735,7.9701,7.872,0.0,0.0,0.0,0.0,0.0,0.0,8.3118,0.0,8.3761,8.4546,8.4614,8.4614,8.4614,8.4614,8.4614,8.4614,8.4614,8.4614,8.4614,8.4614,8.4614,8.4614,8.4614,8.4614,8.4614,8.4614,8.4614,8.4614,8.4614,8.4614,8.4614,8.4614,8.4614,8.4614,8.4614,8.4614,8.4614,8.4614,8.4614,8.4614,8.4614,8.4614,8.4614,8.4614,8.4614,8.4614,8.4614,8.4614,8.4614,8.4614,8.4614,8.4614,8.4614,8.4614,8.4411,8.3693,8.3558,8.3355,8.2611,8.2441,8.2171,8.1486,8.0784,8.031,8.0242,8.0242,7.9701,7.8247,7.8044,7.8044,7.8,7.8,7.8,7.8,7.674,7.6502,7.7927,7.5364,7.5096,7.7878,7.6696,7.662,7.8077,7.817,7.8517,7.927,7.927,8.0006,8.1384,8.1384,8.1731,6.304,6.634,6.9067,7.1768,7.3023,7.3373,7.2799,7.3128,7.2631,6.9654,6.7861,6.6123,0.0,0.0,0.0,6.9857,7.4593,0.0,8.0716,8.1325,0.0,7.8788,0.0,7.8111,7.7739,7.8213,0.0,0.0,8.2171,8.2644,8.4512,8.4614,8.4614,8.4614,8.4614,8.4614,8.4614,8.4614,8.4614,8.4614,8.4614,8.4614,8.4614,8.4614,8.4614,8.4614,8.4614,8.4614,8.4614,8.4614,8.4614,8.4614,8.4614,8.4614,8.4614,8.4614,8.4614,8.4614,8.4614,8.4614,8.4614,8.4614,8.4614,8.4614,8.4614,8.4614,8.4614,8.4614,8.4614,8.4614,8.4614,8.4614,8.4614,8.4614,8.4614,8.4546,8.4343,8.4309,8.4072,8.3355,8.278,8.234,8.2171,8.1968,8.1663,8.1088,8.1021,8.0479,7.9025,7.8822,7.8619,7.8044,7.8,7.8,7.8,7.7646,7.7621,7.7976,7.7313,7.7237,7.7976,7.8185,7.8699,7.9634,8.02,8.0818,8.1536,8.1536,8.1765,8.2137,8.2137,8.2509,6.6654,6.9969,7.2553,7.3685,7.4289,7.4052,7.1921,7.121,6.9891,6.5831,6.3531,0.0,5.9268,6.1061,6.4038,0.0,0.0,0.0,8.0877,8.1934,8.1832,0.0,8.0073,0.0,7.9489,7.9803,8.0851,0.0,8.2205,8.2611,8.4512,8.4614,8.4614,8.4614,8.4614,8.4614,8.4614,8.4614,8.4614,8.4614,8.4614,8.4614,8.4614,8.4614,8.4614,8.4614,0.0,8.4614,8.4614,8.4614,8.4614,8.4614,8.4614,8.4614,8.4614,8.4614,8.4614,8.4614,8.4614,8.4614,8.4614,8.4614,8.4614,8.4614,8.4614,8.4614,8.4614,8.4614,8.4614,8.4614,8.4614,8.4614,8.4614,8.4614,8.4614,8.4614,8.4614,8.4614,8.4478,8.4065,8.3389,8.2881,8.2881,8.2611,8.2272,8.1832,8.1765,8.1359,8.0209,7.9769,7.9431,7.8991,7.8957,7.8957,7.8957,7.8957,7.8957,7.8957,7.9261,7.9456,7.9456,8.0175,8.075,8.1156,8.1562,8.2002,8.2408,8.2408,8.2577,8.2881,8.2881,8.3287,6.9481,7.2524,7.4931,7.4931,7.4806,7.3916,7.077,6.8707,6.617,6.1637,0.0,5.6731,5.5361,5.663,5.981,6.5696,0.0,7.5473,8.0682,8.2002,8.2205,8.1655,8.152,8.1452,8.1452,8.1452,8.2002,8.3389,8.2915,8.3126,8.4512,8.4614,8.4614,8.4614,8.4614,8.4614,8.4614,8.4614,8.4614,8.4614,8.4614,8.4614,8.4614,8.4614,8.4614,8.4614,8.4614,8.4614,8.4614,8.4614,8.4614,8.4614,8.4614,8.4614,8.4614,8.4614,8.4614,8.4614,8.4614,8.4614,8.4614,8.4614,8.4614,8.4614,8.4614,8.4614,8.4614,8.4614,8.4614,8.4614,8.4614,8.4614,8.4614,8.4614,8.4614,8.4614,8.4614,8.4614,8.4614,8.4614,8.4099,8.3659,8.3659,8.3118,8.2678,8.2577,8.2543,8.2272,8.1528,8.0784,8.0344,8.0344,8.0344,8.0378,8.0479,8.0479,8.0479,8.0479,8.1088,8.1452,8.1452,8.2069,8.2475,8.2543,8.2543,8.2611,8.2712,8.2813,8.3186,8.3795,8.3795,8.42,7.3804,7.5532,7.6487,7.6487,7.6014,7.4424,7.0229,6.7151,0.0,0.0,5.5277,5.301,5.2148,5.5209,5.9659,6.5019,7.0669,7.6251,8.146,8.234,8.2577,0.0,8.2577,0.0,0.0,0.0,0.0,0.0,8.3389,8.3693,8.4546,8.4614,8.4614,8.4614,8.4614,8.4614,8.4614,8.4614,8.4614,8.4614,8.4614,8.4614,8.4614,8.4614,8.4614,8.4614,8.4614,0.0,8.4614,8.4614,8.4614,8.4614,8.4614,8.4614,8.4614,8.4614,8.4614,8.4614,8.4614,8.4614,8.4614,8.4614,8.4614,8.4614,8.4614,8.4614,8.4614,8.4614,8.4614,8.4614,8.4614,8.4614,8.4614,8.4614,8.4614,8.4614,8.4614,8.4614,8.4614,8.4614,8.4478,8.4411,8.4411,8.4309,8.4005,8.3389,8.3321,8.305,8.2306,8.1562,8.1088,8.1088,8.1088,8.1359,8.1968,8.2035,8.2035,8.2035,8.2137,8.2205,8.2205,8.234,8.2712,8.3287,8.3321,8.3625,8.4208,8.4877,8.5283,8.5411,8.5411,8.579,7.51,7.6555,7.7367,7.6995,7.5709,7.3071,6.7489,0.0,0.0,0.0,5.0241,4.8414,4.7704,5.1606,5.6251,6.0309,6.5695,7.1785,7.8585,7.9532,8.0682,8.3727,8.3734,8.3531,0.0,8.3531,8.3667,8.4065,8.4065,8.4234,8.458,8.4614,8.4614,8.4614,8.4614,8.4614,8.4614,8.4614,8.4614,8.4614,8.4614,8.4614,8.4614,8.4614,8.4614,8.4614,8.4614,8.4614,8.4614,8.4614,8.4614,8.4614,8.4614,8.4614,8.4614,8.4614,8.4614,8.4614,8.4614,8.4614,8.4614,8.4614,8.4614,8.4614,8.4614,8.4614,8.4614,8.4614,8.4614,8.4614,8.4614,8.4614,8.4614,8.4614,8.4614,8.4614,8.4614,8.4614,8.4614,8.4614,8.4614,8.4614,8.4614,8.4614,8.4478,8.4133,8.4065,8.3828,8.3084,8.2644,8.2306,8.19,8.1866,8.2035,8.2374,8.2408,8.2408,8.2408,8.278,8.2983,8.2983,8.3328,8.393,8.4674,8.4302,8.4614,8.5797,8.579,8.5993,8.6366,8.6366,8.6569,7.5743,7.7198,7.8044,7.7299,7.5303,7.1672,6.4793,6.0003,0.0,4.8509,4.5795,4.4501,4.4243,4.8071,5.2404,5.6003,6.0824,6.7015,7.5236,7.6826,7.8923,0.0,8.4512,0.0,8.4614,8.4614,0.0,8.4614,8.4614,8.4614,8.4614,8.4614,8.4614,8.4614,8.4614,8.4614,8.4614,8.4614,8.4614,8.4614,8.4614,8.4614,8.4614,8.4614,8.4614,8.4614,8.4614,8.4614,8.4614,8.4614,8.4614,8.4614,8.4614,8.4614,8.4614,8.4614,8.4614,8.4614,8.4614,8.4614,8.4614,8.4614,8.4614,8.4614,8.4614,8.4614,8.4614,8.4614,8.4614,8.4614,8.4614,8.4614,8.4614,8.4614,8.4614,8.4614,8.4614,8.4614,8.4614,8.4614,8.4614,8.4614,8.4614,8.4614,8.4614,8.4614,8.4614,8.4377,8.3828,8.3727,8.3524,8.2923,8.2746,8.2712,8.2855,8.2855,8.2855,8.2855,8.3422,8.3727,8.3727,8.4471,8.5148,8.5784,8.5182,8.5527,8.6907,8.6332,8.6399,8.7144,8.7144,8.7211,7.7164,7.8382,7.8822,7.8077,7.5699,7.1536,6.3957,0.0,5.2946,4.6707,4.3762,4.2686,4.397,4.6338,4.9969,5.5672,5.9985,6.5459,7.368,7.6589,7.9295,8.3152,0.0,0.0,8.4614,8.4614,8.4614,8.4614,8.4614,8.4614,8.4614,8.4614,8.4614,8.4614,8.4614,8.4614,8.4614,8.4614,8.4614,8.4614,8.4614,8.4614,8.4614,8.4614,8.4614,8.4614,8.4614,8.4614,0.0,8.4614,8.4614,8.4614,8.4614,8.4614,8.4614,8.4614,8.4614,8.4614,8.4614,8.4614,8.4614,8.4614,8.4614,8.4614,8.4614,8.4614,8.4614,8.4614,8.4614,8.4614,8.4614,8.4614,8.4614,8.4614,8.4614,8.4614,8.4614,8.4614,8.4614,8.4614,8.4614,8.4614,8.4614,8.4614,8.4614,8.4614,8.4614,8.458,8.4512,8.4512,8.4478,8.4411,8.3795,8.3659,8.4343,8.4411,8.4411,8.4411,8.4444,8.4512,8.4512,8.5283,8.5723,8.5817,8.575,8.6095,8.6907,8.6839,8.7177,8.7888,8.7888,8.826,7.6487,7.8517,7.9464,7.828,7.5405,7.0839,6.3185,5.7054,5.1201,4.5041,4.1994,4.0601,4.1208,4.3295,4.6284,5.0446,5.3292,5.8017,6.669,6.9079,7.2496,7.9363,8.1224,0.0,0.0,0.0,8.4614,8.4614,8.4614,8.4614,8.4614,8.4614,8.4614,8.4614,8.4614,8.4614,8.4614,8.4614,8.4614,8.4614,8.4614,8.4614,8.4614,8.4614,8.4614,8.4614,8.4614,8.4614,0.0,8.4614,8.4614,8.4614,8.4614,8.4614,8.4614,8.4614,8.4614,8.4614,8.4614,8.4614,8.4614,8.4614,8.4614,8.4614,8.4614,8.4614,8.4614,8.4614,8.4614,8.4614,8.4614,8.4614,8.4614,8.4614,8.4614,8.4614,8.4614,8.4614,8.4614,8.4614,8.4614,8.4614,8.4614,8.4614,8.4614,8.4614,8.4614,8.4614,8.4614,8.4614,8.4614,8.4614,8.4343,8.4275,8.458,8.5046,8.5317,8.5317,8.5757,8.5966,8.5966,8.5858,8.6196,8.711,8.623,8.6602,8.8226,8.7786,8.7955,8.8632,8.8632,8.8801,7.527,7.7841,7.9153,7.7438,7.3816,6.8741,6.1568,5.5069,4.8993,4.3512,4.0788,3.9391,3.9391,4.1437,4.3922,4.6436,4.9227,5.3856,6.1719,6.4241,6.7996,7.5439,0.0,7.9735,0.0,8.3971,8.4614,8.4614,8.4614,8.4614,8.4614,8.4614,8.4614,8.4614,8.4614,8.4614,8.4614,8.4614,8.4614,8.4614,8.4614,8.4614,8.4614,8.4614,8.4614,8.4614,8.4614,8.4614,0.0,8.4614,8.4614,8.4614,8.4614,8.4614,8.4614,8.4614,8.4614,8.4614,8.4614,8.4614,8.4614,8.4614,8.4614,8.4614,8.4614,8.4614,8.4614,8.4614,8.4614,8.4614,8.4614,8.4614,8.4614,8.4614,8.4614,8.4614,8.4614,8.4614,8.4614,8.4614,8.4614,8.4614,8.4614,8.4614,8.4614,8.4614,8.4614,8.4614,8.4614,8.4614,8.4614,8.4614,8.4614,8.4614,8.4614,8.5114,8.5452,8.5452,8.6163,8.6569,8.6569,8.6467,8.6941,8.7989,8.6974,8.734,8.91,8.8361,8.8361,8.91,8.91,8.91,7.3815,7.6284,7.7477,7.5297,7.0548,6.4885,5.8805,5.211,4.6052,4.2198,4.0337,3.9391,3.9391,4.1437,4.3601,4.5081,4.9907,5.531,6.0588,6.4458,6.8199,0.0,7.3781,7.5821,7.8864,8.2449,8.4614,8.4614,8.4614,0.0,8.4614,8.4614,8.4614,8.4614,8.4614,8.4614,8.4614,8.4614,8.4614,8.4614,8.4614,8.4614,8.4614,8.4614,8.4614,8.4614,8.4614,8.4614,0.0,8.4614,8.4614,8.4614,8.4614,8.4614,8.4614,8.4614,8.4614,8.4614,8.4614,8.4614,8.4614,8.4614,8.4614,8.4614,8.4614,8.4614,8.4614,8.4614,8.4614,8.4614,8.4614,8.4614,8.4614,8.4614,8.4614,8.4614,8.4614,8.4614,8.4614,8.4614,8.4614,8.4614,8.4614,8.4614,8.4614,8.4614,8.4614,8.4614,8.4614,8.4614,8.4614,8.4614,8.4614,8.4614,8.4614,8.4614,8.4614,8.4614,8.5351,8.5817,8.5817,8.7211,8.7989,8.7989,8.7989,8.8328,8.91,8.8361,8.8361,8.91,8.91,8.91,6.7117,6.9256,7.028,6.8076,6.4511,6.0105,5.4573,5.009,4.5877,4.1607,4.0008,3.9391,3.9391,4.1013,4.3681,4.773,5.0786,5.4499,5.9742,6.37,6.7421,7.121,7.6995,8.1257,0.0,0.0,8.4614,8.4614,8.4614,8.4614,8.4614,8.4614,8.4614,8.4614,8.4614,8.4614,8.4614,8.4614,8.4614,8.4614,8.4614,8.4614,8.4614,8.4614,8.4614,8.4614,8.4614,8.4614,8.4614,8.4614,8.4614,8.4614,8.4614,8.4614,8.4614,8.4614,8.4614,8.4614,8.4614,8.4614,8.4614,8.4614,8.4614,8.4614,8.4614,8.4614,8.4614,8.4614,8.4614,8.4614,8.4614,8.4614,8.4614,8.4614,8.4614,8.4614,8.4614,8.4614,8.4614,8.4614,8.4614,8.4614,8.4614,8.4614,8.4614,8.4614,8.4614,8.4614,8.4614,8.4614,8.4614,8.4614,8.4614,8.4614,8.4614,8.5561,8.6169,8.6169,8.7347,8.8085,8.8085,8.8023,8.8226,8.8761,8.826,8.8361,8.91,8.8897,8.8869,8.91,8.91,8.91,6.1117,6.3715,6.4748,6.2828,5.9685,5.5937,5.1611,4.7886,4.4481,4.1505,4.037,3.999,4.0309,4.1749,4.4059,4.7586,5.0276,5.3518,5.8186,6.2076,6.6237,7.1142,7.7468,0.0,0.0,8.3937,8.4614,8.4614,8.4614,8.4614,8.4614,8.4614,8.4614,8.4614,8.4614,8.4614,8.4614,8.4614,8.4614,8.4614,8.4614,8.4614,8.4614,8.4614,8.4614,8.4614,8.4614,8.4614,0.0,8.4614,8.4614,8.4614,8.4614,8.4614,8.4614,8.4614,8.4614,8.4614,8.4614,8.4614,8.4614,8.4614,8.4614,8.4614,8.4614,8.4817,8.5046,8.5046,8.5249,8.5459,8.5459,8.5256,8.5046,8.5046,8.5046,8.5046,8.5046,8.5256,8.5459,8.5459,8.5459,8.5459,8.5459,8.5459,8.5459,8.5459,8.5459,8.5459,8.5459,8.5459,8.5459,8.5459,8.5459,8.5459,8.5459,8.6095,8.6602,8.6907,8.8023,8.8666,8.8666,8.8497,8.8632,8.91,8.8632,8.8632,8.91,8.91,8.91,8.9134,8.9376,8.9342,0.0,5.8753,6.0115,5.8624,5.5445,5.1992,4.9364,4.5406,0.0,4.1643,4.1034,4.0925,4.1867,4.3295,4.4658,4.5807,4.9102,5.279,5.6528,6.052,6.5561,7.2225,7.6183,7.8957,8.0378,8.299,8.4614,8.4614,8.4614,8.4614,8.4614,8.4614,8.4614,8.4614,8.4614,8.4614,8.4614,8.4614,8.4614,8.4614,8.4614,8.4614,8.4614,8.4614,8.4614,0.0,8.4614,8.4614,8.4614,8.4614,8.4614,8.4614,8.4614,8.4614,8.4614,8.4614,8.4614,8.4614,8.4614,8.4614,8.4614,8.4614,8.4614,8.4614,8.4647,8.5215,8.5817,8.5817,8.6332,8.6907,8.6907,8.6399,8.5885,8.5885,8.5885,8.5885,8.5885,8.6433,8.6907,8.6907,8.6907,8.6907,8.6907,8.6907,8.6907,8.6907,8.6907,8.6907,8.6907,8.6907,8.6907,8.6907,8.6907,8.6941,8.6974,8.6332,8.623,8.6941,8.7685,8.8091,8.8091,8.8761,8.91,8.91,8.9168,8.9201,8.9201,8.9235,8.9269,8.9269,8.9951,8.9918,4.4772,0.0,5.0133,4.8658,4.6975,4.5243,0.0,4.2421,4.131,4.0161,3.9823,4.0312,4.2303,4.3062,4.4984,4.985,5.2888,5.5733,5.8896,6.5527,7.2326,7.8508,8.0987,8.2577,8.3464,8.4174,8.4614,8.4614,8.4614,8.4614,8.4614,8.4614,8.4614,8.4614,8.4614,8.4614,8.4614,8.4614,8.4614,8.4614,8.4614,8.4614,8.4614,8.4614,8.4614,8.4614,8.4614,8.4614,8.4614,8.4614,8.4614,8.4614,8.4614,8.4614,8.4614,8.4614,8.4614,8.4614,8.4614,8.4614,8.4614,8.4614,8.4614,8.4715,8.5317,8.5655,8.5817,8.5817,8.6332,8.6907,8.6907,8.6771,8.6636,8.6636,8.6636,8.6636,8.6636,8.6771,8.6907,8.6907,8.6907,8.6907,8.6907,8.6907,8.6907,8.6907,8.6907,8.6907,8.6907,8.6907,8.6907,8.6907,8.6907,8.7144,8.7685,8.7583,8.755,8.7719,8.8429,8.8835,8.8835,8.9032,8.91,8.91,8.9647,8.9951,8.9951,9.0493,9.0763,9.0797,9.0966,9.0932,3.9846,4.286,4.5701,4.5194,4.4427,4.3519,4.2521,4.1594,4.0766,4.0114,0.0,4.072,4.3139,4.3928,4.5734,5.046,5.3179,5.6916,6.3328,6.9823,7.5879,8.119,8.2813,8.3795,8.4512,8.4614,8.4614,8.4614,8.4614,8.4614,8.4614,8.4614,8.4614,8.4614,8.4614,8.4614,8.4614,8.4614,8.4614,8.4614,8.4614,8.4614,8.4614,8.4614,8.4614,8.4614,8.4986,8.5148,8.5148,8.5148,8.5148,8.5114,8.4749,8.4614,8.4614,8.4614,8.4614,8.4614,8.4614,8.4614,8.4647,8.5046,8.5148,8.5283,8.6061,8.6535,8.6805,8.6805,8.7347,8.7922,8.7922,8.7651,8.7414,8.7414,8.7414,8.7414,8.7414,8.7685,8.7922,8.7922,8.7922,8.7922,8.7922,8.7922,8.7922,8.7922,8.7922,8.7922,8.7922,8.7922,8.7922,8.7922,8.7922,8.8057,8.8463,8.8497,8.8497,8.8497,8.8897,8.91,8.91,8.941,8.9748,9.0087,9.0493,9.0696,9.0729,9.1102,9.1305,9.1305,9.1643,9.1609,3.8422,4.1294,4.4077,4.4317,4.4197,4.3838,4.309,4.1624,4.0492,0.0,0.0,0.0,0.0,4.5609,0.0,0.0,5.3247,5.8524,6.8538,7.3375,7.7536,8.2035,8.3219,8.393,8.4546,8.4614,8.4614,8.4614,8.4614,8.4614,8.4614,8.4614,8.4614,8.4614,8.4614,8.4614,8.4614,8.4614,8.4614,8.4614,8.4614,8.4614,8.4614,8.4614,8.4647,8.4817,0.0,0.0,8.596,8.596,8.596,8.5892,8.5114,8.4783,8.4749,8.4647,8.4614,8.4614,8.4614,8.4681,8.4884,8.5587,8.5885,8.6095,8.6839,8.7516,8.8023,8.8125,8.8598,8.91,8.91,8.8632,8.8158,8.8158,8.8158,8.8158,8.8158,8.8632,8.91,8.91,8.91,8.91,8.91,8.91,8.91,8.91,8.91,8.91,8.91,8.91,8.91,8.91,8.91,8.9168,8.9269,8.9241,8.9337,8.9438,8.9337,8.9337,8.941,9.0053,9.0662,9.1271,9.1406,9.1474,9.1474,9.1575,9.1643,9.1677,9.2286,9.2252,3.9469,4.1373,4.2301,4.0726,4.1523,4.2361,4.1145,4.0606,4.0612,4.1392,0.0,4.2762,4.652,4.8315,5.0457,0.0,5.8844,6.4728,7.2642,7.5415,7.829,8.2813,8.3998,8.4478,8.458,8.4614,8.4614,8.4614,8.4614,8.4614,8.4614,8.4614,8.4614,8.4614,8.4614,8.4614,8.4614,8.4614,8.4614,8.4614,8.4614,8.4614,8.4614,8.4614,8.4952,8.5621,0.0,8.6163,8.6738,8.6738,8.6738,8.667,8.5892,8.5621,8.552,8.485,8.4614,8.4614,8.4614,8.5046,8.5621,8.5784,8.623,8.6873,8.7617,8.7922,8.8125,8.8761,8.9032,8.91,8.91,8.9032,8.8931,8.8931,8.8931,8.8931,8.8931,8.9032,8.91,8.91,8.91,8.91,8.91,8.91,8.91,8.91,8.91,8.91,8.91,8.91,8.91,8.91,8.91,8.9342,8.9985,9.0019,9.029,9.0899,9.0391,9.0324,9.0932,9.1068,9.1169,9.1305,9.1913,9.2223,9.2223,9.2895,9.3262,9.3262,9.3334,9.3334,3.7853,4.0123,4.2065,4.2027,4.365,4.5209,4.4819,4.4174,4.3769,0.0,0.0,4.5228,4.8329,5.078,5.4386,6.069,6.5067,6.9755,7.5608,7.7705,8.0006,8.3659,8.4377,8.4614,8.4614,8.4614,8.4614,8.4614,8.4614,8.4614,8.4614,8.4614,8.4614,8.4614,8.4614,8.4614,8.4614,8.4614,8.4614,8.4614,8.4614,8.4614,8.4614,8.4614,8.5046,8.5817,0.0,8.6805,8.7482,8.7482,8.7482,8.738,8.623,8.5817,8.5689,8.4884,8.4614,8.4647,8.5114,8.5486,8.5953,8.6704,8.7211,8.7617,8.8361,8.8564,8.8694,8.8998,8.91,8.91,8.91,8.91,8.91,8.91,8.91,8.91,8.91,8.91,8.91,8.91,8.91,8.91,8.91,8.91,8.91,8.91,8.91,8.91,8.91,8.91,8.91,8.91,8.9444,8.9816,9.0188,9.056,9.0932,9.1271,9.0966,9.1135,9.188,9.1913,9.2116,9.2522,9.2861,9.3064,9.3064,9.3402,9.3601,9.3601,9.3601,9.3601,3.7332,3.9669,4.2274,4.4387,0.0,4.8004,4.9424,4.8542,0.0,0.0,0.0,0.0,5.1383,5.4537,5.9154,6.6403,7.0106,7.3578,7.7908,7.9634,8.1494,8.4275,8.4614,8.4614,8.4614,8.4614,8.4614,8.4614,8.4614,8.4614,8.4614,8.4614,8.4614,8.4614,8.4614,8.4614,8.4614,8.4614,8.4614,8.4614,8.4614,8.4614,8.4614,8.4614,8.5148,8.6095,8.667,8.7414,8.826,8.826,8.8158,8.7854,8.6569,8.5824,8.5452,8.4817,8.4715,8.4979,8.5587,8.6054,8.6501,8.7617,8.8125,8.8361,8.8931,8.91,8.91,8.91,8.91,8.91,8.91,8.91,8.91,8.91,8.91,8.91,8.91,8.91,8.91,8.91,8.91,8.91,8.91,8.91,8.91,8.91,8.91,8.9168,8.9342,8.9342,8.941,8.9607,9.0121,9.0527,9.0701,9.1406,9.1846,9.1846,9.1846,9.2083,9.2658,9.2692,9.2962,9.3601,9.3601,9.3601,9.3601,9.3601,9.3601,9.3601,9.3601,9.3673,4.0355,4.1365,4.2576,4.618,4.7171,4.8358,5.2701,5.203,0.0,5.5907,0.0,0.0,0.0,6.0917,6.5194,6.9282,7.2428,7.5709,7.9498,8.0716,8.2069,8.4309,8.4614,8.4614,8.4614,8.4614,8.4614,8.4614,8.4614,8.4614,8.4614,8.4614,8.4614,8.4614,8.4614,8.4614,8.4614,8.4614,8.4614,8.4614,8.4614,8.4614,8.4614,8.4614,8.5391,8.6839,8.6907,8.7719,8.9032,8.9032,8.8598,8.7922,8.7144,8.5933,8.4681,8.4614,8.508,8.5723,8.5784,8.6704,8.7854,8.7955,8.8463,8.9032,8.91,8.91,8.91,8.91,8.91,8.91,8.91,8.91,8.91,8.91,8.91,8.91,8.91,8.91,8.91,8.91,8.91,8.91,8.91,8.91,8.91,8.91,8.91,8.9342,9.0019,9.0121,9.0391,9.1068,9.1169,9.1508,9.2189,9.2962,9.3402,9.3402,9.3402,9.3465,9.3503,9.3503,9.3567,9.3601,9.3601,9.3601,9.3601,9.3601,9.3601,9.3601,9.3601,9.3943,3.9247,4.1506,4.4235,4.7542,5.0441,0.0,0.0,5.6202,5.7463,6.0617,6.0849,0.0,0.0,6.4986,6.847,7.174,7.5134,7.8357,8.119,8.2205,8.3152,8.4444,8.4614,8.4614,8.4614,8.4614,8.4614,8.4614,8.4614,8.4614,8.4614,8.4614,8.4614,8.4614,8.4614,8.4614,8.4614,8.4614,8.4614,8.4614,8.4614,8.4614,8.4614,8.4614,8.5425,8.6907,8.6907,8.7482,8.8395,8.8395,8.7989,8.7245,8.6501,8.5554,8.4614,8.4614,8.5114,8.5885,8.6332,8.7144,8.8091,8.8531,8.8869,8.91,8.91,8.91,8.91,8.91,8.91,8.91,8.91,8.91,8.91,8.91,8.91,8.91,8.91,8.91,8.91,8.91,8.9478,8.9647,8.9201,8.9478,8.9782,8.9782,8.9782,9.0053,9.0797,9.0865,9.1,9.1271,9.1711,9.2319,9.3064,9.3402,9.3601,9.3601,9.3601,9.3601,9.3601,9.3601,9.3601,9.3601,9.3601,9.3601,9.3601,9.3601,9.3601,9.3634,9.4079,9.4451,3.9254,4.1834,4.5163,4.7935,0.0,0.0,5.8389,6.0452,6.2787,6.6,6.6102,6.5628,6.5628,0.0,0.0,7.306,7.6657,7.987,8.2103,8.305,8.3761,8.4512,8.4614,8.4614,8.4614,8.4614,8.4614,8.4614,8.4614,8.4614,8.4614,8.4614,8.4614,8.4614,8.4614,8.4614,8.4614,8.4614,8.4614,8.4614,8.4614,8.4614,8.4614,8.4614,8.529,8.6569,8.6805,8.7313,8.8023,8.826,8.7786,8.6805,8.5824,8.508,8.4614,8.4614,8.5283,8.623,8.6738,8.755,8.8429,8.8965,8.91,8.91,8.91,8.91,8.91,8.91,8.91,8.91,8.91,8.91,8.91,8.91,8.91,8.91,8.91,8.91,8.9168,8.9376,8.985,9.0121,8.9816,9.0222,9.056,9.056,9.056,9.0831,9.1541,9.1643,9.1744,9.1981,9.2489,9.2996,9.3537,9.3601,9.3601,9.3601,9.3601,9.3601,9.3601,9.3601,9.3601,9.3601,9.3601,9.3601,9.3601,9.3601,9.3601,9.3634,9.4349,9.4823,4.1168,4.2639,4.5042,4.7289,0.0,0.0,6.2192,6.4681,6.7239,7.2451,7.1774,6.9755,6.8233,6.918,0.0,7.3161,7.6657,7.9904,8.2103,8.305,8.3795,8.4512,8.4614,8.4614,8.4614,8.4614,8.4614,8.4614,8.4614,8.4614,8.4614,8.4614,8.4614,8.4614,8.4614,8.4614,8.4614,8.4614,8.4614,8.4614,8.4614,8.4614,8.4614,8.4614,8.5046,8.5824,8.6602,8.7313,8.8057,8.8795,8.8192,8.6738,8.5189,8.4614,8.4614,8.4614,8.5561,8.6907,8.6907,8.7854,8.91,8.91,8.91,8.91,8.91,8.91,8.91,8.91,8.91,8.91,8.91,8.91,8.91,8.91,8.91,8.91,8.91,8.91,8.9309,9.0053,9.0222,9.0459,9.1169,9.1305,9.1305,9.1305,9.1305,9.1575,9.2324,9.2392,9.2725,9.3503,9.3601,9.3601,9.3601,9.3601,9.3601,9.3601,9.3601,9.3601,9.3601,9.3601,9.3601,9.3601,9.3601,9.3601,9.3601,9.3601,9.3601,9.3634,9.4383,9.5127,4.0917,4.3041,4.6209,4.9991,5.5576,6.1231,0.0,6.776,0.0,0.0,7.4525,7.2834,7.1345,7.2293,0.0,7.4187,7.7874,8.1054,8.2238,8.3464,8.4343,8.458,8.4614,8.4614,8.4614,8.4614,8.4614,8.4614,8.4614,8.4614,8.4614,8.4614,8.4614,8.4614,8.4614,8.4614,8.4614,8.4614,8.4614,8.4614,8.4614,8.4614,8.4614,8.4614,8.5046,8.5824,8.6602,8.7042,8.7245,8.7482,8.6974,8.6061,8.5621,8.5114,8.4614,8.4614,8.5561,8.6907,8.6907,8.7854,8.91,8.91,8.91,8.91,8.91,8.91,8.91,8.91,8.91,8.91,8.91,8.91,8.91,8.91,8.91,8.91,8.91,8.91,8.9309,9.0053,9.0628,9.1034,9.1271,9.1744,9.2083,9.2083,9.2083,9.2353,9.3131,9.3233,9.3334,9.3571,9.3601,9.3601,9.3601,9.3601,9.3601,9.3601,9.3601,9.3601,9.3601,9.3601,9.3601,9.3601,9.3601,9.3601,9.3601,9.3601,9.3842,9.4383,9.5127,9.5872,4.3797,4.6585,5.0105,5.3988,5.9133,6.4613,6.9823,0.0,0.0,0.0,7.6352,7.5134,7.3916,7.4424,0.0,7.5473,7.8754,8.1562,8.2306,8.3667,8.4614,8.4614,8.4614,8.4614,8.4614,8.4614,8.4614,8.4614,8.4614,8.4614,8.4614,8.4614,8.4614,8.4614,8.4614,8.4614,8.4614,8.4614,8.4614,8.4614,8.4614,8.4614,8.4614,8.4614,8.485,8.5384,8.6467,8.7245,8.7753,8.7448,8.6907,8.6196,8.5892,8.5317,8.4614,8.4614,8.5418,8.6501,8.6805,8.7685,8.87,8.8998,8.91,8.91,8.91,8.91,8.91,8.91,8.91,8.91,8.91,8.91,8.91,8.91,8.91,8.91,8.91,8.9309,8.9748,9.0493,9.1237,9.1846,9.215,9.259,9.2895,9.2895,9.2895,9.3064,9.3567,9.3601,9.3601,9.3601,9.3601,9.3601,9.3601,9.3601,9.3601,9.3601,9.3601,9.3601,9.3601,9.3601,9.3601,9.3601,9.3601,9.3601,9.3601,9.3601,9.3977,9.4721,9.5466,9.6176,4.81,5.1563,5.5274,5.8607,6.2561,6.7476,7.4407,7.6707,7.7556,7.8117,0.0,7.6893,7.6149,7.6076,7.6408,7.7154,7.9695,8.1842,8.2531,8.3794,8.4664,8.4664,8.4626,8.4614,8.4614,8.4614,8.4614,8.4614,8.4614,8.4614,8.4614,8.4614,8.4614,8.4614,8.4614,8.4614,8.4614,8.4614,8.4614,8.4614,8.4614,8.4614,8.4614,8.4614,8.4681,8.4884,8.6366,8.7786,8.9066,8.8361,8.7617,8.6839,8.6163,8.5384,8.4614,8.4614,8.5148,8.602,8.667,8.7448,8.8192,8.8897,8.91,8.91,8.91,8.91,8.91,8.91,8.91,8.91,8.91,8.91,8.91,8.91,8.91,8.91,8.91,8.9681,9.0425,9.1169,9.1913,9.2658,9.3436,9.3601,9.3601,9.3601,9.3601,9.3601,9.3601,9.3601,9.3601,9.3601,9.3601,9.3601,9.3601,9.3601,9.3601,9.3601,9.3601,9.3601,9.3601,9.3601,9.3601,9.3601,9.3601,9.3601,9.3601,9.3668,9.4079,9.4823,9.5567,9.6277,4.652,5.0357,5.5086,6.1042,6.8193,7.4537,7.7359,7.97,8.0996,7.9945,7.916,7.8585,7.8416,7.9095,7.9741,7.9913,8.222,8.4032,8.4207,8.4687,8.5067,8.5067,8.477,8.4614,8.4614,8.4614,8.4614,8.4614,8.4614,8.4614,8.4614,8.4614,8.4614,8.4614,8.4614,8.4614,8.4614,8.4614,8.4614,8.4614,8.4614,8.4614,8.4614,8.4614,8.5256,8.644,8.738,8.826,8.91,8.8931,8.8091,8.6907,8.6738,8.5797,8.4614,8.4614,8.5459,8.6704,8.6839,8.7753,8.8869,8.9066,8.91,8.91,8.91,8.91,8.91,8.91,8.91,8.91,8.91,8.91,8.91,8.91,8.91,8.91,8.91,8.9681,9.0425,9.1169,9.1913,9.2658,9.3436,9.3601,9.3601,9.3601,9.3601,9.3601,9.3601,9.3601,9.3601,9.3601,9.3601,9.3601,9.3601,9.3601,9.3601,9.3601,9.3601,9.3601,9.3601,9.3601,9.3601,9.3601,9.3601,9.3601,9.3601,9.418,9.4857,9.5567,9.6311,9.7056,4.9344,5.3758,5.8883,6.5998,7.2313,7.7075,7.8075,8.007,8.1551,8.1098,8.073,8.0297,7.9725,8.0102,8.0686,8.1251,8.2752,8.4073,8.4624,8.4681,8.4817,8.5174,8.4507,8.4208,8.458,8.4614,8.4614,8.4614,8.4614,8.4614,8.4614,8.4614,8.4614,8.4614,8.4614,8.4614,8.4614,8.4614,8.4614,8.4614,8.4614,8.4614,8.4614,8.4614,8.5249,8.6399,8.6771,8.7347,8.8057,8.8057,8.738,8.6366,8.6366,8.5655,8.4647,8.5046,8.5689,8.6467,8.7177,8.7922,8.8632,8.8998,8.91,8.91,8.91,8.91,8.91,8.91,8.91,8.91,8.91,8.91,8.91,8.91,8.91,8.9201,8.9545,9.0222,9.0932,9.1677,9.2455,9.3098,9.3533,9.3601,9.3601,9.3601,9.3601,9.3601,9.3601,9.3601,9.3601,9.3601,9.3601,9.3601,9.3601,9.3601,9.374,9.4112,9.4112,9.4282,9.462,9.4654,9.4485,9.4112,9.3774,9.3943,9.4654,9.4687,9.5263,9.6311,9.6748,9.7292,5.1949,5.7807,6.4078,7.1309,7.5712,7.8337,7.8529,8.0305,8.1913,8.215,8.2198,8.1863,8.0706,8.0632,8.1039,8.1793,8.2743,8.3651,8.4412,8.4444,8.4502,8.4782,8.4054,8.3727,8.4343,8.4411,8.4411,8.4411,8.4411,8.4411,8.4411,8.4275,8.4275,8.4411,8.4411,8.4411,8.4411,8.4546,8.4614,8.4614,8.4614,8.4614,8.4614,8.4614,8.5046,8.5817,8.5926,8.6332,8.6913,8.7042,8.667,8.5993,8.6129,8.5689,8.5053,8.5723,8.6088,8.6332,8.7583,8.8091,8.8294,8.8897,8.91,8.91,8.91,8.91,8.91,8.91,8.91,8.91,8.91,8.91,8.9134,8.9269,8.9275,8.9444,9.0087,9.0899,9.1677,9.2257,9.3064,9.3601,9.3601,9.3601,9.3601,9.3601,9.3601,9.3601,9.3601,9.3601,9.3601,9.3601,9.3601,9.3601,9.3601,9.3736,9.4045,9.4687,9.4823,9.5161,9.577,9.5804,9.5567,9.5093,9.4214,9.4383,9.5601,9.5127,9.5567,9.6917,9.7052,9.7428,4.7873,5.7467,6.8034,7.4436,7.917,8.1978,8.1083,8.3608,8.566,8.3755,8.335,8.3038,8.1875,8.2459,8.2883,8.2037,8.3614,8.4696,8.3869,8.4806,8.4999,8.3471,8.343,8.3524,8.3625,8.3659,8.3659,8.3659,8.3659,8.3659,8.3659,8.305,8.2983,8.3625,8.3659,8.3659,8.3659,8.4275,8.4614,8.4614,8.4614,8.4614,8.4614,8.4614,8.5046,8.5851,8.6467,8.6805,8.6974,8.7583,8.7414,8.6839,8.7448,8.7245,8.6636,8.6738,8.7177,8.7719,8.7922,8.8395,8.8998,8.9066,8.91,8.91,8.91,8.91,8.91,8.91,8.91,8.91,8.91,8.91,8.9269,8.9918,9.0053,9.0087,9.0188,9.1276,9.2257,9.2358,9.3064,9.3601,9.3601,9.3601,9.3601,9.3601,9.3601,9.3601,9.3601,9.3601,9.3601,9.3601,9.3601,9.3601,9.3601,9.418,9.462,9.4687,9.5296,9.5702,9.5804,9.5804,9.6041,9.6612,9.5263,9.4654,9.4857,9.5398,9.6074,9.6917,9.7563,9.7901,5.2167,6.0574,6.8517,7.3607,7.8178,8.1059,7.9744,8.2362,8.4613,8.2994,8.3169,8.3471,8.295,8.3277,8.345,8.295,8.367,8.4186,8.3685,8.36,8.346,8.3042,8.2576,8.2408,8.2847,8.2881,8.2881,8.2881,8.2881,8.2881,8.2881,8.2577,8.2543,8.2881,8.2881,8.2881,8.2881,8.3625,8.4174,8.4614,8.42,8.4174,8.4614,8.4614,8.4783,8.5148,8.5459,8.5892,8.6298,8.6636,8.6805,8.6941,8.7279,8.7211,8.6974,8.738,8.7719,8.8057,8.8463,8.8829,8.91,8.91,8.91,8.91,8.91,8.91,8.91,8.91,8.91,8.91,8.91,8.941,8.9782,9.0121,9.0831,9.1411,9.1411,9.1918,9.2527,9.2996,9.3334,9.3601,9.3601,9.3601,9.3601,9.3601,9.3601,9.3601,9.3601,9.3601,9.3601,9.3601,9.3601,9.3774,9.418,9.4518,9.506,9.5872,9.6244,9.6582,9.7022,9.7022,9.6988,9.6917,9.5838,9.5736,9.6548,9.6447,9.6785,9.7529,9.7867,9.8003,5.4753,6.0891,6.5806,7.124,7.5854,7.8888,7.8267,8.0807,8.3052,8.2118,8.2817,8.3621,8.3621,8.3621,8.3514,8.3234,8.3428,8.3407,8.2817,8.2418,8.2208,8.2267,8.1694,8.1494,8.2069,8.2137,8.2137,8.2137,8.2137,8.2137,8.2137,8.1934,8.1934,8.2103,8.2137,8.2137,8.2137,8.2847,8.3592,8.4309,8.3761,8.3896,8.4614,8.4614,8.4614,8.4614,8.4614,8.4945,8.552,8.5926,8.6399,8.6941,8.7313,8.7448,8.7516,8.8091,8.826,8.8361,8.8903,8.91,8.91,8.91,8.91,8.91,8.91,8.91,8.91,8.91,8.91,8.9168,8.9309,8.9782,9.029,9.0696,9.158,9.2459,9.2658,9.2725,9.2895,9.347,9.3601,9.3601,9.3601,9.3601,9.3601,9.3601,9.3601,9.3601,9.3601,9.3601,9.3601,9.3601,9.3601,9.3876,9.4654,9.489,9.5533,9.6849,9.7086,9.7428,9.8003,9.8003,9.7732,9.7191,9.665,9.6819,9.7732,9.7157,9.7258,9.8003,9.8003,9.8003,5.0973,5.4914,5.8962,6.7938,7.3095,7.6388,7.8089,8.06,8.2425,8.1978,8.2817,8.3621,8.3621,8.3621,8.3256,8.2175,8.2906,8.2839,8.0656,8.1864,8.2301,8.0528,8.0902,8.1317,8.1351,8.1384,8.1384,8.1384,8.1384,8.1384,8.1384,8.0682,8.0615,8.1351,8.1384,8.1384,8.1384,8.2103,8.2847,8.3558,8.3524,8.3896,8.4614,8.4614,8.4614,8.4614,8.4614,8.4614,8.4783,8.6264,8.6873,8.7042,8.8429,8.8998,8.8998,8.9032,8.9066,8.9066,8.91,8.91,8.91,8.91,8.91,8.91,8.91,8.91,8.91,8.91,8.91,8.9269,8.9951,9.0188,9.056,9.1952,9.2324,9.2624,9.3368,9.3567,9.3567,9.3601,9.3601,9.3601,9.3601,9.3601,9.3601,9.3601,9.3601,9.3601,9.3601,9.3601,9.3601,9.3601,9.3601,9.3876,9.4654,9.533,9.6074,9.6849,9.7563,9.7969,9.8003,9.8003,9.8003,9.7935,9.7901,9.7597,9.6985,9.6917,9.7258,9.8003,9.8003,9.8003,4.8372,5.1987,5.6078,6.2754,6.8148,7.226,7.4177,7.7411,8.0039,8.007,8.044,8.1076,8.2299,8.3125,8.3234,8.2083,8.2232,8.1945,8.0426,8.078,8.0938,8.0259,8.0412,8.0581,8.0581,8.0581,8.0581,8.0581,8.0581,8.0581,8.0581,8.0344,8.031,8.0581,8.0581,8.0818,8.1317,8.1088,8.1832,8.349,8.3016,8.343,8.4614,8.4614,8.4614,8.4614,8.4614,8.5155,8.6102,8.667,8.7448,8.8361,8.8869,8.91,8.91,8.91,8.91,8.91,8.91,8.91,8.91,8.91,8.91,8.91,8.91,8.91,8.91,8.91,8.9444,8.9884,9.0154,9.0904,9.188,9.2928,9.3165,9.3233,9.3567,9.3601,9.3601,9.3601,9.3601,9.3601,9.3601,9.3601,9.3402,9.2928,9.3267,9.3402,9.2895,9.3267,9.3601,9.3601,9.4011,9.4586,9.533,9.6074,9.6819,9.7563,9.7867,9.8003,9.8003,9.8003,9.8003,9.8003,9.8003,9.7867,9.7597,9.7597,9.7732,9.8003,9.8003,9.8003,4.5418,4.8409,5.2367,5.8592,6.2764,6.6696,7.1954,7.4707,7.6645,7.8351,7.8923,7.9501,8.0717,8.1783,8.2358,8.1945,8.1898,8.1522,8.0376,8.0209,8.0209,8.0209,8.0209,8.0209,8.0209,8.0209,8.0209,8.0209,8.0209,8.0209,8.0209,8.0209,8.0209,8.0209,8.0209,8.0445,8.0919,8.0682,8.1426,8.3118,8.2881,8.3396,8.4614,8.4614,8.4614,8.4614,8.4614,8.5324,8.6569,8.6805,8.7617,8.8761,8.8998,8.91,8.91,8.91,8.91,8.91,8.91,8.91,8.91,8.91,8.91,8.91,8.91,8.91,8.9168,8.9376,8.9816,9.0324,9.0831,9.188,9.2928,9.347,9.3601,9.3601,9.3601,9.3601,9.3601,9.3601,9.3601,9.3601,9.3601,9.3601,9.3402,9.2895,9.3267,9.3402,9.2895,9.3503,9.3943,9.3943,9.462,9.5364,9.6108,9.6616,9.7191,9.7969,9.8003,9.8003,9.8003,9.8003,9.8003,9.8003,9.8003,9.8003,9.8003,9.8003,9.8003,9.8003,9.8003,9.8003,0.0,0.0,0.0,5.5565,5.707,5.9708,7.1413,7.2473,7.2293,7.686,7.8382,7.8898,7.9034,7.9667,8.0499,8.1641,8.1829,8.1474,8.0351,8.0209,8.0209,8.0209,8.0209,8.0209,8.0209,8.0209,8.0209,8.0209,8.0209,8.0209,8.0209,8.0209,8.0209,8.0209,8.0209,8.0209,8.0209,8.0919,8.1663,8.2408,8.3152,8.3896,8.4614,8.4614,8.4614,8.4614,8.4614,8.5114,8.5892,8.6602,8.7347,8.8091,8.8801,8.91,8.91,8.91,8.91,8.91,8.91,8.91,8.91,8.91,8.91,8.91,8.91,8.91,8.9241,8.9985,9.0222,9.0594,9.2054,9.303,9.3601,9.3601,9.3601,9.3601,9.3601,9.3601,9.3601,9.3601,9.3601,9.3601,9.3601,9.3601,9.3601,9.3567,9.3601,9.3601,9.3601,9.4248,9.4721,9.4755,9.5398,9.6108,9.6849,9.6917,9.7225,9.7969,9.8003,9.8003,9.8003,9.8003,9.8003,9.8003,9.8003,9.8003,9.8003,9.8003,9.8003,9.8003,9.8003,9.8003,4.1576,0.0,0.0,0.0,0.0,0.0,6.0351,6.2956,6.5797,7.1921,7.3341,7.4458,7.7705,7.845,7.8878,7.9756,8.0316,8.0567,8.0225,8.0209,8.0209,8.0209,8.0209,8.0209,8.0209,8.0209,8.0209,8.0209,8.0209,8.0209,8.0209,8.0209,8.0209,8.0209,8.0209,8.0209,8.0209,8.0919,8.1663,8.2408,8.3152,8.3896,8.4614,8.4614,8.4614,8.4614,8.5215,8.5892,8.6602,8.6839,8.7651,8.8801,8.9032,8.91,8.91,8.91,8.91,8.91,8.91,8.91,8.91,8.91,8.91,8.91,8.91,8.91,8.9241,8.9985,9.0594,9.1338,9.2861,9.3436,9.3601,9.3601,9.3601,9.3601,9.3601,9.3601,9.3601,9.3601,9.3601,9.3601,9.3601,9.3601,9.3402,9.2827,9.3233,9.3601,9.3601,9.4248,9.4924,9.5432,9.6142,9.668,9.6883,9.7394,9.7766,9.8003,9.8003,9.8003,9.8003,9.8003,9.8003,9.8003,9.8003,9.8003,9.8003,9.8003,9.8003,9.8003,9.8003,9.8003,0.0,0.0,0.0,0.0,0.0,0.0,5.8051,6.0216,6.2821,6.9835,7.1785,7.3206,7.642,7.7029,7.7401,7.8483,7.8754,7.916,8.0073,8.0209,8.0209,8.0209,8.0209,8.0209,8.0209,8.0209,8.0209,8.0209,8.0209,8.0209,8.0209,8.0209,8.0209,8.0209,8.0209,8.0209,8.0209,8.1224,8.1968,8.2382,8.3456,8.4174,8.4614,8.4614,8.4614,8.4647,8.5452,8.623,8.6941,8.7245,8.8057,8.91,8.91,8.91,8.91,8.91,8.91,8.91,8.91,8.91,8.91,8.91,8.91,8.91,8.91,8.91,8.9337,9.0357,9.144,9.2455,9.3398,9.3601,9.3601,9.3601,9.3601,9.3601,9.3601,9.3601,9.3601,9.3601,9.3601,9.3601,9.3601,9.3601,9.3436,9.2962,9.3571,9.4045,9.4045,9.4958,9.577,9.621,9.692,9.736,9.736,9.7766,9.8003,9.8003,9.8003,9.8003,9.8003,9.8003,9.8003,9.8003,9.8003,9.8003,9.8003,9.8003,9.8003,9.8003,9.8003,9.8003,0.0,0.0,0.0,0.0,0.0,0.0,5.9453,6.0467,6.1332,6.8245,7.0872,7.2394,7.4153,7.4593,7.5134,7.6444,7.6555,7.7333,7.9634,8.004,8.0073,8.0073,8.0141,8.0209,8.0209,8.0209,8.0209,8.0209,8.0209,8.0209,8.0209,8.0209,8.0209,8.0209,8.0209,8.0242,8.031,8.1697,8.2441,8.2543,8.3937,8.4614,8.4614,8.4614,8.4614,8.4647,8.5554,8.6298,8.6974,8.7786,8.8497,8.91,8.91,8.91,8.91,8.91,8.91,8.91,8.91,8.91,8.91,8.91,8.91,8.91,8.91,8.9168,8.9512,9.1,9.2455,9.3601,9.3601,9.3601,9.3601,9.3601,9.3601,9.3601,9.3601,9.3601,9.3601,9.3601,9.3601,9.3601,9.3601,9.3601,9.3634,9.3706,9.4282,9.4755,9.4924,9.6074,9.6951,9.7018,9.7597,9.8003,9.8003,9.8003,9.8003,9.8003,9.8003,9.8003,9.8003,9.8003,9.8003,9.8003,9.8003,9.8003,9.8003,9.8003,9.8003,9.8003,9.8003,9.8003,4.6563,4.7327,4.8274,0.0,0.0,0.0,5.0101,5.2503,5.5716,5.8964,6.0791,6.2854,6.617,6.776,6.8436,6.8153,7.1537,7.5134,7.8034,7.8957,7.9304,7.9304,7.9837,8.0209,8.0209,8.0209,8.0209,8.0209,8.0209,8.0209,8.0209,8.0209,8.0209,8.0209,8.0209,8.0479,8.108,8.1968,8.2712,8.3287,8.4174,8.4614,8.4614,8.4614,8.4614,8.4681,8.6095,8.6771,8.7008,8.8328,8.8998,8.91,8.91,8.91,8.91,8.91,8.91,8.91,8.91,8.91,8.91,8.91,8.91,8.91,8.91,8.9512,9.029,9.1749,9.2861,9.3601,9.3601,9.3601,9.3601,9.3601,9.3601,9.3601,9.3601,9.3601,9.3601,9.3601,9.3601,9.3601,9.3601,9.3601,9.3774,9.4417,9.462,9.5127,9.6311,9.6748,9.7154,9.7732,9.7935,9.8003,9.8003,9.8003,9.8003,9.8003,9.8003,9.8003,9.8003,9.8003,9.8003,9.8003,9.8003,9.8003,9.8003,9.8003,9.8003,9.8003,9.8003,9.8003,4.8748,4.8984,4.9627,5.0033,0.0,0.0,0.0,5.1876,5.389,5.7205,5.8186,5.9505,6.2888,6.3463,6.3937,6.548,6.8842,7.1954,7.3872,7.6657,7.8551,7.8551,7.8889,7.9092,7.9092,7.9431,7.9803,8.0175,8.0209,8.0209,8.0209,8.0209,8.0209,8.0209,8.0209,8.0547,8.1317,8.2035,8.278,8.3524,8.4242,8.4614,8.4614,8.4614,8.4817,8.5283,8.6399,8.711,8.755,8.8632,8.91,8.91,8.91,8.91,8.91,8.91,8.91,8.91,8.91,8.91,8.91,8.91,8.91,8.9168,8.9545,9.0425,9.1445,9.2189,9.2996,9.3601,9.3601,9.3601,9.3601,9.3601,9.3601,9.3601,9.3601,9.3601,9.3601,9.3601,9.3601,9.3601,9.3601,9.3909,9.4282,9.4654,9.533,9.6041,9.6815,9.7191,9.7597,9.7969,9.8003,9.8003,9.8003,9.8003,9.8003,9.8003,9.8003,9.8003,9.8003,9.8003,9.8003,9.8003,9.8003,9.8003,9.8003,9.8003,9.8003,9.8003,9.8003,9.8003,0.0,0.0,0.0,0.0,0.0,5.1522,0.0,0.0,0.0,5.6443,5.6833,5.734,5.9776,5.9471,5.9776,6.2651,6.5628,6.776,6.8166,7.2496,7.597,7.6816,7.7435,7.7705,7.757,7.7841,7.8517,7.9701,7.9363,7.9363,7.9972,8.0107,8.0209,8.0209,8.0209,8.0615,8.1494,8.2103,8.2847,8.3727,8.4309,8.4614,8.4614,8.4614,8.5046,8.5824,8.6602,8.7313,8.8057,8.8795,8.91,8.91,8.91,8.91,8.91,8.91,8.91,8.91,8.91,8.91,8.91,8.91,8.91,8.9269,9.0154,9.1271,9.2223,9.2527,9.3098,9.3601,9.3601,9.3601,9.3601,9.3601,9.3601,9.3601,9.3601,9.3601,9.3601,9.3601,9.3601,9.3668,9.3774,9.4315,9.4823,9.5093,9.6142,9.6951,9.7089,9.7631,9.8003,9.8003,9.8003,9.8003,9.8003,9.8003,9.8003,9.8003,9.8003,9.8003,9.8003,9.8003,9.8003,9.8003,9.8003,9.8003,9.8003,9.8003,9.8003,9.8003,9.8172,9.8206,0.0,0.0,0.0,0.0,5.619,0.0,0.0,0.0,5.2773,5.0574,0.0,5.208,5.2418,0.0,0.0,5.3856,5.8524,6.1975,6.1332,6.4613,6.8571,7.2563,7.5405,7.6724,7.6014,7.483,7.5293,7.8044,7.6386,7.6396,7.9067,7.9837,8.0209,8.0209,8.0209,8.0885,8.2272,8.2374,8.3092,8.4478,8.4546,8.4614,8.4614,8.4614,8.5046,8.5824,8.6602,8.7313,8.8057,8.8795,8.91,8.91,8.91,8.91,8.91,8.91,8.91,8.91,8.91,8.91,8.91,8.91,8.91,8.9371,9.0729,9.1271,9.1711,9.3064,9.3533,9.3601,9.3601,9.3601,9.3601,9.3601,9.3601,9.3601,9.3601,9.3601,9.3601,9.3601,9.3601,9.3808,9.4451,9.4654,9.5161,9.6447,9.6815,9.7123,9.78,9.7969,9.8003,9.8003,9.8003,9.8003,9.8003,9.8003,9.8003,9.8003,9.8003,9.8003,9.8003,9.8003,9.8003,9.8003,9.8003,9.8003,9.8003,9.8003,9.8003,9.8037,9.8679,9.8984,0.0,0.0,0.0,0.0,0.0,0.0,5.1539,0.0,5.0642,0.0,0.0,0.0,0.0,0.0,0.0,0.0,5.6258,5.9066,5.8287,6.14,6.4972,6.8132,6.9248,7.05,7.2326,7.2326,7.3443,7.642,7.4999,7.527,7.828,7.916,7.9769,8.0175,8.0209,8.0919,8.2408,8.2408,8.3126,8.4614,8.4614,8.4614,8.4614,8.508,8.5723,8.6467,8.7211,8.7955,8.8632,8.8998,8.91,8.91,8.91,8.91,8.91,8.91,8.91,8.91,8.91,8.91,8.9168,8.9579,9.0019,9.056,9.1609,9.2252,9.2759,9.3431,9.3601,9.3601,9.3601,9.3601,9.3601,9.3601,9.3601,9.3601,9.3601,9.3601,9.3601,9.3601,9.3601,9.3943,9.5127,9.533,9.5702,9.6748,9.7258,9.7664,9.7969,9.8003,9.8003,9.8003,9.8003,9.8003,9.8003,9.8003,9.8003,9.8003,9.8003,9.8003,9.8003,9.8003,9.8003,9.8003,9.8003,9.8003,9.8003,9.8003,9.824,9.8645,9.895,9.9322,5.9641,0.0,0.0,0.0,0.0,0.0,0.0,0.0,0.0,0.0,0.0,0.0,0.0,0.0,0.0,0.0,0.0,5.6731,5.5987,5.7881,6.0452,6.3497,6.4309,6.5899,6.9248,6.9147,7.0432,7.4221,7.2529,7.3128,7.713,7.828,7.916,7.987,8.0073,8.0919,8.2408,8.2408,8.3126,8.4614,8.4614,8.4614,8.4614,8.5418,8.6196,8.6941,8.7685,8.8395,8.91,8.91,8.91,8.91,8.91,8.91,8.91,8.91,8.91,8.91,8.91,8.91,8.9201,8.9715,9.0256,9.0865,9.1812,9.2522,9.3059,9.3499,9.3601,9.3601,9.3601,9.3601,9.3601,9.3601,9.3601,9.3601,9.3601,9.3601,9.3601,9.3601,9.374,9.4315,9.5567,9.5804,9.6108,9.7056,9.7664,9.8003,9.8003,9.8003,9.8003,9.8003,9.8003,9.8003,9.8003,9.8003,9.8003,9.8003,9.8003,9.8003,9.8003,9.8003,9.8003,9.8003,9.8003,9.8104,9.8307,9.8307,9.8781,9.9728,9.9491,9.9796,0.0,0.0,0.0,5.8423,0.0,0.0,0.0,0.0,5.3991,0.0,0.0,0.0,0.0,0.0,0.0,0.0,0.0,0.0,0.0,0.0,0.0,0.0,0.0,6.5493,6.776,6.4749,6.5121,7.0985,6.803,6.8808,7.5405,7.7198,7.8382,7.9126,7.9837,8.0919,8.2408,8.2408,8.3126,8.4614,8.4614,8.4614,8.4614,8.5418,8.6196,8.6941,8.7685,8.8395,8.91,8.91,8.91,8.91,8.91,8.91,8.91,8.91,8.91,8.91,8.91,8.91,8.91,8.9134,8.9168,8.9438,9.0899,9.1338,9.1677,9.3194,9.3601,9.3601,9.3601,9.3601,9.3601,9.3601,9.3601,9.3601,9.3601,9.3601,9.3601,9.3601,9.418,9.4924,9.5669,9.5804,9.6277,9.7766,9.8003,9.8003,9.8003,9.8003,9.8003,9.8003,9.8003,9.8003,9.8003,9.8003,9.8003,9.8003,9.8003,9.8003,9.8003,9.8003,9.8003,9.8003,9.8003,9.8341,9.9051,9.9051,9.9829,10.1284,10.0506,10.0608,0.0,0.0,6.8301,6.2042,0.0,0.0,0.0,0.0,0.0,0.0,0.0,0.0,0.0,0.0,0.0,0.0,0.0,0.0,0.0,0.0,0.0,0.0,0.0,0.0,0.0,6.2415,6.458,6.8043,6.7151,6.8944,7.4695,7.642,7.7841,7.9034,7.9837,8.0919,8.2408,8.2408,8.3126,8.4614,8.4614,8.4884,8.5418,8.6196,8.6941,8.7685,8.8395,8.8897,8.91,8.91,8.9376,8.9816,8.9816,9.0121,9.0425,8.9472,8.91,8.91,8.91,8.91,8.9201,8.9681,8.9816,9.0019,9.1,9.1643,9.215,9.2658,9.3199,9.3601,9.3601,9.3601,9.3601,9.3601,9.3601,9.3601,9.3601,9.3601,9.3601,9.3601,9.4214,9.4924,9.5669,9.6176,9.6853,9.7867,9.8003,9.8003,9.8003,9.8003,9.8003,9.8003,9.8003,9.8003,9.8003,9.8003,9.8003,9.8003,9.8003,9.8003,9.8003,9.8003,9.8003,9.8003,9.8003,9.8375,9.9085,9.9085,9.9897,10.1418,10.1081,10.1386,6.9891,7.077,0.0,6.5933,6.4208,0.0,5.6765,0.0,0.0,0.0,0.0,0.0,0.0,0.0,0.0,0.0,0.0,0.0,0.0,4.8428,0.0,0.0,0.0,0.0,0.0,5.937,6.1414,6.6068,6.4952,6.6677,7.2699,7.5236,7.7029,7.828,7.9803,8.1156,8.2408,8.2678,8.3422,8.4614,8.4614,8.5046,8.5851,8.6569,8.7313,8.8023,8.8767,8.91,8.91,8.91,8.9512,9.0222,9.0222,9.0662,9.1135,8.9918,8.9337,8.91,8.91,8.91,8.9201,8.9647,8.9816,8.9951,9.0696,9.144,9.2054,9.2324,9.2996,9.3601,9.3601,9.3601,9.3601,9.3601,9.3601,9.3601,9.3601,9.3601,9.3601,9.3601,9.4417,9.5229,9.5702,9.6616,9.7428,9.7935,9.8003,9.8003,9.8003,9.8003,9.8003,9.8003,9.8003,9.8003,9.8003,9.8003,9.8003,9.8003,9.8003,9.8003,9.8003,9.8003,9.8138,9.8375,9.8375,9.8882,9.9897,9.9897,10.0605,10.1792,10.1792,10.1995]}]]